Wetterdaten: Dienstag, 15.11.2022
Datum Zeit Temp. I. Temp. A. Feuchte I. Feuchte A. Luftdruck Regen Wind Richtung Richtung Sonnenschein Solar Taupunkt Windchill Windböen
15.11.2022 00:00 21,9 °C 3,8 °C 57 % 92 % 1014,7 hPa 0,0 l/m² 3,6 km/h (1 Bft) N 355 ° 0 min 0 W/m² 2,6 °C 3,8 °C 6,4 km/h (2 Bft)
15.11.2022 00:02 21,9 °C 3,8 °C 57 % 92 % 1014,6 hPa 0,0 l/m² 4,0 km/h (1 Bft) N 360 ° 0 min 0 W/m² 2,6 °C 3,8 °C 6,4 km/h (2 Bft)
15.11.2022 00:03 21,9 °C 3,8 °C 57 % 92 % 1014,6 hPa 0,0 l/m² 3,6 km/h (1 Bft) N 360 ° 0 min 0 W/m² 2,6 °C 3,8 °C 4,8 km/h (1 Bft)
15.11.2022 00:05 21,9 °C 3,9 °C 57 % 92 % 1014,5 hPa 0,0 l/m² 3,8 km/h (1 Bft) NO 34 ° 0 min 0 W/m² 2,7 °C 3,9 °C 4,8 km/h (1 Bft)
15.11.2022 00:07 21,9 °C 3,9 °C 57 % 92 % 1014,5 hPa 0,0 l/m² 3,4 km/h (1 Bft) NO 35 ° 0 min 0 W/m² 2,7 °C 3,9 °C 4,8 km/h (1 Bft)
15.11.2022 00:09 21,9 °C 3,9 °C 57 % 92 % 1014,6 hPa 0,0 l/m² 4,0 km/h (1 Bft) NO 36 ° 0 min 0 W/m² 2,7 °C 3,9 °C 4,8 km/h (1 Bft)
15.11.2022 00:11 21,9 °C 3,8 °C 57 % 92 % 1014,6 hPa 0,0 l/m² 3,5 km/h (1 Bft) NO 36 ° 0 min 0 W/m² 2,6 °C 3,8 °C 4,8 km/h (1 Bft)
15.11.2022 00:12 21,9 °C 3,6 °C 57 % 92 % 1014,6 hPa 0,0 l/m² 3,2 km/h (1 Bft) NO 36 ° 0 min 0 W/m² 2,4 °C 3,6 °C 4,8 km/h (1 Bft)
15.11.2022 00:13 21,9 °C 3,5 °C 57 % 91 % 1014,5 hPa 0,0 l/m² 3,0 km/h (1 Bft) NO 36 ° 0 min 0 W/m² 2,2 °C 3,5 °C 3,2 km/h (1 Bft)
15.11.2022 00:14 21,9 °C 3,4 °C 57 % 91 % 1014,6 hPa 0,0 l/m² 1,5 km/h (1 Bft) NO 36 ° 0 min 0 W/m² 2,1 °C 3,4 °C 3,2 km/h (1 Bft)
15.11.2022 00:15 21,9 °C 3,3 °C 57 % 91 % 1014,6 hPa 0,0 l/m² 1,0 km/h (0 Bft) NO 36 ° 0 min 0 W/m² 2,0 °C 3,3 °C 1,6 km/h (1 Bft)
15.11.2022 00:17 21,9 °C 3,2 °C 57 % 91 % 1014,6 hPa 0,0 l/m² 1,4 km/h (1 Bft) NO 36 ° 0 min 0 W/m² 1,9 °C 3,2 °C 3,2 km/h (1 Bft)
15.11.2022 00:19 21,9 °C 3,1 °C 57 % 91 % 1014,5 hPa 0,0 l/m² 0,8 km/h (0 Bft) NO 36 ° 0 min 0 W/m² 1,8 °C 3,1 °C 1,6 km/h (1 Bft)
15.11.2022 00:21 21,9 °C 2,9 °C 57 % 91 % 1014,5 hPa 0,0 l/m² 0,0 km/h (0 Bft) NO 36 ° 0 min 0 W/m² 1,6 °C 2,9 °C 0,0 km/h (0 Bft)
15.11.2022 00:22 21,9 °C 2,9 °C 57 % 92 % 1014,5 hPa 0,0 l/m² 0,0 km/h (0 Bft) NO 36 ° 0 min 0 W/m² 1,7 °C 2,9 °C 0,0 km/h (0 Bft)
15.11.2022 00:23 21,9 °C 2,8 °C 57 % 92 % 1014,5 hPa 0,0 l/m² 2,0 km/h (1 Bft) NO 36 ° 0 min 0 W/m² 1,6 °C 2,8 °C 4,8 km/h (1 Bft)
15.11.2022 00:25 21,9 °C 2,8 °C 57 % 92 % 1014,5 hPa 0,0 l/m² 3,7 km/h (1 Bft) NO 36 ° 0 min 0 W/m² 1,6 °C 2,8 °C 6,4 km/h (2 Bft)
15.11.2022 00:27 21,8 °C 2,9 °C 57 % 93 % 1014,4 hPa 0,0 l/m² 4,4 km/h (1 Bft) NO 38 ° 0 min 0 W/m² 1,9 °C 2,9 °C 6,4 km/h (2 Bft)
15.11.2022 00:29 21,9 °C 3,2 °C 57 % 93 % 1014,4 hPa 0,0 l/m² 2,9 km/h (1 Bft) NO 38 ° 0 min 0 W/m² 2,2 °C 3,2 °C 6,4 km/h (2 Bft)
15.11.2022 00:31 21,9 °C 3,3 °C 57 % 93 % 1014,5 hPa 0,0 l/m² 3,2 km/h (1 Bft) NO 38 ° 0 min 0 W/m² 2,3 °C 3,3 °C 4,8 km/h (1 Bft)
15.11.2022 00:32 21,8 °C 3,4 °C 57 % 93 % 1014,4 hPa 0,0 l/m² 1,9 km/h (1 Bft) NO 38 ° 0 min 0 W/m² 2,4 °C 3,4 °C 3,2 km/h (1 Bft)
15.11.2022 00:33 21,8 °C 3,3 °C 57 % 93 % 1014,4 hPa 0,0 l/m² 2,7 km/h (1 Bft) NO 38 ° 0 min 0 W/m² 2,3 °C 3,3 °C 3,2 km/h (1 Bft)
15.11.2022 00:35 21,8 °C 3,4 °C 57 % 93 % 1014,4 hPa 0,0 l/m² 3,9 km/h (1 Bft) NO 38 ° 0 min 0 W/m² 2,4 °C 3,4 °C 4,8 km/h (1 Bft)
15.11.2022 00:37 21,8 °C 3,6 °C 57 % 93 % 1014,4 hPa 0,0 l/m² 2,3 km/h (1 Bft) NO 38 ° 0 min 0 W/m² 2,6 °C 3,6 °C 4,8 km/h (1 Bft)
15.11.2022 00:39 21,8 °C 3,8 °C 57 % 93 % 1014,5 hPa 0,0 l/m² 3,1 km/h (1 Bft) NO 38 ° 0 min 0 W/m² 2,8 °C 3,8 °C 4,8 km/h (1 Bft)
15.11.2022 00:41 21,8 °C 3,9 °C 57 % 93 % 1014,4 hPa 0,0 l/m² 2,2 km/h (1 Bft) NO 38 ° 0 min 0 W/m² 2,9 °C 3,9 °C 4,8 km/h (1 Bft)
15.11.2022 00:42 21,8 °C 4,0 °C 57 % 93 % 1014,4 hPa 0,0 l/m² 2,1 km/h (1 Bft) NO 38 ° 0 min 0 W/m² 3,0 °C 4,0 °C 3,2 km/h (1 Bft)
15.11.2022 00:43 21,8 °C 4,1 °C 57 % 93 % 1014,5 hPa 0,0 l/m² 3,1 km/h (1 Bft) NO 38 ° 0 min 0 W/m² 3,1 °C 4,1 °C 4,8 km/h (1 Bft)
15.11.2022 00:46 21,8 °C 4,0 °C 57 % 93 % 1014,4 hPa 0,0 l/m² 2,9 km/h (1 Bft) NO 38 ° 0 min 0 W/m² 3,0 °C 4,0 °C 4,8 km/h (1 Bft)
15.11.2022 00:47 21,8 °C 3,9 °C 57 % 93 % 1014,5 hPa 0,0 l/m² 4,7 km/h (1 Bft) NO 38 ° 0 min 0 W/m² 2,9 °C 3,9 °C 6,4 km/h (2 Bft)
15.11.2022 00:49 21,8 °C 3,7 °C 57 % 92 % 1014,3 hPa 0,0 l/m² 2,4 km/h (1 Bft) NO 38 ° 0 min 0 W/m² 2,5 °C 3,7 °C 4,8 km/h (1 Bft)
15.11.2022 00:51 21,8 °C 3,6 °C 57 % 92 % 1014,4 hPa 0,0 l/m² 3,7 km/h (1 Bft) NO 38 ° 0 min 0 W/m² 2,4 °C 3,6 °C 4,8 km/h (1 Bft)
15.11.2022 00:52 21,8 °C 3,4 °C 57 % 92 % 1014,4 hPa 0,0 l/m² 3,4 km/h (1 Bft) NO 38 ° 0 min 0 W/m² 2,2 °C 3,4 °C 4,8 km/h (1 Bft)
15.11.2022 00:53 21,8 °C 3,4 °C 57 % 92 % 1014,4 hPa 0,0 l/m² 3,1 km/h (1 Bft) NO 38 ° 0 min 0 W/m² 2,2 °C 3,4 °C 4,8 km/h (1 Bft)
15.11.2022 00:55 21,8 °C 3,3 °C 57 % 92 % 1014,3 hPa 0,0 l/m² 1,2 km/h (1 Bft) NO 38 ° 0 min 0 W/m² 2,1 °C 3,3 °C 3,2 km/h (1 Bft)
15.11.2022 00:57 21,8 °C 3,3 °C 57 % 92 % 1014,4 hPa 0,0 l/m² 0,0 km/h (0 Bft) NO 38 ° 0 min 0 W/m² 2,1 °C 3,3 °C 0,0 km/h (0 Bft)
15.11.2022 00:59 21,8 °C 3,3 °C 57 % 93 % 1014,4 hPa 0,0 l/m² 1,3 km/h (1 Bft) NO 38 ° 0 min 0 W/m² 2,3 °C 3,3 °C 3,2 km/h (1 Bft)
15.11.2022 01:01 21,8 °C 3,2 °C 57 % 92 % 1014,3 hPa 0,0 l/m² 2,7 km/h (1 Bft) NO 38 ° 0 min 0 W/m² 2,0 °C 3,2 °C 4,8 km/h (1 Bft)
15.11.2022 01:02 21,8 °C 3,2 °C 57 % 92 % 1014,3 hPa 0,0 l/m² 2,3 km/h (1 Bft) NO 38 ° 0 min 0 W/m² 2,0 °C 3,2 °C 3,2 km/h (1 Bft)
15.11.2022 01:04 21,8 °C 3,3 °C 57 % 93 % 1014,3 hPa 0,0 l/m² 1,1 km/h (1 Bft) NO 38 ° 0 min 0 W/m² 2,3 °C 3,3 °C 3,2 km/h (1 Bft)
15.11.2022 01:06 21,8 °C 3,5 °C 57 % 93 % 1014,3 hPa 0,0 l/m² 1,6 km/h (1 Bft) NO 38 ° 0 min 0 W/m² 2,5 °C 3,5 °C 4,8 km/h (1 Bft)
15.11.2022 01:08 21,8 °C 3,7 °C 57 % 94 % 1014,3 hPa 0,0 l/m² 3,0 km/h (1 Bft) NO 38 ° 0 min 0 W/m² 2,8 °C 3,7 °C 6,4 km/h (2 Bft)
15.11.2022 01:10 21,8 °C 3,9 °C 57 % 94 % 1014,2 hPa 0,0 l/m² 2,1 km/h (1 Bft) NO 38 ° 0 min 0 W/m² 3,0 °C 3,9 °C 4,8 km/h (1 Bft)
15.11.2022 01:12 21,8 °C 4,1 °C 57 % 94 % 1014,2 hPa 0,0 l/m² 1,5 km/h (1 Bft) NO 38 ° 0 min 0 W/m² 3,2 °C 4,1 °C 4,8 km/h (1 Bft)
15.11.2022 01:13 21,8 °C 4,1 °C 57 % 94 % 1014,2 hPa 0,0 l/m² 1,7 km/h (1 Bft) NO 38 ° 0 min 0 W/m² 3,2 °C 4,1 °C 3,2 km/h (1 Bft)
15.11.2022 01:14 21,7 °C 4,0 °C 57 % 93 % 1014,2 hPa 0,0 l/m² 0,5 km/h (0 Bft) NO 38 ° 0 min 0 W/m² 3,0 °C 4,0 °C 1,6 km/h (1 Bft)
15.11.2022 01:16 21,7 °C 3,8 °C 57 % 93 % 1014,3 hPa 0,0 l/m² 1,6 km/h (1 Bft) NO 38 ° 0 min 0 W/m² 2,8 °C 3,8 °C 3,2 km/h (1 Bft)
15.11.2022 01:18 21,7 °C 3,6 °C 57 % 92 % 1014,2 hPa 0,0 l/m² 2,3 km/h (1 Bft) NO 38 ° 0 min 0 W/m² 2,4 °C 3,6 °C 4,8 km/h (1 Bft)
15.11.2022 01:20 21,7 °C 3,4 °C 57 % 92 % 1014,3 hPa 0,0 l/m² 0,4 km/h (0 Bft) NO 38 ° 0 min 0 W/m² 2,2 °C 3,4 °C 3,2 km/h (1 Bft)
15.11.2022 01:22 21,8 °C 3,3 °C 57 % 93 % 1014,2 hPa 0,0 l/m² 2,5 km/h (1 Bft) NO 38 ° 0 min 0 W/m² 2,3 °C 3,3 °C 3,2 km/h (1 Bft)
15.11.2022 01:23 21,7 °C 3,3 °C 57 % 93 % 1014,2 hPa 0,0 l/m² 2,5 km/h (1 Bft) NO 38 ° 0 min 0 W/m² 2,3 °C 3,3 °C 3,2 km/h (1 Bft)
15.11.2022 01:24 21,7 °C 3,1 °C 57 % 93 % 1014,2 hPa 0,0 l/m² 2,5 km/h (1 Bft) NO 38 ° 0 min 0 W/m² 2,1 °C 3,1 °C 3,2 km/h (1 Bft)
15.11.2022 01:26 21,7 °C 2,9 °C 57 % 92 % 1014,3 hPa 0,0 l/m² 3,1 km/h (1 Bft) NO 38 ° 0 min 0 W/m² 1,7 °C 2,9 °C 4,8 km/h (1 Bft)
15.11.2022 01:28 21,8 °C 2,8 °C 57 % 92 % 1014,2 hPa 0,0 l/m² 2,9 km/h (1 Bft) NO 38 ° 0 min 0 W/m² 1,6 °C 2,8 °C 4,8 km/h (1 Bft)
15.11.2022 01:30 21,7 °C 2,8 °C 57 % 92 % 1014,2 hPa 0,0 l/m² 3,0 km/h (1 Bft) NO 38 ° 0 min 0 W/m² 1,6 °C 2,8 °C 3,2 km/h (1 Bft)
15.11.2022 01:32 21,7 °C 2,8 °C 57 % 93 % 1014,2 hPa 0,0 l/m² 3,0 km/h (1 Bft) NO 38 ° 0 min 0 W/m² 1,8 °C 2,8 °C 3,2 km/h (1 Bft)
15.11.2022 01:33 21,7 °C 2,8 °C 57 % 93 % 1014,2 hPa 0,0 l/m² 1,6 km/h (1 Bft) NO 38 ° 0 min 0 W/m² 1,8 °C 2,8 °C 3,2 km/h (1 Bft)
15.11.2022 01:34 21,7 °C 2,8 °C 57 % 93 % 1014,2 hPa 0,0 l/m² 2,5 km/h (1 Bft) NO 38 ° 0 min 0 W/m² 1,8 °C 2,8 °C 3,2 km/h (1 Bft)
15.11.2022 01:36 21,7 °C 3,0 °C 57 % 93 % 1014,1 hPa 0,0 l/m² 3,4 km/h (1 Bft) NO 38 ° 0 min 0 W/m² 2,0 °C 3,0 °C 4,8 km/h (1 Bft)
15.11.2022 01:38 21,7 °C 3,2 °C 57 % 94 % 1014,2 hPa 0,0 l/m² 2,7 km/h (1 Bft) NO 38 ° 0 min 0 W/m² 2,3 °C 3,2 °C 4,8 km/h (1 Bft)
15.11.2022 01:40 21,7 °C 3,4 °C 57 % 94 % 1014,2 hPa 0,0 l/m² 1,4 km/h (1 Bft) NO 38 ° 0 min 0 W/m² 2,5 °C 3,4 °C 3,2 km/h (1 Bft)
15.11.2022 01:42 21,7 °C 3,7 °C 57 % 94 % 1014,2 hPa 0,0 l/m² 0,6 km/h (0 Bft) NO 38 ° 0 min 0 W/m² 2,8 °C 3,7 °C 3,2 km/h (1 Bft)
15.11.2022 01:43 21,7 °C 3,8 °C 57 % 94 % 1014,1 hPa 0,0 l/m² 0,3 km/h (0 Bft) NO 38 ° 0 min 0 W/m² 2,9 °C 3,8 °C 1,6 km/h (1 Bft)
15.11.2022 01:44 21,7 °C 3,8 °C 57 % 94 % 1014,2 hPa 0,0 l/m² 2,4 km/h (1 Bft) NO 38 ° 0 min 0 W/m² 2,9 °C 3,8 °C 3,2 km/h (1 Bft)
15.11.2022 01:46 21,7 °C 4,0 °C 57 % 94 % 1014,1 hPa 0,0 l/m² 0,7 km/h (0 Bft) NO 38 ° 0 min 0 W/m² 3,1 °C 4,0 °C 3,2 km/h (1 Bft)
15.11.2022 01:48 21,7 °C 4,1 °C 57 % 94 % 1014,1 hPa 0,0 l/m² 0,6 km/h (0 Bft) NO 38 ° 0 min 0 W/m² 3,2 °C 4,1 °C 3,2 km/h (1 Bft)
15.11.2022 01:50 21,7 °C 4,2 °C 57 % 94 % 1014,1 hPa 0,0 l/m² 2,0 km/h (1 Bft) NO 38 ° 0 min 0 W/m² 3,3 °C 4,2 °C 4,8 km/h (1 Bft)
15.11.2022 01:52 21,7 °C 4,2 °C 57 % 94 % 1014,1 hPa 0,0 l/m² 2,8 km/h (1 Bft) NO 38 ° 0 min 0 W/m² 3,3 °C 4,2 °C 4,8 km/h (1 Bft)
15.11.2022 01:53 21,7 °C 4,3 °C 57 % 94 % 1014,1 hPa 0,0 l/m² 5,1 km/h (1 Bft) NO 38 ° 0 min 0 W/m² 3,4 °C 4,3 °C 6,4 km/h (2 Bft)
15.11.2022 01:54 21,7 °C 4,3 °C 57 % 94 % 1014,1 hPa 0,0 l/m² 4,3 km/h (1 Bft) NO 38 ° 0 min 0 W/m² 3,4 °C 4,3 °C 6,4 km/h (2 Bft)
15.11.2022 01:56 21,7 °C 4,4 °C 57 % 94 % 1014,1 hPa 0,0 l/m² 4,2 km/h (1 Bft) NO 38 ° 0 min 0 W/m² 3,5 °C 4,4 °C 6,4 km/h (2 Bft)
15.11.2022 01:58 21,7 °C 4,6 °C 57 % 94 % 1014,1 hPa 0,0 l/m² 3,9 km/h (1 Bft) NO 39 ° 0 min 0 W/m² 3,7 °C 4,6 °C 6,4 km/h (2 Bft)
15.11.2022 02:00 21,7 °C 4,6 °C 57 % 94 % 1014,1 hPa 0,0 l/m² 4,3 km/h (1 Bft) NO 42 ° 0 min 0 W/m² 3,7 °C 4,6 °C 6,4 km/h (2 Bft)
15.11.2022 02:02 21,7 °C 4,7 °C 57 % 94 % 1014,1 hPa 0,0 l/m² 3,9 km/h (1 Bft) NO 42 ° 0 min 0 W/m² 3,8 °C 4,7 °C 6,4 km/h (2 Bft)
15.11.2022 02:03 21,7 °C 4,7 °C 57 % 94 % 1014,0 hPa 0,0 l/m² 4,3 km/h (1 Bft) NO 42 ° 0 min 0 W/m² 3,8 °C 4,7 °C 4,8 km/h (1 Bft)
15.11.2022 02:04 21,7 °C 4,7 °C 57 % 94 % 1014,1 hPa 0,0 l/m² 3,5 km/h (1 Bft) NO 42 ° 0 min 0 W/m² 3,8 °C 4,7 °C 4,8 km/h (1 Bft)
15.11.2022 02:06 21,7 °C 4,7 °C 57 % 94 % 1014,1 hPa 0,0 l/m² 3,1 km/h (1 Bft) NO 42 ° 0 min 0 W/m² 3,8 °C 4,7 °C 6,4 km/h (2 Bft)
15.11.2022 02:08 21,7 °C 4,8 °C 57 % 94 % 1014,1 hPa 0,0 l/m² 3,1 km/h (1 Bft) NO 42 ° 0 min 0 W/m² 3,9 °C 4,8 °C 6,4 km/h (2 Bft)
15.11.2022 02:10 21,7 °C 4,8 °C 57 % 94 % 1014,1 hPa 0,0 l/m² 5,6 km/h (2 Bft) NO 43 ° 0 min 0 W/m² 3,9 °C 4,8 °C 8,0 km/h (2 Bft)
15.11.2022 02:12 21,7 °C 4,8 °C 57 % 93 % 1014,1 hPa 0,0 l/m² 5,2 km/h (1 Bft) NO 44 ° 0 min 0 W/m² 3,8 °C 4,8 °C 6,4 km/h (2 Bft)
15.11.2022 02:13 21,7 °C 4,8 °C 57 % 93 % 1014,0 hPa 0,0 l/m² 2,4 km/h (1 Bft) NO 44 ° 0 min 0 W/m² 3,8 °C 4,8 °C 4,8 km/h (1 Bft)
15.11.2022 02:14 21,7 °C 4,7 °C 57 % 93 % 1014,0 hPa 0,0 l/m² 2,9 km/h (1 Bft) NO 44 ° 0 min 0 W/m² 3,7 °C 4,7 °C 3,2 km/h (1 Bft)
15.11.2022 02:16 21,7 °C 4,5 °C 57 % 93 % 1014,1 hPa 0,0 l/m² 5,5 km/h (2 Bft) NO 44 ° 0 min 0 W/m² 3,5 °C 4,5 °C 8,0 km/h (2 Bft)
15.11.2022 02:18 21,7 °C 4,5 °C 57 % 93 % 1013,9 hPa 0,0 l/m² 5,7 km/h (2 Bft) NO 44 ° 0 min 0 W/m² 3,5 °C 4,5 °C 8,0 km/h (2 Bft)
15.11.2022 02:20 21,7 °C 4,6 °C 57 % 94 % 1014,1 hPa 0,0 l/m² 3,7 km/h (1 Bft) NO 44 ° 0 min 0 W/m² 3,7 °C 4,6 °C 6,4 km/h (2 Bft)
15.11.2022 02:22 21,7 °C 4,4 °C 57 % 93 % 1014,1 hPa 0,0 l/m² 2,4 km/h (1 Bft) NO 44 ° 0 min 0 W/m² 3,4 °C 4,4 °C 4,8 km/h (1 Bft)
15.11.2022 02:23 21,7 °C 4,3 °C 57 % 93 % 1014,0 hPa 0,0 l/m² 4,0 km/h (1 Bft) NO 44 ° 0 min 0 W/m² 3,3 °C 4,3 °C 4,8 km/h (1 Bft)
15.11.2022 02:24 21,7 °C 4,2 °C 57 % 92 % 1013,9 hPa 0,0 l/m² 3,1 km/h (1 Bft) NO 44 ° 0 min 0 W/m² 3,0 °C 4,2 °C 4,8 km/h (1 Bft)
15.11.2022 02:26 21,7 °C 4,1 °C 57 % 92 % 1014,0 hPa 0,0 l/m² 4,5 km/h (1 Bft) NO 45 ° 0 min 0 W/m² 2,9 °C 4,1 °C 6,4 km/h (2 Bft)
15.11.2022 02:28 21,7 °C 4,1 °C 57 % 93 % 1013,9 hPa 0,0 l/m² 5,7 km/h (2 Bft) NO 53 ° 0 min 0 W/m² 3,1 °C 4,1 °C 6,4 km/h (2 Bft)
15.11.2022 02:30 21,7 °C 3,9 °C 57 % 93 % 1013,9 hPa 0,0 l/m² 4,7 km/h (1 Bft) NO 53 ° 0 min 0 W/m² 2,9 °C 3,9 °C 6,4 km/h (2 Bft)
15.11.2022 02:32 21,7 °C 3,8 °C 57 % 92 % 1013,9 hPa 0,0 l/m² 4,6 km/h (1 Bft) NO 53 ° 0 min 0 W/m² 2,6 °C 3,8 °C 6,4 km/h (2 Bft)
15.11.2022 02:33 21,7 °C 3,7 °C 57 % 92 % 1013,9 hPa 0,0 l/m² 5,0 km/h (1 Bft) NO 53 ° 0 min 0 W/m² 2,5 °C 3,7 °C 6,4 km/h (2 Bft)
15.11.2022 02:34 21,7 °C 3,7 °C 57 % 92 % 1013,9 hPa 0,0 l/m² 4,7 km/h (1 Bft) NO 53 ° 0 min 0 W/m² 2,5 °C 3,7 °C 6,4 km/h (2 Bft)
15.11.2022 02:36 21,7 °C 3,7 °C 57 % 93 % 1013,9 hPa 0,0 l/m² 4,7 km/h (1 Bft) NO 53 ° 0 min 0 W/m² 2,7 °C 3,7 °C 6,4 km/h (2 Bft)
15.11.2022 02:38 21,7 °C 3,7 °C 57 % 93 % 1013,8 hPa 0,0 l/m² 4,3 km/h (1 Bft) NO 53 ° 0 min 0 W/m² 2,7 °C 3,7 °C 4,8 km/h (1 Bft)
15.11.2022 02:40 21,7 °C 3,6 °C 57 % 93 % 1013,8 hPa 0,0 l/m² 4,5 km/h (1 Bft) NO 53 ° 0 min 0 W/m² 2,6 °C 3,6 °C 6,4 km/h (2 Bft)
15.11.2022 02:42 21,7 °C 3,6 °C 57 % 93 % 1013,8 hPa 0,0 l/m² 4,0 km/h (1 Bft) NO 53 ° 0 min 0 W/m² 2,6 °C 3,6 °C 6,4 km/h (2 Bft)
15.11.2022 02:43 21,7 °C 3,6 °C 57 % 93 % 1013,8 hPa 0,0 l/m² 3,9 km/h (1 Bft) NO 53 ° 0 min 0 W/m² 2,6 °C 3,6 °C 6,4 km/h (2 Bft)
15.11.2022 02:44 21,7 °C 3,6 °C 57 % 93 % 1013,7 hPa 0,0 l/m² 5,2 km/h (1 Bft) NO 53 ° 0 min 0 W/m² 2,6 °C 3,6 °C 6,4 km/h (2 Bft)
15.11.2022 02:46 21,7 °C 3,7 °C 57 % 93 % 1013,7 hPa 0,0 l/m² 5,8 km/h (2 Bft) O-NO 63 ° 0 min 0 W/m² 2,7 °C 3,7 °C 9,7 km/h (2 Bft)
15.11.2022 02:48 21,7 °C 3,8 °C 57 % 94 % 1013,7 hPa 0,0 l/m² 4,8 km/h (1 Bft) O-NO 63 ° 0 min 0 W/m² 2,9 °C 3,8 °C 8,0 km/h (2 Bft)
15.11.2022 02:50 21,7 °C 4,1 °C 57 % 94 % 1013,7 hPa 0,0 l/m² 5,2 km/h (1 Bft) O-NO 63 ° 0 min 0 W/m² 3,2 °C 4,1 °C 8,0 km/h (2 Bft)
15.11.2022 02:52 21,7 °C 4,1 °C 57 % 93 % 1013,7 hPa 0,0 l/m² 5,4 km/h (2 Bft) O-NO 65 ° 0 min 0 W/m² 3,1 °C 4,1 °C 8,0 km/h (2 Bft)
15.11.2022 02:53 21,7 °C 4,1 °C 57 % 93 % 1013,7 hPa 0,0 l/m² 5,6 km/h (2 Bft) O-NO 65 ° 0 min 0 W/m² 3,1 °C 4,1 °C 6,4 km/h (2 Bft)
15.11.2022 02:54 21,7 °C 4,1 °C 57 % 93 % 1013,8 hPa 0,0 l/m² 4,1 km/h (1 Bft) O-NO 65 ° 0 min 0 W/m² 3,1 °C 4,1 °C 6,4 km/h (2 Bft)
15.11.2022 02:56 21,7 °C 4,1 °C 57 % 93 % 1013,6 hPa 0,0 l/m² 3,2 km/h (1 Bft) O-NO 65 ° 0 min 0 W/m² 3,1 °C 4,1 °C 4,8 km/h (1 Bft)
15.11.2022 02:58 21,7 °C 4,2 °C 57 % 93 % 1013,6 hPa 0,0 l/m² 2,4 km/h (1 Bft) O-NO 65 ° 0 min 0 W/m² 3,2 °C 4,2 °C 4,8 km/h (1 Bft)
15.11.2022 03:00 21,7 °C 4,2 °C 57 % 94 % 1013,6 hPa 0,0 l/m² 2,0 km/h (1 Bft) O-NO 65 ° 0 min 0 W/m² 3,3 °C 4,2 °C 3,2 km/h (1 Bft)
15.11.2022 03:01 21,7 °C 4,2 °C 57 % 93 % 1013,6 hPa 0,0 l/m² 1,6 km/h (1 Bft) O-NO 67 ° 0 min 0 W/m² 3,2 °C 4,2 °C 1,6 km/h (1 Bft)
15.11.2022 03:12 21,7 °C 3,8 °C 57 % 93 % 1013,4 hPa 0,0 l/m² 2,6 km/h (1 Bft) O-NO 65 ° 0 min 0 W/m² 2,8 °C 3,8 °C 3,2 km/h (1 Bft)
15.11.2022 03:14 21,7 °C 3,7 °C 57 % 93 % 1013,4 hPa 0,0 l/m² 2,3 km/h (1 Bft) O-NO 65 ° 0 min 0 W/m² 2,7 °C 3,7 °C 3,2 km/h (1 Bft)
15.11.2022 03:15 21,7 °C 3,7 °C 57 % 93 % 1013,4 hPa 0,0 l/m² 3,4 km/h (1 Bft) O-NO 65 ° 0 min 0 W/m² 2,7 °C 3,7 °C 4,8 km/h (1 Bft)
15.11.2022 03:17 21,7 °C 3,8 °C 57 % 93 % 1013,4 hPa 0,0 l/m² 2,5 km/h (1 Bft) O-NO 65 ° 0 min 0 W/m² 2,8 °C 3,8 °C 4,8 km/h (1 Bft)
15.11.2022 03:19 21,7 °C 3,9 °C 57 % 94 % 1013,4 hPa 0,0 l/m² 3,7 km/h (1 Bft) O-NO 65 ° 0 min 0 W/m² 3,0 °C 3,9 °C 4,8 km/h (1 Bft)
15.11.2022 03:20 21,7 °C 4,0 °C 57 % 94 % 1013,4 hPa 0,0 l/m² 3,1 km/h (1 Bft) O-NO 65 ° 0 min 0 W/m² 3,1 °C 4,0 °C 4,8 km/h (1 Bft)
15.11.2022 03:22 21,7 °C 4,2 °C 56 % 94 % 1013,4 hPa 0,0 l/m² 3,8 km/h (1 Bft) O-NO 65 ° 0 min 0 W/m² 3,3 °C 4,2 °C 6,4 km/h (2 Bft)
15.11.2022 03:23 21,7 °C 4,3 °C 56 % 94 % 1013,4 hPa 0,0 l/m² 2,7 km/h (1 Bft) O-NO 65 ° 0 min 0 W/m² 3,4 °C 4,3 °C 4,8 km/h (1 Bft)
15.11.2022 03:25 21,7 °C 4,4 °C 56 % 94 % 1013,4 hPa 0,0 l/m² 2,6 km/h (1 Bft) O-NO 65 ° 0 min 0 W/m² 3,5 °C 4,4 °C 4,8 km/h (1 Bft)
15.11.2022 03:27 21,7 °C 4,3 °C 56 % 94 % 1013,3 hPa 0,0 l/m² 0,8 km/h (0 Bft) O-NO 65 ° 0 min 0 W/m² 3,4 °C 4,3 °C 3,2 km/h (1 Bft)
15.11.2022 03:29 21,7 °C 4,1 °C 56 % 93 % 1013,3 hPa 0,0 l/m² 2,6 km/h (1 Bft) O-NO 65 ° 0 min 0 W/m² 3,1 °C 4,1 °C 3,2 km/h (1 Bft)
15.11.2022 03:30 21,7 °C 3,9 °C 56 % 93 % 1013,3 hPa 0,0 l/m² 3,0 km/h (1 Bft) O-NO 65 ° 0 min 0 W/m² 2,9 °C 3,9 °C 4,8 km/h (1 Bft)
15.11.2022 03:32 21,7 °C 3,7 °C 56 % 93 % 1013,3 hPa 0,0 l/m² 3,8 km/h (1 Bft) O-NO 65 ° 0 min 0 W/m² 2,7 °C 3,7 °C 4,8 km/h (1 Bft)
15.11.2022 03:33 21,7 °C 3,6 °C 56 % 93 % 1013,2 hPa 0,0 l/m² 4,8 km/h (1 Bft) O-NO 65 ° 0 min 0 W/m² 2,6 °C 3,6 °C 6,4 km/h (2 Bft)
15.11.2022 03:35 21,7 °C 3,4 °C 56 % 93 % 1013,2 hPa 0,0 l/m² 5,3 km/h (1 Bft) O-NO 65 ° 0 min 0 W/m² 2,4 °C 3,4 °C 6,4 km/h (2 Bft)
15.11.2022 03:37 21,7 °C 3,3 °C 56 % 93 % 1013,1 hPa 0,0 l/m² 5,1 km/h (1 Bft) O-NO 65 ° 0 min 0 W/m² 2,3 °C 3,3 °C 6,4 km/h (2 Bft)
15.11.2022 03:39 21,7 °C 3,2 °C 56 % 93 % 1013,1 hPa 0,0 l/m² 4,2 km/h (1 Bft) O-NO 65 ° 0 min 0 W/m² 2,2 °C 3,2 °C 4,8 km/h (1 Bft)
15.11.2022 03:40 21,7 °C 3,2 °C 56 % 93 % 1013,1 hPa 0,0 l/m² 4,1 km/h (1 Bft) O-NO 65 ° 0 min 0 W/m² 2,2 °C 3,2 °C 4,8 km/h (1 Bft)
15.11.2022 03:42 21,7 °C 3,1 °C 56 % 93 % 1013,1 hPa 0,0 l/m² 4,2 km/h (1 Bft) O-NO 65 ° 0 min 0 W/m² 2,1 °C 3,1 °C 4,8 km/h (1 Bft)
15.11.2022 03:43 21,7 °C 3,1 °C 56 % 93 % 1013,1 hPa 0,0 l/m² 4,5 km/h (1 Bft) O-NO 65 ° 0 min 0 W/m² 2,1 °C 3,1 °C 6,4 km/h (2 Bft)
15.11.2022 03:45 21,7 °C 3,1 °C 56 % 93 % 1013,1 hPa 0,0 l/m² 2,3 km/h (1 Bft) O-NO 65 ° 0 min 0 W/m² 2,1 °C 3,1 °C 4,8 km/h (1 Bft)
15.11.2022 03:47 21,7 °C 3,3 °C 56 % 94 % 1013,0 hPa 0,0 l/m² 3,7 km/h (1 Bft) O-NO 62 ° 0 min 0 W/m² 2,4 °C 3,3 °C 6,4 km/h (2 Bft)
15.11.2022 03:48 21,7 °C 3,3 °C 56 % 94 % 1013,0 hPa 0,0 l/m² 3,4 km/h (1 Bft) O-NO 62 ° 0 min 0 W/m² 2,4 °C 3,3 °C 6,4 km/h (2 Bft)
15.11.2022 03:50 21,7 °C 3,4 °C 56 % 94 % 1013,0 hPa 0,0 l/m² 3,0 km/h (1 Bft) O-NO 62 ° 0 min 0 W/m² 2,5 °C 3,4 °C 4,8 km/h (1 Bft)
15.11.2022 03:51 21,7 °C 3,6 °C 56 % 94 % 1013,0 hPa 0,0 l/m² 2,3 km/h (1 Bft) O-NO 62 ° 0 min 0 W/m² 2,7 °C 3,6 °C 4,8 km/h (1 Bft)
15.11.2022 03:52 21,7 °C 3,6 °C 56 % 94 % 1013,1 hPa 0,0 l/m² 2,5 km/h (1 Bft) O-NO 62 ° 0 min 0 W/m² 2,7 °C 3,6 °C 4,8 km/h (1 Bft)
15.11.2022 03:54 21,7 °C 3,8 °C 56 % 94 % 1013,0 hPa 0,0 l/m² 0,7 km/h (0 Bft) O-NO 62 ° 0 min 0 W/m² 2,9 °C 3,8 °C 1,6 km/h (1 Bft)
15.11.2022 03:56 21,7 °C 3,9 °C 56 % 94 % 1013,0 hPa 0,0 l/m² 2,6 km/h (1 Bft) O-NO 62 ° 0 min 0 W/m² 3,0 °C 3,9 °C 4,8 km/h (1 Bft)
15.11.2022 03:58 21,7 °C 3,9 °C 56 % 94 % 1013,0 hPa 0,0 l/m² 0,7 km/h (0 Bft) O-NO 62 ° 0 min 0 W/m² 3,0 °C 3,9 °C 4,8 km/h (1 Bft)
15.11.2022 04:00 21,7 °C 3,9 °C 56 % 94 % 1013,0 hPa 0,0 l/m² 0,0 km/h (0 Bft) O-NO 62 ° 0 min 0 W/m² 3,0 °C 3,9 °C 0,0 km/h (0 Bft)
15.11.2022 04:01 21,7 °C 3,9 °C 56 % 94 % 1013,0 hPa 0,0 l/m² 0,0 km/h (0 Bft) O-NO 62 ° 0 min 0 W/m² 3,0 °C 3,9 °C 0,0 km/h (0 Bft)
15.11.2022 04:02 21,7 °C 3,9 °C 56 % 94 % 1013,0 hPa 0,0 l/m² 0,0 km/h (0 Bft) O-NO 62 ° 0 min 0 W/m² 3,0 °C 3,9 °C 0,0 km/h (0 Bft)
15.11.2022 04:04 21,7 °C 3,9 °C 56 % 94 % 1013,0 hPa 0,0 l/m² 0,0 km/h (0 Bft) O-NO 62 ° 0 min 0 W/m² 3,0 °C 3,9 °C 0,0 km/h (0 Bft)
15.11.2022 04:06 21,7 °C 3,8 °C 56 % 93 % 1012,9 hPa 0,0 l/m² 0,0 km/h (0 Bft) O-NO 62 ° 0 min 0 W/m² 2,8 °C 3,8 °C 0,0 km/h (0 Bft)
15.11.2022 04:08 21,7 °C 3,7 °C 56 % 93 % 1013,0 hPa 0,0 l/m² 1,0 km/h (0 Bft) O-NO 62 ° 0 min 0 W/m² 2,7 °C 3,7 °C 3,2 km/h (1 Bft)
15.11.2022 04:10 21,7 °C 3,7 °C 56 % 94 % 1012,9 hPa 0,0 l/m² 2,7 km/h (1 Bft) O-NO 62 ° 0 min 0 W/m² 2,8 °C 3,7 °C 3,2 km/h (1 Bft)
15.11.2022 04:11 21,7 °C 3,7 °C 56 % 94 % 1013,0 hPa 0,0 l/m² 3,2 km/h (1 Bft) O-NO 62 ° 0 min 0 W/m² 2,8 °C 3,7 °C 3,2 km/h (1 Bft)
15.11.2022 04:12 21,7 °C 3,6 °C 56 % 94 % 1013,0 hPa 0,0 l/m² 2,3 km/h (1 Bft) O-NO 62 ° 0 min 0 W/m² 2,7 °C 3,6 °C 3,2 km/h (1 Bft)
15.11.2022 04:14 21,7 °C 3,6 °C 56 % 94 % 1013,0 hPa 0,0 l/m² 3,5 km/h (1 Bft) O-NO 62 ° 0 min 0 W/m² 2,7 °C 3,6 °C 4,8 km/h (1 Bft)
15.11.2022 04:16 21,7 °C 3,6 °C 56 % 94 % 1012,9 hPa 0,0 l/m² 3,9 km/h (1 Bft) O-NO 62 ° 0 min 0 W/m² 2,7 °C 3,6 °C 4,8 km/h (1 Bft)
15.11.2022 04:18 21,7 °C 3,6 °C 56 % 94 % 1013,1 hPa 0,0 l/m² 2,9 km/h (1 Bft) O-NO 62 ° 0 min 0 W/m² 2,7 °C 3,6 °C 4,8 km/h (1 Bft)
15.11.2022 04:20 21,7 °C 3,6 °C 56 % 94 % 1013,1 hPa 0,0 l/m² 4,0 km/h (1 Bft) O-NO 62 ° 0 min 0 W/m² 2,7 °C 3,6 °C 6,4 km/h (2 Bft)
15.11.2022 04:21 21,7 °C 3,6 °C 56 % 94 % 1013,0 hPa 0,0 l/m² 4,1 km/h (1 Bft) O-NO 62 ° 0 min 0 W/m² 2,7 °C 3,6 °C 4,8 km/h (1 Bft)
15.11.2022 04:22 21,7 °C 3,6 °C 56 % 94 % 1013,0 hPa 0,0 l/m² 2,7 km/h (1 Bft) O-NO 62 ° 0 min 0 W/m² 2,7 °C 3,6 °C 3,2 km/h (1 Bft)
15.11.2022 04:24 21,7 °C 3,6 °C 56 % 94 % 1013,1 hPa 0,0 l/m² 2,8 km/h (1 Bft) O-NO 62 ° 0 min 0 W/m² 2,7 °C 3,6 °C 6,4 km/h (2 Bft)
15.11.2022 04:26 21,7 °C 3,6 °C 56 % 94 % 1013,0 hPa 0,0 l/m² 4,9 km/h (1 Bft) O-NO 62 ° 0 min 0 W/m² 2,7 °C 3,6 °C 6,4 km/h (2 Bft)
15.11.2022 04:28 21,7 °C 3,7 °C 56 % 94 % 1012,9 hPa 0,0 l/m² 3,1 km/h (1 Bft) O-NO 62 ° 0 min 0 W/m² 2,8 °C 3,7 °C 4,8 km/h (1 Bft)
15.11.2022 04:30 21,7 °C 3,6 °C 56 % 94 % 1013,0 hPa 0,0 l/m² 3,9 km/h (1 Bft) O-NO 62 ° 0 min 0 W/m² 2,7 °C 3,6 °C 6,4 km/h (2 Bft)
15.11.2022 04:31 21,7 °C 3,6 °C 56 % 94 % 1013,0 hPa 0,0 l/m² 4,1 km/h (1 Bft) O-NO 62 ° 0 min 0 W/m² 2,7 °C 3,6 °C 4,8 km/h (1 Bft)
15.11.2022 04:32 21,7 °C 3,5 °C 56 % 94 % 1013,0 hPa 0,0 l/m² 4,4 km/h (1 Bft) O-NO 62 ° 0 min 0 W/m² 2,6 °C 3,5 °C 4,8 km/h (1 Bft)
15.11.2022 04:33 21,7 °C 3,5 °C 56 % 94 % 1013,0 hPa 0,0 l/m² 4,4 km/h (1 Bft) O-NO 62 ° 0 min 0 W/m² 2,6 °C 3,5 °C 4,8 km/h (1 Bft)
15.11.2022 04:35 21,7 °C 3,4 °C 56 % 94 % 1013,0 hPa 0,0 l/m² 4,4 km/h (1 Bft) O-NO 62 ° 0 min 0 W/m² 2,5 °C 3,4 °C 6,4 km/h (2 Bft)
15.11.2022 04:36 21,7 °C 3,4 °C 56 % 94 % 1013,1 hPa 0,0 l/m² 4,9 km/h (1 Bft) O-NO 62 ° 0 min 0 W/m² 2,5 °C 3,4 °C 6,4 km/h (2 Bft)
15.11.2022 04:38 21,7 °C 3,3 °C 56 % 93 % 1013,1 hPa 0,0 l/m² 4,9 km/h (1 Bft) O-NO 62 ° 0 min 0 W/m² 2,3 °C 3,3 °C 6,4 km/h (2 Bft)
15.11.2022 04:40 21,6 °C 3,2 °C 56 % 93 % 1013,1 hPa 0,0 l/m² 4,0 km/h (1 Bft) O-NO 62 ° 0 min 0 W/m² 2,2 °C 3,2 °C 4,8 km/h (1 Bft)
15.11.2022 04:41 21,7 °C 3,2 °C 56 % 93 % 1013,0 hPa 0,0 l/m² 3,5 km/h (1 Bft) O-NO 62 ° 0 min 0 W/m² 2,2 °C 3,2 °C 4,8 km/h (1 Bft)
15.11.2022 04:42 21,7 °C 3,2 °C 56 % 94 % 1013,0 hPa 0,0 l/m² 4,2 km/h (1 Bft) O-NO 62 ° 0 min 0 W/m² 2,3 °C 3,2 °C 4,8 km/h (1 Bft)
15.11.2022 04:43 21,7 °C 3,2 °C 56 % 94 % 1013,0 hPa 0,0 l/m² 4,1 km/h (1 Bft) O-NO 62 ° 0 min 0 W/m² 2,3 °C 3,2 °C 4,8 km/h (1 Bft)
15.11.2022 04:45 21,7 °C 3,2 °C 56 % 94 % 1013,0 hPa 0,0 l/m² 4,7 km/h (1 Bft) O-NO 62 ° 0 min 0 W/m² 2,3 °C 3,2 °C 4,8 km/h (1 Bft)
15.11.2022 04:47 21,7 °C 3,2 °C 56 % 94 % 1013,0 hPa 0,0 l/m² 5,1 km/h (1 Bft) O-NO 62 ° 0 min 0 W/m² 2,3 °C 3,2 °C 6,4 km/h (2 Bft)
15.11.2022 04:49 21,7 °C 3,2 °C 56 % 94 % 1012,9 hPa 0,0 l/m² 5,2 km/h (1 Bft) O-NO 62 ° 0 min 0 W/m² 2,3 °C 3,2 °C 6,4 km/h (2 Bft)
15.11.2022 04:51 21,7 °C 3,2 °C 56 % 94 % 1013,0 hPa 0,0 l/m² 4,4 km/h (1 Bft) O-NO 62 ° 0 min 0 W/m² 2,3 °C 3,2 °C 6,4 km/h (2 Bft)
15.11.2022 04:52 21,7 °C 3,3 °C 56 % 94 % 1012,9 hPa 0,0 l/m² 3,9 km/h (1 Bft) O-NO 62 ° 0 min 0 W/m² 2,4 °C 3,3 °C 4,8 km/h (1 Bft)
15.11.2022 04:53 21,7 °C 3,3 °C 56 % 94 % 1012,9 hPa 0,0 l/m² 3,5 km/h (1 Bft) O-NO 62 ° 0 min 0 W/m² 2,4 °C 3,3 °C 6,4 km/h (2 Bft)
15.11.2022 04:55 21,7 °C 3,4 °C 56 % 94 % 1012,9 hPa 0,0 l/m² 2,5 km/h (1 Bft) O-NO 62 ° 0 min 0 W/m² 2,5 °C 3,4 °C 4,8 km/h (1 Bft)
15.11.2022 04:57 21,7 °C 3,4 °C 56 % 94 % 1012,9 hPa 0,0 l/m² 3,7 km/h (1 Bft) O-NO 62 ° 0 min 0 W/m² 2,5 °C 3,4 °C 4,8 km/h (1 Bft)
15.11.2022 04:59 21,7 °C 3,4 °C 56 % 94 % 1012,9 hPa 0,0 l/m² 3,2 km/h (1 Bft) O-NO 62 ° 0 min 0 W/m² 2,5 °C 3,4 °C 4,8 km/h (1 Bft)
15.11.2022 05:01 21,7 °C 3,4 °C 56 % 94 % 1012,8 hPa 0,0 l/m² 3,0 km/h (1 Bft) O-NO 62 ° 0 min 0 W/m² 2,5 °C 3,4 °C 4,8 km/h (1 Bft)
15.11.2022 05:02 21,7 °C 3,4 °C 56 % 94 % 1012,9 hPa 0,0 l/m² 2,6 km/h (1 Bft) O-NO 62 ° 0 min 0 W/m² 2,5 °C 3,4 °C 3,2 km/h (1 Bft)
15.11.2022 05:03 21,7 °C 3,4 °C 56 % 94 % 1012,9 hPa 0,0 l/m² 3,0 km/h (1 Bft) O-NO 62 ° 0 min 0 W/m² 2,5 °C 3,4 °C 4,8 km/h (1 Bft)
15.11.2022 05:05 21,7 °C 3,4 °C 56 % 94 % 1012,9 hPa 0,0 l/m² 2,9 km/h (1 Bft) O-NO 62 ° 0 min 0 W/m² 2,5 °C 3,4 °C 4,8 km/h (1 Bft)
15.11.2022 05:06 21,7 °C 3,4 °C 56 % 94 % 1012,9 hPa 0,0 l/m² 1,0 km/h (0 Bft) O-NO 62 ° 0 min 0 W/m² 2,5 °C 3,4 °C 3,2 km/h (1 Bft)
15.11.2022 05:08 21,7 °C 3,4 °C 56 % 94 % 1012,9 hPa 0,0 l/m² 2,5 km/h (1 Bft) O-NO 62 ° 0 min 0 W/m² 2,5 °C 3,4 °C 6,4 km/h (2 Bft)
15.11.2022 05:10 21,7 °C 3,4 °C 56 % 94 % 1012,9 hPa 0,0 l/m² 4,6 km/h (1 Bft) O-NO 62 ° 0 min 0 W/m² 2,5 °C 3,4 °C 6,4 km/h (2 Bft)
15.11.2022 05:11 21,7 °C 3,5 °C 56 % 94 % 1012,9 hPa 0,0 l/m² 5,5 km/h (2 Bft) O-NO 62 ° 0 min 0 W/m² 2,6 °C 3,5 °C 6,4 km/h (2 Bft)
15.11.2022 05:12 21,7 °C 3,6 °C 56 % 94 % 1012,9 hPa 0,0 l/m² 5,4 km/h (2 Bft) O-NO 62 ° 0 min 0 W/m² 2,7 °C 3,6 °C 8,0 km/h (2 Bft)
15.11.2022 05:13 21,7 °C 3,7 °C 56 % 94 % 1013,0 hPa 0,0 l/m² 3,4 km/h (1 Bft) O-NO 62 ° 0 min 0 W/m² 2,8 °C 3,7 °C 6,4 km/h (2 Bft)
15.11.2022 05:15 21,7 °C 3,8 °C 56 % 95 % 1012,9 hPa 0,0 l/m² 4,7 km/h (1 Bft) O-NO 62 ° 0 min 0 W/m² 3,1 °C 3,8 °C 6,4 km/h (2 Bft)
15.11.2022 05:17 21,7 °C 3,8 °C 57 % 94 % 1012,9 hPa 0,0 l/m² 3,6 km/h (1 Bft) O-NO 62 ° 0 min 0 W/m² 2,9 °C 3,8 °C 4,8 km/h (1 Bft)
15.11.2022 05:19 21,7 °C 3,8 °C 57 % 94 % 1012,9 hPa 0,0 l/m² 3,2 km/h (1 Bft) O-NO 62 ° 0 min 0 W/m² 2,9 °C 3,8 °C 4,8 km/h (1 Bft)
15.11.2022 05:21 21,7 °C 3,7 °C 57 % 94 % 1013,0 hPa 0,0 l/m² 3,6 km/h (1 Bft) O-NO 62 ° 0 min 0 W/m² 2,8 °C 3,7 °C 4,8 km/h (1 Bft)
15.11.2022 05:22 21,7 °C 3,6 °C 57 % 94 % 1013,0 hPa 0,0 l/m² 4,9 km/h (1 Bft) O-NO 62 ° 0 min 0 W/m² 2,7 °C 3,6 °C 6,4 km/h (2 Bft)
15.11.2022 05:23 21,7 °C 3,6 °C 57 % 94 % 1013,0 hPa 0,0 l/m² 4,8 km/h (1 Bft) O-NO 62 ° 0 min 0 W/m² 2,7 °C 3,6 °C 6,4 km/h (2 Bft)
15.11.2022 05:24 21,7 °C 3,6 °C 57 % 94 % 1013,0 hPa 0,0 l/m² 4,2 km/h (1 Bft) O-NO 62 ° 0 min 0 W/m² 2,7 °C 3,6 °C 4,8 km/h (1 Bft)
15.11.2022 05:25 21,7 °C 3,6 °C 57 % 94 % 1012,9 hPa 0,0 l/m² 4,8 km/h (1 Bft) O-NO 62 ° 0 min 0 W/m² 2,7 °C 3,6 °C 6,4 km/h (2 Bft)
15.11.2022 05:27 21,7 °C 3,6 °C 57 % 94 % 1013,0 hPa 0,0 l/m² 4,0 km/h (1 Bft) O-NO 62 ° 0 min 0 W/m² 2,7 °C 3,6 °C 4,8 km/h (1 Bft)
15.11.2022 05:29 21,7 °C 3,5 °C 57 % 94 % 1012,9 hPa 0,0 l/m² 3,7 km/h (1 Bft) O-NO 62 ° 0 min 0 W/m² 2,6 °C 3,5 °C 4,8 km/h (1 Bft)
15.11.2022 05:31 21,7 °C 3,5 °C 57 % 94 % 1012,9 hPa 0,0 l/m² 4,6 km/h (1 Bft) O-NO 62 ° 0 min 0 W/m² 2,6 °C 3,5 °C 6,4 km/h (2 Bft)
15.11.2022 05:32 21,7 °C 3,5 °C 57 % 94 % 1013,0 hPa 0,0 l/m² 4,5 km/h (1 Bft) O-NO 62 ° 0 min 0 W/m² 2,6 °C 3,5 °C 6,4 km/h (2 Bft)
15.11.2022 05:33 21,7 °C 3,5 °C 57 % 94 % 1013,0 hPa 0,0 l/m² 4,0 km/h (1 Bft) O-NO 62 ° 0 min 0 W/m² 2,6 °C 3,5 °C 6,4 km/h (2 Bft)
15.11.2022 05:34 21,7 °C 3,6 °C 57 % 94 % 1013,0 hPa 0,0 l/m² 4,5 km/h (1 Bft) O-NO 62 ° 0 min 0 W/m² 2,7 °C 3,6 °C 6,4 km/h (2 Bft)
15.11.2022 05:35 21,7 °C 3,6 °C 57 % 94 % 1012,9 hPa 0,0 l/m² 5,0 km/h (1 Bft) O-NO 62 ° 0 min 0 W/m² 2,7 °C 3,6 °C 6,4 km/h (2 Bft)
15.11.2022 05:37 21,7 °C 3,6 °C 57 % 94 % 1013,0 hPa 0,0 l/m² 4,9 km/h (1 Bft) O-NO 62 ° 0 min 0 W/m² 2,7 °C 3,6 °C 6,4 km/h (2 Bft)
15.11.2022 05:39 21,7 °C 3,6 °C 57 % 94 % 1012,9 hPa 0,0 l/m² 4,6 km/h (1 Bft) O-NO 62 ° 0 min 0 W/m² 2,7 °C 3,6 °C 6,4 km/h (2 Bft)
15.11.2022 05:41 21,7 °C 3,6 °C 57 % 94 % 1013,0 hPa 0,0 l/m² 3,9 km/h (1 Bft) O-NO 62 ° 0 min 0 W/m² 2,7 °C 3,6 °C 6,4 km/h (2 Bft)
15.11.2022 05:42 21,7 °C 3,5 °C 57 % 94 % 1012,9 hPa 0,0 l/m² 2,4 km/h (1 Bft) O-NO 62 ° 0 min 0 W/m² 2,6 °C 3,5 °C 3,2 km/h (1 Bft)
15.11.2022 05:43 21,7 °C 3,5 °C 57 % 94 % 1012,9 hPa 0,0 l/m² 2,5 km/h (1 Bft) O-NO 62 ° 0 min 0 W/m² 2,6 °C 3,5 °C 3,2 km/h (1 Bft)
15.11.2022 05:44 21,7 °C 3,4 °C 57 % 94 % 1012,9 hPa 0,0 l/m² 2,1 km/h (1 Bft) O-NO 62 ° 0 min 0 W/m² 2,5 °C 3,4 °C 3,2 km/h (1 Bft)
15.11.2022 05:45 21,7 °C 3,4 °C 57 % 94 % 1012,9 hPa 0,0 l/m² 2,6 km/h (1 Bft) O-NO 62 ° 0 min 0 W/m² 2,5 °C 3,4 °C 3,2 km/h (1 Bft)
15.11.2022 05:47 21,7 °C 3,4 °C 56 % 94 % 1012,8 hPa 0,0 l/m² 2,6 km/h (1 Bft) O-NO 62 ° 0 min 0 W/m² 2,5 °C 3,4 °C 4,8 km/h (1 Bft)
15.11.2022 05:49 21,7 °C 3,3 °C 56 % 94 % 1012,8 hPa 0,0 l/m² 2,8 km/h (1 Bft) O-NO 62 ° 0 min 0 W/m² 2,4 °C 3,3 °C 4,8 km/h (1 Bft)
15.11.2022 05:51 21,7 °C 3,2 °C 56 % 94 % 1012,8 hPa 0,0 l/m² 2,4 km/h (1 Bft) O-NO 62 ° 0 min 0 W/m² 2,3 °C 3,2 °C 4,8 km/h (1 Bft)
15.11.2022 05:52 21,7 °C 3,1 °C 56 % 94 % 1012,8 hPa 0,0 l/m² 2,1 km/h (1 Bft) O-NO 62 ° 0 min 0 W/m² 2,2 °C 3,1 °C 4,8 km/h (1 Bft)
15.11.2022 05:53 21,7 °C 3,1 °C 56 % 94 % 1012,8 hPa 0,0 l/m² 1,0 km/h (0 Bft) O-NO 62 ° 0 min 0 W/m² 2,2 °C 3,1 °C 3,2 km/h (1 Bft)
15.11.2022 05:56 21,6 °C 3,1 °C 56 % 94 % 1012,8 hPa 0,0 l/m² 0,0 km/h (0 Bft) O-NO 62 ° 0 min 0 W/m² 2,2 °C 3,1 °C 0,0 km/h (0 Bft)
15.11.2022 05:58 21,7 °C 3,1 °C 56 % 94 % 1012,8 hPa 0,0 l/m² 1,2 km/h (1 Bft) O-NO 62 ° 0 min 0 W/m² 2,2 °C 3,1 °C 3,2 km/h (1 Bft)
15.11.2022 06:00 21,6 °C 3,1 °C 56 % 94 % 1012,9 hPa 0,0 l/m² 3,2 km/h (1 Bft) O-NO 62 ° 0 min 0 W/m² 2,2 °C 3,1 °C 4,8 km/h (1 Bft)
15.11.2022 06:01 21,6 °C 3,1 °C 56 % 94 % 1012,8 hPa 0,0 l/m² 2,6 km/h (1 Bft) O-NO 62 ° 0 min 0 W/m² 2,2 °C 3,1 °C 4,8 km/h (1 Bft)
15.11.2022 06:02 21,6 °C 3,1 °C 56 % 94 % 1012,8 hPa 0,0 l/m² 2,4 km/h (1 Bft) O-NO 62 ° 0 min 0 W/m² 2,2 °C 3,1 °C 3,2 km/h (1 Bft)
15.11.2022 06:03 21,6 °C 3,1 °C 56 % 94 % 1012,8 hPa 0,0 l/m² 0,8 km/h (0 Bft) O-NO 62 ° 0 min 0 W/m² 2,2 °C 3,1 °C 1,6 km/h (1 Bft)
15.11.2022 06:05 21,6 °C 3,1 °C 56 % 94 % 1012,8 hPa 0,0 l/m² 0,4 km/h (0 Bft) O-NO 62 ° 0 min 0 W/m² 2,2 °C 3,1 °C 3,2 km/h (1 Bft)
15.11.2022 06:07 21,6 °C 3,1 °C 56 % 94 % 1012,8 hPa 0,0 l/m² 2,3 km/h (1 Bft) O-NO 62 ° 0 min 0 W/m² 2,2 °C 3,1 °C 3,2 km/h (1 Bft)
15.11.2022 06:09 21,7 °C 3,0 °C 56 % 94 % 1012,9 hPa 0,0 l/m² 0,1 km/h (0 Bft) O-NO 62 ° 0 min 0 W/m² 2,1 °C 3,0 °C 1,6 km/h (1 Bft)
15.11.2022 06:11 21,6 °C 2,8 °C 57 % 94 % 1012,8 hPa 0,0 l/m² 0,0 km/h (0 Bft) O-NO 62 ° 0 min 0 W/m² 1,9 °C 2,8 °C 1,6 km/h (1 Bft)
15.11.2022 06:12 21,7 °C 2,7 °C 57 % 94 % 1012,8 hPa 0,0 l/m² 0,2 km/h (0 Bft) O-NO 62 ° 0 min 0 W/m² 1,8 °C 2,7 °C 1,6 km/h (1 Bft)
15.11.2022 06:13 21,6 °C 2,6 °C 57 % 94 % 1012,8 hPa 0,0 l/m² 0,0 km/h (0 Bft) O-NO 62 ° 0 min 0 W/m² 1,7 °C 2,6 °C 0,0 km/h (0 Bft)
15.11.2022 06:15 21,6 °C 2,6 °C 57 % 94 % 1012,8 hPa 0,0 l/m² 0,4 km/h (0 Bft) O-NO 62 ° 0 min 0 W/m² 1,7 °C 2,6 °C 3,2 km/h (1 Bft)
15.11.2022 06:17 21,7 °C 2,5 °C 57 % 94 % 1012,8 hPa 0,0 l/m² 2,2 km/h (1 Bft) O-NO 62 ° 0 min 0 W/m² 1,6 °C 2,5 °C 4,8 km/h (1 Bft)
15.11.2022 06:19 21,7 °C 2,6 °C 57 % 94 % 1012,8 hPa 0,0 l/m² 2,6 km/h (1 Bft) O-NO 62 ° 0 min 0 W/m² 1,7 °C 2,6 °C 4,8 km/h (1 Bft)
15.11.2022 06:21 21,7 °C 2,7 °C 57 % 95 % 1012,8 hPa 0,0 l/m² 1,7 km/h (1 Bft) O-NO 62 ° 0 min 0 W/m² 2,0 °C 2,7 °C 3,2 km/h (1 Bft)
15.11.2022 06:22 21,7 °C 2,7 °C 57 % 95 % 1012,8 hPa 0,0 l/m² 2,2 km/h (1 Bft) O-NO 62 ° 0 min 0 W/m² 2,0 °C 2,7 °C 3,2 km/h (1 Bft)
15.11.2022 06:23 21,7 °C 2,7 °C 57 % 94 % 1012,8 hPa 0,0 l/m² 1,6 km/h (1 Bft) O-NO 62 ° 0 min 0 W/m² 1,8 °C 2,7 °C 3,2 km/h (1 Bft)
15.11.2022 06:25 21,6 °C 2,6 °C 57 % 94 % 1012,8 hPa 0,0 l/m² 1,9 km/h (1 Bft) O-NO 62 ° 0 min 0 W/m² 1,7 °C 2,6 °C 3,2 km/h (1 Bft)
15.11.2022 06:27 21,7 °C 2,6 °C 57 % 94 % 1012,8 hPa 0,0 l/m² 1,7 km/h (1 Bft) O-NO 62 ° 0 min 0 W/m² 1,7 °C 2,6 °C 3,2 km/h (1 Bft)
15.11.2022 06:29 21,7 °C 2,5 °C 57 % 94 % 1012,8 hPa 0,0 l/m² 0,0 km/h (0 Bft) O-NO 62 ° 0 min 0 W/m² 1,6 °C 2,5 °C 0,0 km/h (0 Bft)
15.11.2022 06:31 21,7 °C 2,5 °C 57 % 94 % 1012,7 hPa 0,0 l/m² 0,0 km/h (0 Bft) O-NO 62 ° 0 min 0 W/m² 1,6 °C 2,5 °C 0,0 km/h (0 Bft)
15.11.2022 06:32 21,7 °C 2,4 °C 57 % 94 % 1012,7 hPa 0,0 l/m² 0,0 km/h (0 Bft) O-NO 62 ° 0 min 0 W/m² 1,5 °C 2,4 °C 0,0 km/h (0 Bft)
15.11.2022 06:33 21,7 °C 2,4 °C 57 % 94 % 1012,8 hPa 0,0 l/m² 0,0 km/h (0 Bft) O-NO 62 ° 0 min 0 W/m² 1,5 °C 2,4 °C 0,0 km/h (0 Bft)
15.11.2022 06:35 21,7 °C 2,4 °C 57 % 94 % 1012,7 hPa 0,0 l/m² 0,0 km/h (0 Bft) O-NO 62 ° 0 min 0 W/m² 1,5 °C 2,4 °C 0,0 km/h (0 Bft)
15.11.2022 06:37 21,7 °C 2,3 °C 57 % 94 % 1012,7 hPa 0,0 l/m² 0,0 km/h (0 Bft) O-NO 62 ° 0 min 0 W/m² 1,4 °C 2,3 °C 0,0 km/h (0 Bft)
15.11.2022 06:39 21,7 °C 2,3 °C 57 % 94 % 1012,7 hPa 0,0 l/m² 0,5 km/h (0 Bft) O-NO 62 ° 0 min 0 W/m² 1,4 °C 2,3 °C 1,6 km/h (1 Bft)
15.11.2022 06:41 21,7 °C 2,3 °C 57 % 94 % 1012,7 hPa 0,0 l/m² 0,4 km/h (0 Bft) O-NO 62 ° 0 min 0 W/m² 1,4 °C 2,3 °C 3,2 km/h (1 Bft)
15.11.2022 06:42 21,7 °C 2,3 °C 57 % 94 % 1012,7 hPa 0,0 l/m² 2,4 km/h (1 Bft) O-NO 62 ° 0 min 0 W/m² 1,4 °C 2,3 °C 3,2 km/h (1 Bft)
15.11.2022 06:43 21,7 °C 2,3 °C 57 % 94 % 1012,7 hPa 0,0 l/m² 2,9 km/h (1 Bft) O-NO 62 ° 0 min 0 W/m² 1,4 °C 2,3 °C 3,2 km/h (1 Bft)
15.11.2022 06:45 21,6 °C 2,6 °C 57 % 95 % 1012,8 hPa 0,0 l/m² 2,8 km/h (1 Bft) O-NO 62 ° 0 min 0 W/m² 1,9 °C 2,6 °C 3,2 km/h (1 Bft)
15.11.2022 06:46 21,7 °C 2,6 °C 57 % 95 % 1012,7 hPa 0,0 l/m² 3,2 km/h (1 Bft) O-NO 62 ° 0 min 0 W/m² 1,9 °C 2,6 °C 3,2 km/h (1 Bft)
15.11.2022 06:47 21,7 °C 2,7 °C 57 % 95 % 1012,7 hPa 0,0 l/m² 2,5 km/h (1 Bft) O-NO 62 ° 0 min 0 W/m² 2,0 °C 2,7 °C 4,8 km/h (1 Bft)
15.11.2022 06:49 21,7 °C 2,7 °C 57 % 95 % 1012,7 hPa 0,0 l/m² 3,6 km/h (1 Bft) O-NO 62 ° 0 min 0 W/m² 2,0 °C 2,7 °C 4,8 km/h (1 Bft)
15.11.2022 06:51 21,7 °C 2,8 °C 57 % 95 % 1012,7 hPa 0,0 l/m² 3,2 km/h (1 Bft) O-NO 62 ° 0 min 0 W/m² 2,1 °C 2,8 °C 4,8 km/h (1 Bft)
15.11.2022 06:52 21,7 °C 2,8 °C 56 % 95 % 1012,7 hPa 0,0 l/m² 2,7 km/h (1 Bft) O-NO 62 ° 0 min 0 W/m² 2,1 °C 2,8 °C 4,8 km/h (1 Bft)
15.11.2022 06:53 21,7 °C 2,8 °C 56 % 95 % 1012,7 hPa 0,0 l/m² 1,3 km/h (1 Bft) O-NO 62 ° 0 min 0 W/m² 2,1 °C 2,8 °C 3,2 km/h (1 Bft)
15.11.2022 06:56 21,7 °C 2,9 °C 56 % 95 % 1012,7 hPa 0,0 l/m² 0,0 km/h (0 Bft) O-NO 62 ° 0 min 0 W/m² 2,2 °C 2,9 °C 1,6 km/h (1 Bft)
15.11.2022 06:58 21,7 °C 2,9 °C 56 % 95 % 1012,6 hPa 0,0 l/m² 0,0 km/h (0 Bft) O-NO 62 ° 0 min 0 W/m² 2,2 °C 2,9 °C 0,0 km/h (0 Bft)
15.11.2022 07:00 21,7 °C 2,8 °C 56 % 95 % 1012,6 hPa 0,0 l/m² 0,0 km/h (0 Bft) O-NO 62 ° 0 min 0 W/m² 2,1 °C 2,8 °C 0,0 km/h (0 Bft)
15.11.2022 07:01 21,7 °C 2,6 °C 56 % 94 % 1012,7 hPa 0,0 l/m² 0,0 km/h (0 Bft) O-NO 62 ° 0 min 0 W/m² 1,7 °C 2,6 °C 0,0 km/h (0 Bft)
15.11.2022 07:02 21,7 °C 2,4 °C 56 % 94 % 1012,6 hPa 0,0 l/m² 0,0 km/h (0 Bft) O-NO 62 ° 0 min 0 W/m² 1,5 °C 2,4 °C 0,0 km/h (0 Bft)
15.11.2022 07:03 21,7 °C 2,3 °C 56 % 94 % 1012,5 hPa 0,0 l/m² 0,0 km/h (0 Bft) O-NO 62 ° 0 min 0 W/m² 1,4 °C 2,3 °C 0,0 km/h (0 Bft)
15.11.2022 07:06 21,7 °C 1,9 °C 56 % 94 % 1012,5 hPa 0,0 l/m² 0,0 km/h (0 Bft) O-NO 62 ° 0 min 0 W/m² 1,0 °C 1,9 °C 0,0 km/h (0 Bft)
15.11.2022 07:08 21,7 °C 1,9 °C 56 % 94 % 1012,7 hPa 0,0 l/m² 0,0 km/h (0 Bft) O-NO 62 ° 0 min 0 W/m² 1,0 °C 1,9 °C 0,0 km/h (0 Bft)
15.11.2022 07:10 21,7 °C 1,8 °C 55 % 94 % 1012,6 hPa 0,0 l/m² 0,0 km/h (0 Bft) O-NO 62 ° 0 min 0 W/m² 0,9 °C 1,8 °C 0,0 km/h (0 Bft)
15.11.2022 07:11 21,7 °C 1,8 °C 55 % 94 % 1012,6 hPa 0,0 l/m² 0,0 km/h (0 Bft) O-NO 62 ° 0 min 0 W/m² 0,9 °C 1,8 °C 0,0 km/h (0 Bft)
15.11.2022 07:12 21,7 °C 1,8 °C 55 % 94 % 1012,6 hPa 0,0 l/m² 0,0 km/h (0 Bft) O-NO 62 ° 0 min 0 W/m² 0,9 °C 1,8 °C 0,0 km/h (0 Bft)
15.11.2022 07:13 21,7 °C 1,8 °C 55 % 94 % 1012,6 hPa 0,0 l/m² 0,0 km/h (0 Bft) O-NO 62 ° 0 min 0 W/m² 0,9 °C 1,8 °C 0,0 km/h (0 Bft)
15.11.2022 07:15 21,6 °C 1,8 °C 55 % 95 % 1012,6 hPa 0,0 l/m² 0,0 km/h (0 Bft) O-NO 62 ° 0 min 0 W/m² 1,1 °C 1,8 °C 0,0 km/h (0 Bft)
15.11.2022 07:16 21,7 °C 1,8 °C 55 % 95 % 1012,6 hPa 0,0 l/m² 0,0 km/h (0 Bft) O-NO 62 ° 0 min 0 W/m² 1,1 °C 1,8 °C 0,0 km/h (0 Bft)
15.11.2022 07:18 21,7 °C 1,8 °C 54 % 94 % 1012,6 hPa 0,0 l/m² 0,0 km/h (0 Bft) O-NO 62 ° 0 min 0 W/m² 0,9 °C 1,8 °C 0,0 km/h (0 Bft)
15.11.2022 07:20 21,6 °C 1,8 °C 55 % 95 % 1012,6 hPa 0,0 l/m² 0,0 km/h (0 Bft) O-NO 62 ° 0 min 0 W/m² 1,1 °C 1,8 °C 0,0 km/h (0 Bft)
15.11.2022 07:21 21,6 °C 1,8 °C 55 % 94 % 1012,6 hPa 0,0 l/m² 0,0 km/h (0 Bft) O-NO 62 ° 0 min 0 W/m² 0,9 °C 1,8 °C 0,0 km/h (0 Bft)
15.11.2022 07:22 21,7 °C 1,8 °C 55 % 94 % 1012,7 hPa 0,0 l/m² 0,0 km/h (0 Bft) O-NO 62 ° 0 min 0 W/m² 0,9 °C 1,8 °C 0,0 km/h (0 Bft)
15.11.2022 07:23 21,7 °C 1,8 °C 55 % 94 % 1012,7 hPa 0,0 l/m² 0,0 km/h (0 Bft) O-NO 62 ° 0 min 0 W/m² 0,9 °C 1,8 °C 0,0 km/h (0 Bft)
15.11.2022 07:26 21,6 °C 1,8 °C 55 % 94 % 1012,7 hPa 0,0 l/m² 0,0 km/h (0 Bft) O-NO 62 ° 0 min 0 W/m² 0,9 °C 1,8 °C 0,0 km/h (0 Bft)
15.11.2022 07:28 21,6 °C 1,7 °C 54 % 94 % 1012,7 hPa 0,0 l/m² 0,0 km/h (0 Bft) O-NO 62 ° 0 min 0 W/m² 0,8 °C 1,7 °C 0,0 km/h (0 Bft)
15.11.2022 07:30 21,6 °C 1,7 °C 54 % 94 % 1012,6 hPa 0,0 l/m² 0,0 km/h (0 Bft) O-NO 62 ° 0 min 5 W/m² 0,8 °C 1,7 °C 0,0 km/h (0 Bft)
15.11.2022 07:31 21,6 °C 1,7 °C 55 % 94 % 1012,7 hPa 0,0 l/m² 0,0 km/h (0 Bft) O-NO 62 ° 0 min 5 W/m² 0,8 °C 1,7 °C 0,0 km/h (0 Bft)
15.11.2022 07:32 21,6 °C 1,7 °C 55 % 94 % 1012,8 hPa 0,0 l/m² 0,0 km/h (0 Bft) O-NO 62 ° 0 min 5 W/m² 0,8 °C 1,7 °C 0,0 km/h (0 Bft)
15.11.2022 07:33 21,6 °C 1,7 °C 55 % 95 % 1012,8 hPa 0,0 l/m² 0,0 km/h (0 Bft) O-NO 62 ° 0 min 5 W/m² 1,0 °C 1,7 °C 0,0 km/h (0 Bft)
15.11.2022 07:36 21,6 °C 1,7 °C 55 % 95 % 1012,8 hPa 0,0 l/m² 0,0 km/h (0 Bft) O-NO 62 ° 0 min 7 W/m² 1,0 °C 1,7 °C 0,0 km/h (0 Bft)
15.11.2022 07:38 21,6 °C 1,7 °C 54 % 95 % 1012,8 hPa 0,0 l/m² 0,0 km/h (0 Bft) O-NO 62 ° 0 min 7 W/m² 1,0 °C 1,7 °C 0,0 km/h (0 Bft)
15.11.2022 07:40 21,6 °C 1,7 °C 55 % 95 % 1012,7 hPa 0,0 l/m² 0,0 km/h (0 Bft) O-NO 62 ° 0 min 9 W/m² 1,0 °C 1,7 °C 0,0 km/h (0 Bft)
15.11.2022 07:41 21,6 °C 1,6 °C 55 % 95 % 1012,8 hPa 0,0 l/m² 0,0 km/h (0 Bft) O-NO 62 ° 0 min 9 W/m² 0,9 °C 1,6 °C 0,0 km/h (0 Bft)
15.11.2022 07:42 21,6 °C 1,6 °C 55 % 95 % 1012,8 hPa 0,0 l/m² 0,0 km/h (0 Bft) O-NO 62 ° 0 min 9 W/m² 0,9 °C 1,6 °C 0,0 km/h (0 Bft)
15.11.2022 07:43 21,6 °C 1,5 °C 55 % 94 % 1012,8 hPa 0,0 l/m² 0,0 km/h (0 Bft) O-NO 62 ° 0 min 11 W/m² 0,6 °C 1,5 °C 0,0 km/h (0 Bft)
15.11.2022 07:46 21,6 °C 1,5 °C 54 % 94 % 1012,8 hPa 0,0 l/m² 0,0 km/h (0 Bft) O-NO 62 ° 0 min 11 W/m² 0,6 °C 1,5 °C 0,0 km/h (0 Bft)
15.11.2022 07:48 21,6 °C 1,5 °C 55 % 95 % 1012,8 hPa 0,0 l/m² 0,0 km/h (0 Bft) O-NO 62 ° 0 min 12 W/m² 0,8 °C 1,5 °C 0,0 km/h (0 Bft)
15.11.2022 07:50 21,6 °C 1,4 °C 55 % 95 % 1012,8 hPa 0,0 l/m² 0,0 km/h (0 Bft) O-NO 62 ° 0 min 12 W/m² 0,7 °C 1,4 °C 0,0 km/h (0 Bft)
15.11.2022 07:51 21,6 °C 1,4 °C 55 % 95 % 1012,8 hPa 0,0 l/m² 0,0 km/h (0 Bft) O-NO 62 ° 0 min 14 W/m² 0,7 °C 1,4 °C 0,0 km/h (0 Bft)
15.11.2022 07:52 21,6 °C 1,4 °C 54 % 95 % 1012,9 hPa 0,0 l/m² 0,0 km/h (0 Bft) O-NO 62 ° 0 min 14 W/m² 0,7 °C 1,4 °C 0,0 km/h (0 Bft)
15.11.2022 07:53 21,6 °C 1,6 °C 54 % 95 % 1012,9 hPa 0,0 l/m² 0,0 km/h (0 Bft) O-NO 62 ° 0 min 14 W/m² 0,9 °C 1,6 °C 0,0 km/h (0 Bft)
15.11.2022 07:55 21,6 °C 1,6 °C 55 % 95 % 1012,9 hPa 0,0 l/m² 0,0 km/h (0 Bft) O-NO 62 ° 0 min 16 W/m² 0,9 °C 1,6 °C 0,0 km/h (0 Bft)
15.11.2022 07:56 21,6 °C 1,6 °C 54 % 95 % 1012,9 hPa 0,0 l/m² 0,0 km/h (0 Bft) O-NO 62 ° 0 min 18 W/m² 0,9 °C 1,6 °C 0,0 km/h (0 Bft)
15.11.2022 07:58 21,6 °C 1,7 °C 54 % 95 % 1012,8 hPa 0,0 l/m² 0,8 km/h (0 Bft) O-NO 62 ° 0 min 18 W/m² 1,0 °C 1,7 °C 1,6 km/h (1 Bft)
15.11.2022 08:00 21,7 °C 1,8 °C 54 % 95 % 1012,9 hPa 0,0 l/m² 2,7 km/h (1 Bft) O-NO 62 ° 0 min 19 W/m² 1,1 °C 1,8 °C 4,8 km/h (1 Bft)
15.11.2022 08:01 21,6 °C 1,9 °C 54 % 95 % 1012,9 hPa 0,0 l/m² 2,8 km/h (1 Bft) O-NO 62 ° 0 min 21 W/m² 1,2 °C 1,9 °C 4,8 km/h (1 Bft)
15.11.2022 08:02 21,6 °C 2,0 °C 55 % 95 % 1013,0 hPa 0,0 l/m² 2,5 km/h (1 Bft) O-NO 62 ° 0 min 21 W/m² 1,3 °C 2,0 °C 3,2 km/h (1 Bft)
15.11.2022 08:03 21,6 °C 2,2 °C 54 % 95 % 1012,9 hPa 0,0 l/m² 2,0 km/h (1 Bft) O-NO 62 ° 0 min 23 W/m² 1,5 °C 2,2 °C 3,2 km/h (1 Bft)
15.11.2022 08:06 21,6 °C 2,1 °C 54 % 95 % 1013,0 hPa 0,0 l/m² 1,1 km/h (1 Bft) O-NO 62 ° 0 min 26 W/m² 1,4 °C 2,1 °C 3,2 km/h (1 Bft)
15.11.2022 08:08 21,6 °C 2,3 °C 54 % 95 % 1012,9 hPa 0,0 l/m² 0,0 km/h (0 Bft) O-NO 62 ° 0 min 28 W/m² 1,6 °C 2,3 °C 0,0 km/h (0 Bft)
15.11.2022 08:10 21,6 °C 2,5 °C 54 % 95 % 1012,9 hPa 0,0 l/m² 0,0 km/h (0 Bft) O-NO 62 ° 0 min 30 W/m² 1,8 °C 2,5 °C 0,0 km/h (0 Bft)
15.11.2022 08:11 21,6 °C 2,4 °C 55 % 95 % 1013,0 hPa 0,0 l/m² 0,0 km/h (0 Bft) O-NO 62 ° 0 min 32 W/m² 1,7 °C 2,4 °C 0,0 km/h (0 Bft)
15.11.2022 08:12 21,6 °C 2,3 °C 54 % 95 % 1013,0 hPa 0,0 l/m² 0,0 km/h (0 Bft) O-NO 62 ° 0 min 33 W/m² 1,6 °C 2,3 °C 0,0 km/h (0 Bft)
15.11.2022 08:13 21,6 °C 2,4 °C 54 % 95 % 1013,0 hPa 0,0 l/m² 0,0 km/h (0 Bft) O-NO 62 ° 0 min 33 W/m² 1,7 °C 2,4 °C 0,0 km/h (0 Bft)
15.11.2022 08:15 21,6 °C 2,2 °C 54 % 95 % 1013,0 hPa 0,0 l/m² 0,7 km/h (0 Bft) O-NO 62 ° 0 min 35 W/m² 1,5 °C 2,2 °C 1,6 km/h (1 Bft)
15.11.2022 08:16 21,6 °C 2,2 °C 55 % 95 % 1013,0 hPa 0,0 l/m² 0,0 km/h (0 Bft) O-NO 62 ° 0 min 37 W/m² 1,5 °C 2,2 °C 0,0 km/h (0 Bft)
15.11.2022 08:18 21,6 °C 2,3 °C 54 % 95 % 1012,9 hPa 0,0 l/m² 0,0 km/h (0 Bft) O-NO 62 ° 0 min 40 W/m² 1,6 °C 2,3 °C 0,0 km/h (0 Bft)
15.11.2022 08:20 21,7 °C 2,3 °C 55 % 95 % 1013,0 hPa 0,0 l/m² 0,0 km/h (0 Bft) O-NO 62 ° 0 min 42 W/m² 1,6 °C 2,3 °C 0,0 km/h (0 Bft)
15.11.2022 08:21 21,7 °C 2,3 °C 55 % 95 % 1012,9 hPa 0,0 l/m² 0,0 km/h (0 Bft) O-NO 62 ° 0 min 44 W/m² 1,6 °C 2,3 °C 0,0 km/h (0 Bft)
15.11.2022 08:22 21,7 °C 2,3 °C 54 % 95 % 1013,0 hPa 0,0 l/m² 0,0 km/h (0 Bft) O-NO 62 ° 0 min 47 W/m² 1,6 °C 2,3 °C 0,0 km/h (0 Bft)
15.11.2022 08:23 21,7 °C 2,3 °C 54 % 95 % 1013,0 hPa 0,0 l/m² 0,0 km/h (0 Bft) O-NO 62 ° 0 min 47 W/m² 1,6 °C 2,3 °C 0,0 km/h (0 Bft)
15.11.2022 08:25 21,7 °C 2,4 °C 54 % 95 % 1013,0 hPa 0,0 l/m² 0,0 km/h (0 Bft) O-NO 62 ° 0 min 51 W/m² 1,7 °C 2,4 °C 0,0 km/h (0 Bft)
15.11.2022 08:26 21,7 °C 2,4 °C 55 % 95 % 1013,0 hPa 0,0 l/m² 0,0 km/h (0 Bft) O-NO 62 ° 0 min 51 W/m² 1,7 °C 2,4 °C 0,0 km/h (0 Bft)
15.11.2022 08:28 21,7 °C 2,6 °C 55 % 95 % 1013,0 hPa 0,0 l/m² 0,0 km/h (0 Bft) O-NO 62 ° 2 min 54 W/m² 1,9 °C 2,6 °C 0,0 km/h (0 Bft)
15.11.2022 08:30 21,7 °C 2,7 °C 54 % 95 % 1013,0 hPa 0,0 l/m² 0,0 km/h (0 Bft) O-NO 62 ° 2 min 58 W/m² 2,0 °C 2,7 °C 0,0 km/h (0 Bft)
15.11.2022 08:31 21,7 °C 2,7 °C 54 % 95 % 1013,0 hPa 0,0 l/m² 0,0 km/h (0 Bft) O-NO 62 ° 1 min 60 W/m² 2,0 °C 2,7 °C 0,0 km/h (0 Bft)
15.11.2022 08:32 21,7 °C 2,7 °C 54 % 95 % 1013,1 hPa 0,0 l/m² 0,0 km/h (0 Bft) O-NO 62 ° 1 min 62 W/m² 2,0 °C 2,7 °C 0,0 km/h (0 Bft)
15.11.2022 08:33 21,7 °C 2,7 °C 54 % 95 % 1013,0 hPa 0,0 l/m² 0,0 km/h (0 Bft) O-NO 62 ° 1 min 63 W/m² 2,0 °C 2,7 °C 0,0 km/h (0 Bft)
15.11.2022 08:34 21,7 °C 2,7 °C 54 % 95 % 1013,0 hPa 0,0 l/m² 0,0 km/h (0 Bft) O-NO 62 ° 1 min 65 W/m² 2,0 °C 2,7 °C 0,0 km/h (0 Bft)
15.11.2022 08:36 21,8 °C 2,8 °C 54 % 95 % 1013,0 hPa 0,0 l/m² 0,0 km/h (0 Bft) O-NO 62 ° 2 min 69 W/m² 2,1 °C 2,8 °C 0,0 km/h (0 Bft)
15.11.2022 08:38 21,8 °C 2,9 °C 54 % 95 % 1013,0 hPa 0,0 l/m² 0,0 km/h (0 Bft) O-NO 62 ° 2 min 72 W/m² 2,2 °C 2,9 °C 0,0 km/h (0 Bft)
15.11.2022 08:40 21,8 °C 3,1 °C 54 % 95 % 1013,2 hPa 0,0 l/m² 0,0 km/h (0 Bft) O-NO 62 ° 2 min 76 W/m² 2,4 °C 3,1 °C 0,0 km/h (0 Bft)
15.11.2022 08:41 21,8 °C 3,2 °C 54 % 96 % 1013,1 hPa 0,0 l/m² 0,0 km/h (0 Bft) O-NO 62 ° 1 min 77 W/m² 2,6 °C 3,2 °C 0,0 km/h (0 Bft)
15.11.2022 08:42 21,8 °C 3,3 °C 54 % 96 % 1013,0 hPa 0,0 l/m² 0,0 km/h (0 Bft) O-NO 62 ° 1 min 79 W/m² 2,7 °C 3,3 °C 0,0 km/h (0 Bft)
15.11.2022 08:43 21,8 °C 3,3 °C 54 % 96 % 1013,1 hPa 0,0 l/m² 0,0 km/h (0 Bft) O-NO 62 ° 1 min 81 W/m² 2,7 °C 3,3 °C 0,0 km/h (0 Bft)
15.11.2022 08:44 21,8 °C 3,4 °C 54 % 96 % 1013,1 hPa 0,0 l/m² 0,0 km/h (0 Bft) O-NO 62 ° 1 min 83 W/m² 2,8 °C 3,4 °C 0,0 km/h (0 Bft)
15.11.2022 08:46 21,8 °C 3,4 °C 54 % 96 % 1013,1 hPa 0,0 l/m² 0,0 km/h (0 Bft) O-NO 62 ° 2 min 86 W/m² 2,8 °C 3,4 °C 0,0 km/h (0 Bft)
15.11.2022 08:48 21,9 °C 3,7 °C 54 % 96 % 1013,1 hPa 0,0 l/m² 0,0 km/h (0 Bft) O-NO 62 ° 2 min 90 W/m² 3,1 °C 3,7 °C 0,0 km/h (0 Bft)
15.11.2022 08:50 21,9 °C 3,8 °C 54 % 96 % 1013,2 hPa 0,0 l/m² 0,0 km/h (0 Bft) O-NO 62 ° 2 min 93 W/m² 3,2 °C 3,8 °C 0,0 km/h (0 Bft)
15.11.2022 08:51 21,9 °C 3,8 °C 54 % 96 % 1013,2 hPa 0,0 l/m² 0,0 km/h (0 Bft) O-NO 62 ° 1 min 95 W/m² 3,2 °C 3,8 °C 0,0 km/h (0 Bft)
15.11.2022 08:52 21,9 °C 3,8 °C 54 % 96 % 1013,0 hPa 0,0 l/m² 0,0 km/h (0 Bft) O-NO 62 ° 1 min 97 W/m² 3,2 °C 3,8 °C 0,0 km/h (0 Bft)
15.11.2022 08:53 21,9 °C 3,8 °C 54 % 96 % 1013,0 hPa 0,0 l/m² 0,0 km/h (0 Bft) O-NO 62 ° 1 min 100 W/m² 3,2 °C 3,8 °C 0,0 km/h (0 Bft)
15.11.2022 08:54 21,9 °C 3,8 °C 54 % 96 % 1013,0 hPa 0,0 l/m² 0,0 km/h (0 Bft) O-NO 62 ° 1 min 102 W/m² 3,2 °C 3,8 °C 0,0 km/h (0 Bft)
15.11.2022 08:56 21,9 °C 3,9 °C 54 % 96 % 1013,1 hPa 0,0 l/m² 0,0 km/h (0 Bft) O-NO 62 ° 2 min 105 W/m² 3,3 °C 3,9 °C 0,0 km/h (0 Bft)
15.11.2022 08:58 22,0 °C 4,0 °C 54 % 96 % 1013,1 hPa 0,0 l/m² 0,0 km/h (0 Bft) O-NO 62 ° 2 min 111 W/m² 3,4 °C 4,0 °C 0,0 km/h (0 Bft)
15.11.2022 09:00 22,0 °C 4,2 °C 54 % 96 % 1013,2 hPa 0,0 l/m² 0,0 km/h (0 Bft) O-NO 62 ° 2 min 114 W/m² 3,6 °C 4,2 °C 0,0 km/h (0 Bft)
15.11.2022 09:01 22,1 °C 4,2 °C 54 % 96 % 1013,1 hPa 0,0 l/m² 0,0 km/h (0 Bft) O-NO 62 ° 1 min 116 W/m² 3,6 °C 4,2 °C 0,0 km/h (0 Bft)
15.11.2022 09:02 22,1 °C 4,3 °C 54 % 96 % 1013,1 hPa 0,0 l/m² 0,0 km/h (0 Bft) O-NO 62 ° 1 min 118 W/m² 3,7 °C 4,3 °C 0,0 km/h (0 Bft)
15.11.2022 09:03 22,0 °C 4,3 °C 54 % 96 % 1013,1 hPa 0,0 l/m² 0,0 km/h (0 Bft) O-NO 62 ° 1 min 120 W/m² 3,7 °C 4,3 °C 0,0 km/h (0 Bft)
15.11.2022 09:04 22,1 °C 4,3 °C 54 % 96 % 1013,2 hPa 0,0 l/m² 0,0 km/h (0 Bft) O-NO 62 ° 1 min 121 W/m² 3,7 °C 4,3 °C 0,0 km/h (0 Bft)
15.11.2022 09:06 22,1 °C 4,4 °C 54 % 96 % 1013,0 hPa 0,0 l/m² 0,0 km/h (0 Bft) O-NO 62 ° 2 min 125 W/m² 3,8 °C 4,4 °C 0,0 km/h (0 Bft)
15.11.2022 09:08 22,1 °C 4,7 °C 54 % 96 % 1013,0 hPa 0,0 l/m² 0,0 km/h (0 Bft) O-NO 62 ° 2 min 128 W/m² 4,1 °C 4,7 °C 0,0 km/h (0 Bft)
15.11.2022 09:10 22,1 °C 5,0 °C 54 % 96 % 1013,1 hPa 0,0 l/m² 0,0 km/h (0 Bft) O-NO 62 ° 2 min 134 W/m² 4,4 °C 5,0 °C 0,0 km/h (0 Bft)
15.11.2022 09:11 22,1 °C 5,0 °C 54 % 96 % 1013,0 hPa 0,0 l/m² 0,0 km/h (0 Bft) O-NO 62 ° 1 min 135 W/m² 4,4 °C 5,0 °C 0,0 km/h (0 Bft)
15.11.2022 09:12 22,1 °C 5,1 °C 54 % 96 % 1013,0 hPa 0,0 l/m² 0,0 km/h (0 Bft) O-NO 62 ° 1 min 137 W/m² 4,5 °C 5,1 °C 0,0 km/h (0 Bft)
15.11.2022 09:13 22,2 °C 5,1 °C 54 % 96 % 1013,1 hPa 0,0 l/m² 0,0 km/h (0 Bft) O-NO 62 ° 1 min 139 W/m² 4,5 °C 5,1 °C 0,0 km/h (0 Bft)
15.11.2022 09:14 22,2 °C 5,1 °C 54 % 96 % 1013,0 hPa 0,0 l/m² 0,0 km/h (0 Bft) O-NO 62 ° 1 min 141 W/m² 4,5 °C 5,1 °C 0,0 km/h (0 Bft)
15.11.2022 09:16 22,2 °C 5,3 °C 54 % 96 % 1013,1 hPa 0,0 l/m² 0,0 km/h (0 Bft) O-NO 62 ° 2 min 146 W/m² 4,7 °C 5,3 °C 0,0 km/h (0 Bft)
15.11.2022 09:18 22,2 °C 5,4 °C 54 % 96 % 1013,1 hPa 0,0 l/m² 0,0 km/h (0 Bft) O-NO 62 ° 2 min 149 W/m² 4,8 °C 5,4 °C 0,0 km/h (0 Bft)
15.11.2022 09:20 22,2 °C 5,7 °C 54 % 95 % 1013,0 hPa 0,0 l/m² 0,0 km/h (0 Bft) O-NO 62 ° 2 min 153 W/m² 5,0 °C 5,7 °C 0,0 km/h (0 Bft)
15.11.2022 09:21 22,2 °C 5,8 °C 54 % 96 % 1013,0 hPa 0,0 l/m² 0,0 km/h (0 Bft) O-NO 62 ° 1 min 156 W/m² 5,2 °C 5,8 °C 0,0 km/h (0 Bft)
15.11.2022 09:22 22,2 °C 5,8 °C 54 % 96 % 1013,0 hPa 0,0 l/m² 0,0 km/h (0 Bft) O-NO 62 ° 1 min 158 W/m² 5,2 °C 5,8 °C 0,0 km/h (0 Bft)
15.11.2022 09:23 22,3 °C 5,9 °C 54 % 96 % 1013,0 hPa 0,0 l/m² 0,0 km/h (0 Bft) O-NO 62 ° 1 min 160 W/m² 5,3 °C 5,9 °C 0,0 km/h (0 Bft)
15.11.2022 09:24 22,3 °C 5,9 °C 54 % 95 % 1013,1 hPa 0,0 l/m² 0,0 km/h (0 Bft) O-NO 62 ° 1 min 162 W/m² 5,2 °C 5,9 °C 0,0 km/h (0 Bft)
15.11.2022 09:26 22,3 °C 6,1 °C 54 % 95 % 1013,0 hPa 0,0 l/m² 0,0 km/h (0 Bft) O-NO 62 ° 2 min 165 W/m² 5,4 °C 6,1 °C 0,0 km/h (0 Bft)
15.11.2022 09:28 22,3 °C 6,2 °C 54 % 95 % 1012,9 hPa 0,0 l/m² 0,0 km/h (0 Bft) O-NO 62 ° 2 min 171 W/m² 5,5 °C 6,2 °C 0,0 km/h (0 Bft)
15.11.2022 09:30 22,3 °C 6,3 °C 54 % 95 % 1013,0 hPa 0,0 l/m² 0,0 km/h (0 Bft) O-NO 62 ° 2 min 176 W/m² 5,6 °C 6,3 °C 1,6 km/h (1 Bft)
15.11.2022 09:31 22,4 °C 6,4 °C 54 % 95 % 1012,9 hPa 0,0 l/m² 0,0 km/h (0 Bft) O-NO 62 ° 1 min 178 W/m² 5,7 °C 6,4 °C 0,0 km/h (0 Bft)
15.11.2022 09:32 22,4 °C 6,5 °C 54 % 95 % 1012,9 hPa 0,0 l/m² 0,5 km/h (0 Bft) O-NO 62 ° 1 min 181 W/m² 5,8 °C 6,5 °C 1,6 km/h (1 Bft)
15.11.2022 09:33 22,4 °C 6,6 °C 54 % 95 % 1012,9 hPa 0,0 l/m² 1,8 km/h (1 Bft) O-NO 62 ° 1 min 183 W/m² 5,9 °C 6,6 °C 3,2 km/h (1 Bft)
15.11.2022 09:34 22,4 °C 6,7 °C 54 % 95 % 1012,9 hPa 0,0 l/m² 0,3 km/h (0 Bft) O-NO 62 ° 1 min 186 W/m² 6,0 °C 6,7 °C 1,6 km/h (1 Bft)
15.11.2022 09:36 22,4 °C 6,8 °C 54 % 94 % 1012,9 hPa 0,0 l/m² 1,5 km/h (1 Bft) O-NO 62 ° 2 min 190 W/m² 5,9 °C 6,8 °C 3,2 km/h (1 Bft)
15.11.2022 09:38 22,4 °C 6,9 °C 54 % 93 % 1012,9 hPa 0,0 l/m² 0,7 km/h (0 Bft) O-NO 62 ° 2 min 192 W/m² 5,8 °C 6,9 °C 1,6 km/h (1 Bft)
15.11.2022 09:40 22,5 °C 7,1 °C 54 % 93 % 1012,8 hPa 0,0 l/m² 0,1 km/h (0 Bft) O-NO 62 ° 2 min 197 W/m² 6,0 °C 7,1 °C 1,6 km/h (1 Bft)
15.11.2022 09:41 22,6 °C 7,1 °C 53 % 93 % 1012,8 hPa 0,0 l/m² 0,0 km/h (0 Bft) O-NO 62 ° 1 min 199 W/m² 6,0 °C 7,1 °C 0,0 km/h (0 Bft)
15.11.2022 09:42 22,6 °C 7,1 °C 53 % 93 % 1012,8 hPa 0,0 l/m² 0,0 km/h (0 Bft) O-NO 62 ° 1 min 200 W/m² 6,0 °C 7,1 °C 0,0 km/h (0 Bft)
15.11.2022 09:43 22,6 °C 7,1 °C 53 % 92 % 1012,8 hPa 0,0 l/m² 0,3 km/h (0 Bft) O-NO 62 ° 1 min 202 W/m² 5,9 °C 7,1 °C 1,6 km/h (1 Bft)
15.11.2022 09:44 22,6 °C 7,2 °C 53 % 92 % 1012,8 hPa 0,0 l/m² 2,2 km/h (1 Bft) O-NO 62 ° 1 min 204 W/m² 6,0 °C 7,2 °C 3,2 km/h (1 Bft)
15.11.2022 09:47 22,6 °C 7,5 °C 53 % 92 % 1012,9 hPa 0,0 l/m² 3,5 km/h (1 Bft) O-NO 62 ° 3 min 211 W/m² 6,3 °C 7,5 °C 4,8 km/h (1 Bft)
15.11.2022 09:49 22,6 °C 7,7 °C 53 % 92 % 1012,8 hPa 0,0 l/m² 3,8 km/h (1 Bft) O-NO 62 ° 2 min 214 W/m² 6,5 °C 7,7 °C 6,4 km/h (2 Bft)
15.11.2022 09:50 22,7 °C 7,8 °C 53 % 91 % 1012,8 hPa 0,0 l/m² 2,0 km/h (1 Bft) O-NO 62 ° 1 min 218 W/m² 6,4 °C 7,8 °C 4,8 km/h (1 Bft)
15.11.2022 09:51 22,7 °C 7,9 °C 53 % 92 % 1012,8 hPa 0,0 l/m² 1,0 km/h (0 Bft) O-NO 62 ° 1 min 218 W/m² 6,7 °C 7,9 °C 3,2 km/h (1 Bft)
15.11.2022 09:52 22,7 °C 8,1 °C 53 % 92 % 1012,8 hPa 0,0 l/m² 0,9 km/h (0 Bft) O-NO 62 ° 1 min 220 W/m² 6,9 °C 8,1 °C 3,2 km/h (1 Bft)
15.11.2022 09:53 22,7 °C 8,1 °C 53 % 91 % 1012,8 hPa 0,0 l/m² 0,3 km/h (0 Bft) O-NO 62 ° 1 min 221 W/m² 6,7 °C 8,1 °C 1,6 km/h (1 Bft)
15.11.2022 09:54 22,7 °C 8,2 °C 53 % 91 % 1012,8 hPa 0,0 l/m² 1,0 km/h (0 Bft) O-NO 62 ° 1 min 223 W/m² 6,8 °C 8,2 °C 1,6 km/h (1 Bft)
15.11.2022 09:56 22,7 °C 8,2 °C 53 % 91 % 1012,8 hPa 0,0 l/m² 2,4 km/h (1 Bft) O-NO 62 ° 2 min 227 W/m² 6,8 °C 8,2 °C 4,8 km/h (1 Bft)
15.11.2022 09:58 22,7 °C 8,2 °C 53 % 91 % 1012,8 hPa 0,0 l/m² 4,0 km/h (1 Bft) O-NO 62 ° 2 min 232 W/m² 6,8 °C 8,2 °C 6,4 km/h (2 Bft)
15.11.2022 10:00 22,8 °C 8,3 °C 53 % 90 % 1012,8 hPa 0,0 l/m² 3,6 km/h (1 Bft) O-NO 62 ° 2 min 236 W/m² 6,8 °C 8,3 °C 4,8 km/h (1 Bft)
15.11.2022 10:01 22,8 °C 8,4 °C 53 % 90 % 1012,8 hPa 0,0 l/m² 3,3 km/h (1 Bft) O-NO 62 ° 1 min 237 W/m² 6,9 °C 8,4 °C 4,8 km/h (1 Bft)
15.11.2022 10:02 22,8 °C 8,6 °C 53 % 90 % 1012,8 hPa 0,0 l/m² 2,7 km/h (1 Bft) O-NO 62 ° 1 min 239 W/m² 7,1 °C 8,6 °C 4,8 km/h (1 Bft)
15.11.2022 10:03 22,8 °C 8,6 °C 53 % 90 % 1012,7 hPa 0,0 l/m² 6,1 km/h (2 Bft) O-NO 71 ° 1 min 241 W/m² 7,1 °C 8,6 °C 8,0 km/h (2 Bft)
15.11.2022 10:04 22,8 °C 8,7 °C 53 % 89 % 1012,8 hPa 0,0 l/m² 5,9 km/h (2 Bft) O-NO 71 ° 1 min 243 W/m² 7,0 °C 8,7 °C 8,0 km/h (2 Bft)
15.11.2022 10:06 22,8 °C 8,7 °C 53 % 89 % 1012,7 hPa 0,0 l/m² 6,7 km/h (2 Bft) O-NO 70 ° 2 min 246 W/m² 7,0 °C 8,5 °C 8,0 km/h (2 Bft)
15.11.2022 10:08 22,9 °C 8,9 °C 53 % 89 % 1012,8 hPa 0,0 l/m² 7,1 km/h (2 Bft) O-NO 71 ° 2 min 248 W/m² 7,2 °C 8,4 °C 9,7 km/h (2 Bft)
15.11.2022 10:10 22,9 °C 9,1 °C 53 % 88 % 1012,7 hPa 0,0 l/m² 6,5 km/h (2 Bft) O 81 ° 2 min 253 W/m² 7,2 °C 9,1 °C 8,0 km/h (2 Bft)
15.11.2022 10:11 22,9 °C 9,1 °C 53 % 89 % 1012,8 hPa 0,0 l/m² 5,3 km/h (1 Bft) O 80 ° 1 min 253 W/m² 7,4 °C 9,1 °C 8,0 km/h (2 Bft)
15.11.2022 10:12 22,9 °C 9,2 °C 53 % 88 % 1012,8 hPa 0,0 l/m² 3,8 km/h (1 Bft) O 80 ° 1 min 255 W/m² 7,3 °C 9,2 °C 6,4 km/h (2 Bft)
15.11.2022 10:13 22,9 °C 9,2 °C 53 % 88 % 1012,8 hPa 0,0 l/m² 5,2 km/h (1 Bft) O 80 ° 1 min 255 W/m² 7,3 °C 9,2 °C 6,4 km/h (2 Bft)
15.11.2022 10:14 22,9 °C 9,2 °C 53 % 88 % 1012,8 hPa 0,0 l/m² 5,0 km/h (1 Bft) O 80 ° 1 min 257 W/m² 7,3 °C 9,2 °C 6,4 km/h (2 Bft)
15.11.2022 10:16 22,9 °C 9,2 °C 53 % 87 % 1012,8 hPa 0,0 l/m² 4,6 km/h (1 Bft) O 80 ° 2 min 260 W/m² 7,2 °C 9,2 °C 6,4 km/h (2 Bft)
15.11.2022 10:18 23,0 °C 9,3 °C 53 % 88 % 1012,8 hPa 0,0 l/m² 5,8 km/h (2 Bft) O 82 ° 2 min 262 W/m² 7,4 °C 9,3 °C 6,4 km/h (2 Bft)
15.11.2022 10:20 23,0 °C 9,4 °C 53 % 88 % 1012,8 hPa 0,0 l/m² 5,8 km/h (2 Bft) O 84 ° 2 min 267 W/m² 7,5 °C 9,4 °C 6,4 km/h (2 Bft)
15.11.2022 10:21 23,0 °C 9,4 °C 53 % 87 % 1012,8 hPa 0,0 l/m² 6,7 km/h (2 Bft) O 90 ° 1 min 267 W/m² 7,3 °C 9,2 °C 8,0 km/h (2 Bft)
15.11.2022 10:22 23,0 °C 9,4 °C 53 % 87 % 1012,8 hPa 0,0 l/m² 6,1 km/h (2 Bft) O 90 ° 1 min 269 W/m² 7,3 °C 9,4 °C 9,7 km/h (2 Bft)
15.11.2022 10:23 23,0 °C 9,4 °C 53 % 87 % 1012,8 hPa 0,0 l/m² 6,4 km/h (2 Bft) O 90 ° 1 min 271 W/m² 7,3 °C 9,4 °C 6,4 km/h (2 Bft)
15.11.2022 10:24 23,0 °C 9,5 °C 53 % 87 % 1012,8 hPa 0,0 l/m² 6,8 km/h (2 Bft) O 90 ° 1 min 272 W/m² 7,4 °C 9,2 °C 9,7 km/h (2 Bft)
15.11.2022 10:26 23,1 °C 9,6 °C 53 % 86 % 1012,8 hPa 0,0 l/m² 6,6 km/h (2 Bft) O 90 ° 2 min 274 W/m² 7,4 °C 9,5 °C 9,7 km/h (2 Bft)
15.11.2022 10:28 23,1 °C 9,7 °C 53 % 86 % 1012,8 hPa 0,0 l/m² 5,8 km/h (2 Bft) O 90 ° 2 min 278 W/m² 7,5 °C 9,7 °C 6,4 km/h (2 Bft)
15.11.2022 10:30 23,1 °C 9,8 °C 53 % 85 % 1012,8 hPa 0,0 l/m² 5,9 km/h (2 Bft) O 90 ° 2 min 279 W/m² 7,4 °C 9,8 °C 9,7 km/h (2 Bft)
15.11.2022 10:31 23,1 °C 9,9 °C 53 % 85 % 1012,8 hPa 0,0 l/m² 6,5 km/h (2 Bft) O 90 ° 1 min 281 W/m² 7,5 °C 9,9 °C 9,7 km/h (2 Bft)
15.11.2022 10:32 23,1 °C 9,9 °C 53 % 86 % 1012,8 hPa 0,0 l/m² 6,4 km/h (2 Bft) O 84 ° 1 min 283 W/m² 7,7 °C 9,9 °C 8,0 km/h (2 Bft)
15.11.2022 10:33 23,2 °C 10,0 °C 53 % 85 % 1012,8 hPa 0,0 l/m² 6,9 km/h (2 Bft) O 85 ° 1 min 285 W/m² 7,6 °C 9,6 °C 8,0 km/h (2 Bft)
15.11.2022 10:34 23,2 °C 10,1 °C 53 % 85 % 1012,8 hPa 0,0 l/m² 7,1 km/h (2 Bft) O 85 ° 1 min 285 W/m² 7,7 °C 9,6 °C 11,3 km/h (2 Bft)
15.11.2022 10:36 23,1 °C 10,2 °C 53 % 84 % 1012,7 hPa 0,0 l/m² 5,9 km/h (2 Bft) O 86 ° 2 min 287 W/m² 7,6 °C 10,2 °C 8,0 km/h (2 Bft)
15.11.2022 10:38 23,2 °C 10,3 °C 53 % 84 % 1012,7 hPa 0,0 l/m² 6,5 km/h (2 Bft) O 97 ° 2 min 288 W/m² 7,7 °C 10,3 °C 11,3 km/h (2 Bft)
15.11.2022 10:40 23,2 °C 10,4 °C 53 % 84 % 1012,7 hPa 0,0 l/m² 7,2 km/h (2 Bft) O 98 ° 2 min 292 W/m² 7,8 °C 9,8 °C 9,7 km/h (2 Bft)
15.11.2022 10:41 23,2 °C 10,4 °C 53 % 84 % 1012,7 hPa 0,0 l/m² 6,9 km/h (2 Bft) O 97 ° 1 min 292 W/m² 7,8 °C 10,0 °C 9,7 km/h (2 Bft)
15.11.2022 10:42 23,2 °C 10,5 °C 53 % 84 % 1012,7 hPa 0,0 l/m² 6,4 km/h (2 Bft) O 97 ° 1 min 294 W/m² 7,9 °C 10,5 °C 9,7 km/h (2 Bft)
15.11.2022 10:43 23,2 °C 10,6 °C 53 % 84 % 1012,6 hPa 0,0 l/m² 8,0 km/h (2 Bft) O 97 ° 1 min 294 W/m² 8,0 °C 9,5 °C 9,7 km/h (2 Bft)
15.11.2022 10:44 23,2 °C 10,7 °C 53 % 83 % 1012,6 hPa 0,0 l/m² 5,9 km/h (2 Bft) O 96 ° 1 min 295 W/m² 7,9 °C 10,7 °C 6,4 km/h (2 Bft)
15.11.2022 10:46 23,2 °C 10,8 °C 53 % 83 % 1012,6 hPa 0,0 l/m² 7,3 km/h (2 Bft) O 90 ° 2 min 299 W/m² 8,0 °C 10,2 °C 9,7 km/h (2 Bft)
15.11.2022 10:48 23,2 °C 10,9 °C 53 % 82 % 1012,7 hPa 0,0 l/m² 6,0 km/h (2 Bft) O 83 ° 2 min 301 W/m² 7,9 °C 10,9 °C 11,3 km/h (2 Bft)
15.11.2022 10:50 23,2 °C 11,1 °C 53 % 82 % 1012,6 hPa 0,0 l/m² 5,8 km/h (2 Bft) O 82 ° 2 min 302 W/m² 8,1 °C 11,1 °C 8,0 km/h (2 Bft)
15.11.2022 10:51 23,2 °C 11,1 °C 53 % 82 % 1012,6 hPa 0,0 l/m² 4,3 km/h (1 Bft) O 82 ° 1 min 302 W/m² 8,1 °C 11,1 °C 6,4 km/h (2 Bft)
15.11.2022 10:52 23,2 °C 11,1 °C 53 % 82 % 1012,6 hPa 0,0 l/m² 5,2 km/h (1 Bft) O 82 ° 1 min 304 W/m² 8,1 °C 11,1 °C 6,4 km/h (2 Bft)
15.11.2022 10:54 23,2 °C 11,3 °C 53 % 82 % 1012,7 hPa 0,0 l/m² 4,9 km/h (1 Bft) O 82 ° 2 min 306 W/m² 8,3 °C 11,3 °C 6,4 km/h (2 Bft)
15.11.2022 10:55 23,2 °C 11,3 °C 53 % 81 % 1012,6 hPa 0,0 l/m² 4,6 km/h (1 Bft) O 82 ° 1 min 306 W/m² 8,2 °C 11,3 °C 6,4 km/h (2 Bft)
15.11.2022 10:57 23,2 °C 11,3 °C 53 % 81 % 1012,6 hPa 0,0 l/m² 5,4 km/h (2 Bft) O 83 ° 2 min 308 W/m² 8,2 °C 11,3 °C 8,0 km/h (2 Bft)
15.11.2022 10:59 23,2 °C 11,4 °C 53 % 80 % 1012,5 hPa 0,0 l/m² 5,2 km/h (1 Bft) O 83 ° 2 min 311 W/m² 8,1 °C 11,4 °C 8,0 km/h (2 Bft)
15.11.2022 11:00 23,3 °C 11,5 °C 53 % 81 % 1012,6 hPa 0,0 l/m² 4,9 km/h (1 Bft) O 83 ° 1 min 311 W/m² 8,4 °C 11,5 °C 6,4 km/h (2 Bft)
15.11.2022 11:01 23,2 °C 11,6 °C 53 % 80 % 1012,5 hPa 0,0 l/m² 4,4 km/h (1 Bft) O 82 ° 1 min 313 W/m² 8,3 °C 11,6 °C 8,0 km/h (2 Bft)
15.11.2022 11:02 23,2 °C 11,7 °C 53 % 80 % 1012,5 hPa 0,0 l/m² 4,3 km/h (1 Bft) O-NO 78 ° 1 min 313 W/m² 8,4 °C 11,7 °C 6,4 km/h (2 Bft)
15.11.2022 11:03 23,2 °C 11,8 °C 53 % 80 % 1012,5 hPa 0,0 l/m² 5,3 km/h (1 Bft) O 80 ° 1 min 315 W/m² 8,5 °C 11,8 °C 6,4 km/h (2 Bft)
15.11.2022 11:04 23,2 °C 11,8 °C 53 % 78 % 1012,5 hPa 0,0 l/m² 4,2 km/h (1 Bft) O 80 ° 1 min 315 W/m² 8,1 °C 11,8 °C 6,4 km/h (2 Bft)
15.11.2022 11:06 23,3 °C 11,8 °C 52 % 79 % 1012,5 hPa 0,0 l/m² 5,4 km/h (2 Bft) O 89 ° 2 min 315 W/m² 8,3 °C 11,8 °C 8,0 km/h (2 Bft)
15.11.2022 11:08 23,3 °C 11,8 °C 53 % 79 % 1012,4 hPa 0,0 l/m² 5,7 km/h (2 Bft) O 92 ° 2 min 316 W/m² 8,3 °C 11,8 °C 8,0 km/h (2 Bft)
15.11.2022 11:10 23,2 °C 11,8 °C 53 % 80 % 1012,4 hPa 0,0 l/m² 4,7 km/h (1 Bft) O 92 ° 2 min 318 W/m² 8,5 °C 11,8 °C 6,4 km/h (2 Bft)
15.11.2022 11:11 23,3 °C 11,8 °C 53 % 79 % 1012,5 hPa 0,0 l/m² 4,6 km/h (1 Bft) O 92 ° 1 min 320 W/m² 8,3 °C 11,8 °C 6,4 km/h (2 Bft)
15.11.2022 11:12 23,3 °C 11,8 °C 53 % 79 % 1012,5 hPa 0,0 l/m² 7,5 km/h (2 Bft) O 92 ° 1 min 320 W/m² 8,3 °C 11,1 °C 9,7 km/h (2 Bft)
15.11.2022 11:13 23,3 °C 11,8 °C 53 % 79 % 1012,5 hPa 0,0 l/m² 7,8 km/h (2 Bft) O 92 ° 1 min 322 W/m² 8,3 °C 10,9 °C 9,7 km/h (2 Bft)
15.11.2022 11:14 23,3 °C 11,9 °C 53 % 81 % 1012,4 hPa 0,0 l/m² 5,8 km/h (2 Bft) O 92 ° 1 min 323 W/m² 8,7 °C 11,9 °C 6,4 km/h (2 Bft)
15.11.2022 11:16 23,3 °C 12,1 °C 53 % 80 % 1012,3 hPa 0,0 l/m² 4,7 km/h (1 Bft) O 86 ° 2 min 323 W/m² 8,8 °C 12,1 °C 8,0 km/h (2 Bft)
15.11.2022 11:18 23,3 °C 12,2 °C 53 % 79 % 1012,2 hPa 0,0 l/m² 7,5 km/h (2 Bft) O 86 ° 2 min 325 W/m² 8,7 °C 11,5 °C 11,3 km/h (2 Bft)
15.11.2022 11:20 23,3 °C 12,2 °C 53 % 79 % 1012,2 hPa 0,0 l/m² 6,8 km/h (2 Bft) O 90 ° 2 min 327 W/m² 8,7 °C 11,9 °C 9,7 km/h (2 Bft)
15.11.2022 11:21 23,3 °C 12,2 °C 53 % 78 % 1012,2 hPa 0,0 l/m² 6,1 km/h (2 Bft) O 88 ° 1 min 327 W/m² 8,5 °C 12,2 °C 8,0 km/h (2 Bft)
15.11.2022 11:22 23,3 °C 12,3 °C 53 % 79 % 1012,2 hPa 0,0 l/m² 6,4 km/h (2 Bft) O 92 ° 1 min 329 W/m² 8,8 °C 12,3 °C 9,7 km/h (2 Bft)
15.11.2022 11:23 23,3 °C 12,3 °C 53 % 78 % 1012,2 hPa 0,0 l/m² 9,2 km/h (2 Bft) O 88 ° 1 min 329 W/m² 8,6 °C 10,6 °C 11,3 km/h (2 Bft)
15.11.2022 11:24 23,3 °C 12,3 °C 53 % 77 % 1012,1 hPa 0,0 l/m² 6,8 km/h (2 Bft) O 88 ° 1 min 329 W/m² 8,4 °C 12,0 °C 8,0 km/h (2 Bft)
15.11.2022 11:26 23,3 °C 12,4 °C 53 % 77 % 1012,2 hPa 0,0 l/m² 4,8 km/h (1 Bft) O 88 ° 2 min 330 W/m² 8,5 °C 12,4 °C 6,4 km/h (2 Bft)
15.11.2022 11:28 23,3 °C 12,4 °C 53 % 76 % 1012,2 hPa 0,0 l/m² 3,7 km/h (1 Bft) O 88 ° 2 min 332 W/m² 8,3 °C 12,4 °C 4,8 km/h (1 Bft)
15.11.2022 11:30 23,3 °C 12,4 °C 53 % 76 % 1012,3 hPa 0,0 l/m² 4,7 km/h (1 Bft) O 101 ° 2 min 332 W/m² 8,3 °C 12,4 °C 6,4 km/h (2 Bft)
15.11.2022 11:31 23,3 °C 12,4 °C 53 % 75 % 1012,2 hPa 0,0 l/m² 4,9 km/h (1 Bft) O 101 ° 1 min 334 W/m² 8,1 °C 12,4 °C 6,4 km/h (2 Bft)
15.11.2022 11:32 23,3 °C 12,4 °C 53 % 76 % 1012,2 hPa 0,0 l/m² 6,4 km/h (2 Bft) O-SO 109 ° 1 min 334 W/m² 8,3 °C 12,4 °C 9,7 km/h (2 Bft)
15.11.2022 11:33 23,3 °C 12,4 °C 53 % 76 % 1012,1 hPa 0,0 l/m² 6,8 km/h (2 Bft) O-SO 113 ° 1 min 334 W/m² 8,3 °C 12,1 °C 9,7 km/h (2 Bft)
15.11.2022 11:34 23,3 °C 12,5 °C 53 % 78 % 1012,1 hPa 0,0 l/m² 3,7 km/h (1 Bft) O-SO 113 ° 1 min 334 W/m² 8,8 °C 12,5 °C 6,4 km/h (2 Bft)
15.11.2022 11:36 23,3 °C 12,6 °C 53 % 75 % 1012,1 hPa 0,0 l/m² 9,0 km/h (2 Bft) O-SO 121 ° 2 min 336 W/m² 8,3 °C 11,0 °C 12,9 km/h (3 Bft)
15.11.2022 11:38 23,3 °C 12,6 °C 53 % 75 % 1012,1 hPa 0,0 l/m² 8,1 km/h (2 Bft) SO 132 ° 2 min 338 W/m² 8,3 °C 11,5 °C 11,3 km/h (2 Bft)
15.11.2022 11:40 23,3 °C 12,6 °C 53 % 76 % 1012,0 hPa 0,0 l/m² 7,0 km/h (2 Bft) SO 126 ° 2 min 338 W/m² 8,5 °C 12,2 °C 11,3 km/h (2 Bft)
15.11.2022 11:41 23,4 °C 12,6 °C 53 % 76 % 1012,0 hPa 0,0 l/m² 7,7 km/h (2 Bft) SO 128 ° 1 min 338 W/m² 8,5 °C 11,8 °C 11,3 km/h (2 Bft)
15.11.2022 11:42 23,4 °C 12,6 °C 53 % 75 % 1012,0 hPa 0,0 l/m² 9,5 km/h (2 Bft) SO 126 ° 1 min 338 W/m² 8,3 °C 10,7 °C 11,3 km/h (2 Bft)
15.11.2022 11:43 23,4 °C 12,6 °C 53 % 76 % 1012,0 hPa 0,0 l/m² 8,4 km/h (2 Bft) SO 128 ° 1 min 338 W/m² 8,5 °C 11,3 °C 11,3 km/h (2 Bft)
15.11.2022 11:44 23,4 °C 12,7 °C 53 % 76 % 1012,0 hPa 0,0 l/m² 11,2 km/h (2 Bft) SO 128 ° 1 min 338 W/m² 8,6 °C 10,0 °C 14,5 km/h (3 Bft)
15.11.2022 11:46 23,4 °C 12,6 °C 53 % 75 % 1012,0 hPa 0,0 l/m² 11,9 km/h (2 Bft) SO 137 ° 2 min 339 W/m² 8,3 °C 9,6 °C 14,5 km/h (3 Bft)
15.11.2022 11:48 23,4 °C 12,6 °C 53 % 75 % 1011,9 hPa 0,0 l/m² 7,6 km/h (2 Bft) SO 138 ° 2 min 339 W/m² 8,3 °C 11,8 °C 11,3 km/h (2 Bft)
15.11.2022 11:50 23,4 °C 12,7 °C 53 % 75 % 1012,0 hPa 0,0 l/m² 5,4 km/h (2 Bft) SO 142 ° 2 min 341 W/m² 8,4 °C 12,7 °C 8,0 km/h (2 Bft)
15.11.2022 11:52 23,4 °C 12,8 °C 53 % 76 % 1011,8 hPa 0,0 l/m² 6,8 km/h (2 Bft) O-SO 117 ° 2 min 343 W/m² 8,7 °C 12,6 °C 12,9 km/h (3 Bft)
15.11.2022 11:53 23,4 °C 12,9 °C 53 % 77 % 1011,8 hPa 0,0 l/m² 7,6 km/h (2 Bft) O-SO 121 ° 1 min 341 W/m² 9,0 °C 12,1 °C 11,3 km/h (2 Bft)
15.11.2022 11:54 23,4 °C 12,8 °C 53 % 74 % 1011,8 hPa 0,0 l/m² 10,2 km/h (2 Bft) O-SO 119 ° 1 min 329 W/m² 8,3 °C 10,6 °C 12,9 km/h (3 Bft)
15.11.2022 11:56 23,4 °C 12,8 °C 53 % 74 % 1011,7 hPa 0,0 l/m² 6,1 km/h (2 Bft) SO 132 ° 2 min 316 W/m² 8,3 °C 12,8 °C 8,0 km/h (2 Bft)
15.11.2022 11:58 23,4 °C 12,9 °C 53 % 74 % 1011,8 hPa 0,0 l/m² 8,4 km/h (2 Bft) O-SO 115 ° 2 min 318 W/m² 8,4 °C 11,7 °C 12,9 km/h (3 Bft)
15.11.2022 12:00 23,4 °C 12,8 °C 52 % 74 % 1011,8 hPa 0,0 l/m² 6,6 km/h (2 Bft) SO 139 ° 2 min 334 W/m² 8,3 °C 12,7 °C 11,3 km/h (2 Bft)
15.11.2022 12:01 23,4 °C 12,8 °C 53 % 75 % 1011,7 hPa 0,0 l/m² 4,9 km/h (1 Bft) SO 132 ° 1 min 334 W/m² 8,5 °C 12,8 °C 6,4 km/h (2 Bft)
15.11.2022 12:02 23,4 °C 12,8 °C 53 % 75 % 1011,7 hPa 0,0 l/m² 3,1 km/h (1 Bft) SO 132 ° 1 min 338 W/m² 8,5 °C 12,8 °C 6,4 km/h (2 Bft)
15.11.2022 12:03 23,4 °C 12,8 °C 52 % 76 % 1011,8 hPa 0,0 l/m² 4,4 km/h (1 Bft) SO 139 ° 1 min 334 W/m² 8,7 °C 12,8 °C 6,4 km/h (2 Bft)
15.11.2022 12:04 23,4 °C 12,9 °C 52 % 75 % 1011,8 hPa 0,0 l/m² 6,7 km/h (2 Bft) S-SO 150 ° 1 min 332 W/m² 8,6 °C 12,7 °C 9,7 km/h (2 Bft)
15.11.2022 12:06 23,4 °C 12,9 °C 52 % 76 % 1011,6 hPa 0,0 l/m² 7,5 km/h (2 Bft) S-SO 153 ° 2 min 336 W/m² 8,8 °C 12,2 °C 11,3 km/h (2 Bft)
15.11.2022 12:08 23,4 °C 13,1 °C 53 % 76 % 1011,5 hPa 0,0 l/m² 3,9 km/h (1 Bft) SO 142 ° 2 min 320 W/m² 9,0 °C 13,1 °C 6,4 km/h (2 Bft)
15.11.2022 12:10 23,4 °C 13,0 °C 52 % 73 % 1011,5 hPa 0,0 l/m² 6,9 km/h (2 Bft) O-SO 102 ° 2 min 290 W/m² 8,3 °C 12,7 °C 9,7 km/h (2 Bft)
15.11.2022 12:11 23,4 °C 13,0 °C 52 % 74 % 1011,5 hPa 0,0 l/m² 7,6 km/h (2 Bft) O-SO 119 ° 1 min 281 W/m² 8,5 °C 12,2 °C 11,3 km/h (2 Bft)
15.11.2022 12:12 23,4 °C 13,0 °C 52 % 75 % 1011,5 hPa 0,0 l/m² 7,6 km/h (2 Bft) O 101 ° 1 min 292 W/m² 8,7 °C 12,2 °C 9,7 km/h (2 Bft)
15.11.2022 12:14 23,4 °C 12,9 °C 52 % 73 % 1011,4 hPa 0,0 l/m² 6,1 km/h (2 Bft) O-SO 104 ° 2 min 302 W/m² 8,2 °C 12,9 °C 6,4 km/h (2 Bft)
15.11.2022 12:16 23,4 °C 13,1 °C 53 % 74 % 1011,5 hPa 0,0 l/m² 7,7 km/h (2 Bft) O 98 ° 2 min 290 W/m² 8,6 °C 12,3 °C 11,3 km/h (2 Bft)
15.11.2022 12:18 23,4 °C 13,0 °C 53 % 73 % 1011,6 hPa 0,0 l/m² 7,0 km/h (2 Bft) O 91 ° 2 min 315 W/m² 8,3 °C 12,6 °C 9,7 km/h (2 Bft)
15.11.2022 12:20 23,4 °C 13,2 °C 52 % 75 % 1011,6 hPa 0,0 l/m² 6,9 km/h (2 Bft) O 100 ° 2 min 287 W/m² 8,9 °C 12,9 °C 11,3 km/h (2 Bft)
15.11.2022 12:22 23,4 °C 13,2 °C 53 % 74 % 1011,5 hPa 0,0 l/m² 3,9 km/h (1 Bft) O 101 ° 2 min 260 W/m² 8,7 °C 13,2 °C 6,4 km/h (2 Bft)
15.11.2022 12:23 23,4 °C 13,2 °C 53 % 75 % 1011,5 hPa 0,0 l/m² 5,1 km/h (1 Bft) O-SO 115 ° 1 min 255 W/m² 8,9 °C 13,2 °C 6,4 km/h (2 Bft)
15.11.2022 12:24 23,4 °C 13,2 °C 53 % 74 % 1011,5 hPa 0,0 l/m² 4,5 km/h (1 Bft) O-SO 115 ° 1 min 267 W/m² 8,7 °C 13,2 °C 6,4 km/h (2 Bft)
15.11.2022 12:26 23,4 °C 13,2 °C 53 % 74 % 1011,5 hPa 0,0 l/m² 7,4 km/h (2 Bft) O 101 ° 2 min 302 W/m² 8,7 °C 12,6 °C 11,3 km/h (2 Bft)
15.11.2022 12:28 23,4 °C 13,2 °C 53 % 74 % 1011,4 hPa 0,0 l/m² 7,2 km/h (2 Bft) O-SO 106 ° 2 min 327 W/m² 8,7 °C 12,7 °C 11,3 km/h (2 Bft)
15.11.2022 12:30 23,4 °C 13,3 °C 53 % 73 % 1011,4 hPa 0,0 l/m² 3,5 km/h (1 Bft) O-SO 107 ° 2 min 329 W/m² 8,6 °C 13,3 °C 6,4 km/h (2 Bft)
15.11.2022 12:32 23,4 °C 13,4 °C 53 % 73 % 1011,5 hPa 0,0 l/m² 5,0 km/h (1 Bft) O-SO 107 ° 2 min 325 W/m² 8,7 °C 13,4 °C 6,4 km/h (2 Bft)
15.11.2022 12:33 23,4 °C 13,4 °C 53 % 73 % 1011,5 hPa 0,0 l/m² 4,6 km/h (1 Bft) O-SO 107 ° 1 min 322 W/m² 8,7 °C 13,4 °C 6,4 km/h (2 Bft)
15.11.2022 12:34 23,4 °C 13,4 °C 53 % 75 % 1011,4 hPa 0,0 l/m² 6,1 km/h (2 Bft) O-SO 115 ° 1 min 318 W/m² 9,1 °C 13,4 °C 9,7 km/h (2 Bft)
15.11.2022 12:36 23,4 °C 13,4 °C 53 % 74 % 1011,3 hPa 0,0 l/m² 7,9 km/h (2 Bft) O-SO 120 ° 2 min 318 W/m² 8,9 °C 12,5 °C 11,3 km/h (2 Bft)
15.11.2022 12:38 23,4 °C 13,4 °C 53 % 73 % 1011,4 hPa 0,0 l/m² 6,7 km/h (2 Bft) O-SO 115 ° 2 min 269 W/m² 8,7 °C 13,2 °C 11,3 km/h (2 Bft)
15.11.2022 12:40 23,4 °C 13,4 °C 53 % 72 % 1011,4 hPa 0,0 l/m² 7,2 km/h (2 Bft) O-SO 109 ° 2 min 283 W/m² 8,5 °C 12,9 °C 11,3 km/h (2 Bft)
15.11.2022 12:42 23,4 °C 13,4 °C 53 % 72 % 1011,4 hPa 0,0 l/m² 7,9 km/h (2 Bft) O-SO 107 ° 2 min 276 W/m² 8,5 °C 12,5 °C 11,3 km/h (2 Bft)
15.11.2022 12:43 23,4 °C 13,4 °C 53 % 72 % 1011,4 hPa 0,0 l/m² 9,1 km/h (2 Bft) O-SO 109 ° 1 min 285 W/m² 8,5 °C 11,8 °C 11,3 km/h (2 Bft)
15.11.2022 12:46 23,4 °C 13,4 °C 53 % 73 % 1011,3 hPa 0,0 l/m² 7,4 km/h (2 Bft) O-SO 107 ° 3 min 308 W/m² 8,7 °C 12,8 °C 12,9 km/h (3 Bft)
15.11.2022 12:48 23,3 °C 13,5 °C 53 % 73 % 1011,3 hPa 0,0 l/m² 9,3 km/h (2 Bft) SO 128 ° 2 min 315 W/m² 8,8 °C 11,8 °C 11,3 km/h (2 Bft)
15.11.2022 12:50 23,4 °C 13,5 °C 53 % 72 % 1011,2 hPa 0,0 l/m² 8,6 km/h (2 Bft) O-SO 118 ° 2 min 315 W/m² 8,6 °C 12,2 °C 12,9 km/h (3 Bft)
15.11.2022 12:52 23,3 °C 13,6 °C 53 % 71 % 1011,2 hPa 0,0 l/m² 7,7 km/h (2 Bft) O-SO 112 ° 2 min 315 W/m² 8,4 °C 12,8 °C 11,3 km/h (2 Bft)
15.11.2022 12:53 23,3 °C 13,6 °C 53 % 71 % 1011,2 hPa 0,0 l/m² 4,8 km/h (1 Bft) O-SO 111 ° 1 min 315 W/m² 8,4 °C 13,6 °C 6,4 km/h (2 Bft)
15.11.2022 12:54 23,3 °C 13,6 °C 53 % 72 % 1011,2 hPa 0,0 l/m² 8,9 km/h (2 Bft) O 98 ° 1 min 315 W/m² 8,6 °C 12,1 °C 11,3 km/h (2 Bft)
15.11.2022 12:56 23,3 °C 13,8 °C 53 % 71 % 1011,2 hPa 0,0 l/m² 5,8 km/h (2 Bft) O 92 ° 2 min 315 W/m² 8,6 °C 13,8 °C 11,3 km/h (2 Bft)
15.11.2022 12:58 23,3 °C 14,0 °C 53 % 73 % 1011,3 hPa 0,0 l/m² 4,4 km/h (1 Bft) O 95 ° 2 min 316 W/m² 9,2 °C 14,0 °C 6,4 km/h (2 Bft)
15.11.2022 13:00 23,3 °C 14,1 °C 53 % 72 % 1011,1 hPa 0,0 l/m² 6,1 km/h (2 Bft) O-SO 108 ° 2 min 315 W/m² 9,1 °C 14,1 °C 9,7 km/h (2 Bft)
15.11.2022 13:02 23,3 °C 14,1 °C 53 % 73 % 1011,1 hPa 0,0 l/m² 4,7 km/h (1 Bft) O-SO 102 ° 2 min 315 W/m² 9,3 °C 14,1 °C 6,4 km/h (2 Bft)
15.11.2022 13:03 23,3 °C 14,1 °C 53 % 72 % 1011,1 hPa 0,0 l/m² 7,9 km/h (2 Bft) O 91 ° 1 min 313 W/m² 9,1 °C 13,2 °C 11,3 km/h (2 Bft)
15.11.2022 13:04 23,3 °C 14,1 °C 53 % 71 % 1011,1 hPa 0,0 l/m² 10,0 km/h (2 Bft) O 101 ° 1 min 313 W/m² 8,9 °C 12,1 °C 11,3 km/h (2 Bft)
15.11.2022 13:06 23,3 °C 14,0 °C 53 % 71 % 1011,0 hPa 0,0 l/m² 6,1 km/h (2 Bft) SO 128 ° 2 min 313 W/m² 8,8 °C 14,0 °C 9,7 km/h (2 Bft)
15.11.2022 13:08 23,3 °C 14,1 °C 53 % 73 % 1011,1 hPa 0,0 l/m² 3,7 km/h (1 Bft) SO 128 ° 2 min 309 W/m² 9,3 °C 14,1 °C 6,4 km/h (2 Bft)
15.11.2022 13:10 23,3 °C 14,1 °C 53 % 73 % 1011,1 hPa 0,0 l/m² 5,0 km/h (1 Bft) O 90 ° 2 min 308 W/m² 9,3 °C 14,1 °C 8,0 km/h (2 Bft)
15.11.2022 13:12 23,3 °C 14,1 °C 53 % 71 % 1011,0 hPa 0,0 l/m² 6,6 km/h (2 Bft) O-SO 106 ° 2 min 306 W/m² 8,9 °C 14,0 °C 9,7 km/h (2 Bft)
15.11.2022 13:13 23,3 °C 14,1 °C 53 % 70 % 1011,0 hPa 0,0 l/m² 5,5 km/h (2 Bft) O-SO 106 ° 1 min 304 W/m² 8,7 °C 14,1 °C 6,4 km/h (2 Bft)
15.11.2022 13:14 23,3 °C 14,1 °C 53 % 71 % 1011,0 hPa 0,0 l/m² 8,0 km/h (2 Bft) O-SO 112 ° 1 min 302 W/m² 8,9 °C 13,2 °C 9,7 km/h (2 Bft)
15.11.2022 13:16 23,3 °C 14,1 °C 53 % 71 % 1010,9 hPa 0,0 l/m² 5,4 km/h (2 Bft) O-SO 116 ° 2 min 301 W/m² 8,9 °C 14,1 °C 6,4 km/h (2 Bft)
15.11.2022 13:18 23,2 °C 14,2 °C 53 % 72 % 1010,9 hPa 0,0 l/m² 5,0 km/h (1 Bft) SO 126 ° 2 min 297 W/m² 9,2 °C 14,2 °C 8,0 km/h (2 Bft)
15.11.2022 13:20 23,2 °C 14,2 °C 53 % 71 % 1010,9 hPa 0,0 l/m² 5,7 km/h (2 Bft) SO 127 ° 2 min 294 W/m² 9,0 °C 14,2 °C 8,0 km/h (2 Bft)
15.11.2022 13:22 23,2 °C 14,2 °C 53 % 71 % 1010,9 hPa 0,0 l/m² 4,2 km/h (1 Bft) SO 126 ° 2 min 292 W/m² 9,0 °C 14,2 °C 8,0 km/h (2 Bft)
15.11.2022 13:23 23,2 °C 14,3 °C 53 % 72 % 1010,9 hPa 0,0 l/m² 4,4 km/h (1 Bft) SO 126 ° 1 min 288 W/m² 9,3 °C 14,3 °C 4,8 km/h (1 Bft)
15.11.2022 13:24 23,2 °C 14,3 °C 53 % 70 % 1011,0 hPa 0,0 l/m² 5,0 km/h (1 Bft) SO 125 ° 1 min 288 W/m² 8,9 °C 14,3 °C 6,4 km/h (2 Bft)
15.11.2022 13:26 23,2 °C 14,2 °C 53 % 70 % 1010,9 hPa 0,0 l/m² 7,3 km/h (2 Bft) O-SO 107 ° 2 min 288 W/m² 8,8 °C 13,7 °C 9,7 km/h (2 Bft)
15.11.2022 13:28 23,2 °C 14,3 °C 53 % 69 % 1010,9 hPa 0,0 l/m² 4,9 km/h (1 Bft) O-SO 105 ° 2 min 285 W/m² 8,7 °C 14,3 °C 9,7 km/h (2 Bft)
15.11.2022 13:30 23,2 °C 14,3 °C 53 % 69 % 1010,8 hPa 0,0 l/m² 3,5 km/h (1 Bft) O-SO 105 ° 2 min 283 W/m² 8,7 °C 14,3 °C 4,8 km/h (1 Bft)
15.11.2022 13:32 23,2 °C 14,4 °C 53 % 71 % 1010,7 hPa 0,0 l/m² 4,2 km/h (1 Bft) O 101 ° 2 min 279 W/m² 9,2 °C 14,4 °C 6,4 km/h (2 Bft)
15.11.2022 13:33 23,2 °C 14,4 °C 53 % 71 % 1010,7 hPa 0,0 l/m² 3,9 km/h (1 Bft) O-SO 103 ° 1 min 279 W/m² 9,2 °C 14,4 °C 6,4 km/h (2 Bft)
15.11.2022 13:34 23,1 °C 14,4 °C 53 % 70 % 1010,8 hPa 0,0 l/m² 3,3 km/h (1 Bft) O-SO 103 ° 1 min 278 W/m² 9,0 °C 14,4 °C 4,8 km/h (1 Bft)
15.11.2022 13:36 23,1 °C 14,4 °C 53 % 70 % 1010,7 hPa 0,0 l/m² 4,5 km/h (1 Bft) O-SO 103 ° 2 min 274 W/m² 9,0 °C 14,4 °C 9,7 km/h (2 Bft)
15.11.2022 13:38 23,1 °C 14,4 °C 53 % 70 % 1010,7 hPa 0,0 l/m² 3,1 km/h (1 Bft) O-SO 103 ° 2 min 272 W/m² 9,0 °C 14,4 °C 4,8 km/h (1 Bft)
15.11.2022 13:40 23,1 °C 14,4 °C 53 % 69 % 1010,7 hPa 0,0 l/m² 5,4 km/h (2 Bft) O-SO 122 ° 2 min 269 W/m² 8,8 °C 14,4 °C 9,7 km/h (2 Bft)
15.11.2022 13:42 23,1 °C 14,5 °C 53 % 70 % 1010,6 hPa 0,0 l/m² 4,4 km/h (1 Bft) O-SO 123 ° 2 min 267 W/m² 9,1 °C 14,5 °C 8,0 km/h (2 Bft)
15.11.2022 13:43 23,1 °C 14,5 °C 53 % 71 % 1010,6 hPa 0,0 l/m² 3,2 km/h (1 Bft) O-SO 123 ° 1 min 265 W/m² 9,3 °C 14,5 °C 4,8 km/h (1 Bft)
15.11.2022 13:44 23,1 °C 14,6 °C 53 % 70 % 1010,6 hPa 0,0 l/m² 6,4 km/h (2 Bft) SO 125 ° 1 min 264 W/m² 9,2 °C 14,6 °C 11,3 km/h (2 Bft)
15.11.2022 13:46 23,1 °C 14,6 °C 53 % 69 % 1010,5 hPa 0,0 l/m² 6,8 km/h (2 Bft) O-SO 123 ° 2 min 258 W/m² 9,0 °C 14,4 °C 9,7 km/h (2 Bft)
15.11.2022 13:48 23,0 °C 14,6 °C 53 % 68 % 1010,6 hPa 0,0 l/m² 7,8 km/h (2 Bft) O-SO 121 ° 2 min 257 W/m² 8,8 °C 13,8 °C 11,3 km/h (2 Bft)
15.11.2022 13:50 23,0 °C 14,6 °C 53 % 69 % 1010,5 hPa 0,0 l/m² 4,7 km/h (1 Bft) O-SO 113 ° 2 min 255 W/m² 9,0 °C 14,6 °C 6,4 km/h (2 Bft)
15.11.2022 13:52 23,0 °C 14,6 °C 53 % 69 % 1010,5 hPa 0,0 l/m² 4,0 km/h (1 Bft) O-SO 113 ° 2 min 250 W/m² 9,0 °C 14,6 °C 6,4 km/h (2 Bft)
15.11.2022 13:53 23,0 °C 14,7 °C 53 % 70 % 1010,5 hPa 0,0 l/m² 3,5 km/h (1 Bft) O-SO 113 ° 1 min 248 W/m² 9,3 °C 14,7 °C 4,8 km/h (1 Bft)
15.11.2022 13:54 23,0 °C 14,7 °C 53 % 70 % 1010,5 hPa 0,0 l/m² 4,0 km/h (1 Bft) O-SO 113 ° 1 min 246 W/m² 9,3 °C 14,7 °C 4,8 km/h (1 Bft)
15.11.2022 13:56 23,0 °C 14,8 °C 53 % 71 % 1010,4 hPa 0,0 l/m² 1,6 km/h (1 Bft) O-SO 113 ° 2 min 244 W/m² 9,6 °C 14,8 °C 4,8 km/h (1 Bft)
15.11.2022 13:58 23,0 °C 14,8 °C 53 % 69 % 1010,5 hPa 0,0 l/m² 2,0 km/h (1 Bft) S-SO 152 ° 2 min 239 W/m² 9,2 °C 14,8 °C 6,4 km/h (2 Bft)
15.11.2022 14:00 22,9 °C 14,8 °C 53 % 69 % 1010,5 hPa 0,0 l/m² 3,8 km/h (1 Bft) S-SO 153 ° 2 min 236 W/m² 9,2 °C 14,8 °C 6,4 km/h (2 Bft)
15.11.2022 14:02 22,9 °C 14,8 °C 53 % 68 % 1010,4 hPa 0,0 l/m² 2,9 km/h (1 Bft) S-SO 147 ° 2 min 234 W/m² 9,0 °C 14,8 °C 4,8 km/h (1 Bft)
15.11.2022 14:03 22,9 °C 14,8 °C 53 % 67 % 1010,4 hPa 0,0 l/m² 2,8 km/h (1 Bft) S-SO 147 ° 1 min 232 W/m² 8,7 °C 14,8 °C 3,2 km/h (1 Bft)
15.11.2022 14:04 22,9 °C 14,8 °C 53 % 69 % 1010,4 hPa 0,0 l/m² 2,9 km/h (1 Bft) S-SO 147 ° 1 min 229 W/m² 9,2 °C 14,8 °C 3,2 km/h (1 Bft)
15.11.2022 14:06 22,9 °C 14,9 °C 54 % 70 % 1010,4 hPa 0,0 l/m² 2,4 km/h (1 Bft) S-SO 147 ° 2 min 227 W/m² 9,5 °C 14,9 °C 4,8 km/h (1 Bft)
15.11.2022 14:08 22,9 °C 14,9 °C 54 % 69 % 1010,5 hPa 0,0 l/m² 1,2 km/h (1 Bft) S-SO 147 ° 2 min 214 W/m² 9,3 °C 14,9 °C 6,4 km/h (2 Bft)
15.11.2022 14:10 22,9 °C 14,8 °C 54 % 68 % 1010,4 hPa 0,0 l/m² 4,0 km/h (1 Bft) SO 140 ° 2 min 218 W/m² 9,0 °C 14,8 °C 6,4 km/h (2 Bft)
15.11.2022 14:12 22,9 °C 14,8 °C 54 % 68 % 1010,4 hPa 0,0 l/m² 4,2 km/h (1 Bft) SO 140 ° 2 min 214 W/m² 9,0 °C 14,8 °C 6,4 km/h (2 Bft)
15.11.2022 14:13 22,9 °C 14,9 °C 54 % 67 % 1010,4 hPa 0,0 l/m² 3,3 km/h (1 Bft) SO 140 ° 1 min 213 W/m² 8,8 °C 14,9 °C 4,8 km/h (1 Bft)
15.11.2022 14:15 22,8 °C 14,9 °C 54 % 68 % 1010,4 hPa 0,0 l/m² 2,2 km/h (1 Bft) SO 140 ° 2 min 209 W/m² 9,0 °C 14,9 °C 4,8 km/h (1 Bft)
15.11.2022 14:17 22,9 °C 14,9 °C 54 % 69 % 1010,4 hPa 0,0 l/m² 1,4 km/h (1 Bft) SO 140 ° 2 min 206 W/m² 9,3 °C 14,9 °C 4,8 km/h (1 Bft)
15.11.2022 14:19 22,8 °C 14,9 °C 54 % 68 % 1010,4 hPa 0,0 l/m² 0,0 km/h (0 Bft) SO 140 ° 2 min 206 W/m² 9,0 °C 14,9 °C 0,0 km/h (0 Bft)
15.11.2022 14:21 22,8 °C 14,9 °C 54 % 68 % 1010,4 hPa 0,0 l/m² 0,0 km/h (0 Bft) SO 140 ° 2 min 139 W/m² 9,0 °C 14,9 °C 0,0 km/h (0 Bft)
15.11.2022 14:22 22,8 °C 15,0 °C 54 % 68 % 1010,4 hPa 0,0 l/m² 0,0 km/h (0 Bft) SO 140 ° 1 min 156 W/m² 9,1 °C 15,0 °C 0,0 km/h (0 Bft)
15.11.2022 14:23 22,8 °C 15,0 °C 54 % 68 % 1010,4 hPa 0,0 l/m² 0,0 km/h (0 Bft) SO 140 ° 1 min 141 W/m² 9,1 °C 15,0 °C 0,0 km/h (0 Bft)
15.11.2022 14:25 22,8 °C 14,9 °C 54 % 66 % 1010,3 hPa 0,0 l/m² 2,8 km/h (1 Bft) S-SO 154 ° 2 min 63 W/m² 8,6 °C 14,9 °C 6,4 km/h (2 Bft)
15.11.2022 14:27 22,8 °C 14,7 °C 54 % 68 % 1010,4 hPa 0,0 l/m² 3,4 km/h (1 Bft) S-SO 154 ° 2 min 123 W/m² 8,9 °C 14,7 °C 6,4 km/h (2 Bft)
15.11.2022 14:29 22,8 °C 14,5 °C 54 % 67 % 1010,3 hPa 0,0 l/m² 8,2 km/h (2 Bft) S 172 ° 2 min 104 W/m² 8,4 °C 13,5 °C 14,5 km/h (3 Bft)
15.11.2022 14:31 22,8 °C 14,3 °C 54 % 67 % 1010,3 hPa 0,0 l/m² 6,6 km/h (2 Bft) S-SO 152 ° 2 min 86 W/m² 8,3 °C 14,2 °C 9,7 km/h (2 Bft)
15.11.2022 14:32 22,8 °C 14,3 °C 54 % 66 % 1010,3 hPa 0,0 l/m² 7,1 km/h (2 Bft) S-SO 151 ° 1 min 125 W/m² 8,0 °C 13,9 °C 9,7 km/h (2 Bft)
15.11.2022 14:33 22,8 °C 14,3 °C 54 % 67 % 1010,3 hPa 0,0 l/m² 6,8 km/h (2 Bft) S-SO 153 ° 1 min 148 W/m² 8,3 °C 14,1 °C 9,7 km/h (2 Bft)
15.11.2022 14:35 22,7 °C 14,3 °C 54 % 67 % 1010,2 hPa 0,0 l/m² 6,7 km/h (2 Bft) S-SO 151 ° 2 min 142 W/m² 8,3 °C 14,1 °C 9,7 km/h (2 Bft)
15.11.2022 14:37 22,8 °C 14,3 °C 54 % 67 % 1010,2 hPa 0,0 l/m² 7,4 km/h (2 Bft) S-SO 155 ° 2 min 167 W/m² 8,3 °C 13,7 °C 9,7 km/h (2 Bft)
15.11.2022 14:39 22,7 °C 14,2 °C 54 % 69 % 1010,2 hPa 0,0 l/m² 6,4 km/h (2 Bft) S-SO 156 ° 2 min 144 W/m² 8,6 °C 14,2 °C 8,0 km/h (2 Bft)
15.11.2022 14:41 22,7 °C 14,3 °C 54 % 69 % 1010,1 hPa 0,0 l/m² 7,5 km/h (2 Bft) S-SO 161 ° 2 min 160 W/m² 8,7 °C 13,7 °C 9,7 km/h (2 Bft)
15.11.2022 14:42 22,7 °C 14,3 °C 54 % 68 % 1010,1 hPa 0,0 l/m² 6,8 km/h (2 Bft) S-SO 152 ° 1 min 146 W/m² 8,5 °C 14,1 °C 8,0 km/h (2 Bft)
15.11.2022 14:43 22,7 °C 14,3 °C 54 % 68 % 1010,1 hPa 0,0 l/m² 5,7 km/h (2 Bft) S-SO 153 ° 1 min 137 W/m² 8,5 °C 14,3 °C 6,4 km/h (2 Bft)
15.11.2022 14:45 22,7 °C 14,3 °C 54 % 69 % 1010,2 hPa 0,0 l/m² 4,9 km/h (1 Bft) S-SO 153 ° 2 min 158 W/m² 8,7 °C 14,3 °C 6,4 km/h (2 Bft)
15.11.2022 14:47 22,7 °C 14,3 °C 54 % 69 % 1010,1 hPa 0,0 l/m² 5,2 km/h (1 Bft) S-SO 153 ° 2 min 151 W/m² 8,7 °C 14,3 °C 6,4 km/h (2 Bft)
15.11.2022 14:49 22,7 °C 14,3 °C 54 % 69 % 1010,1 hPa 0,0 l/m² 5,0 km/h (1 Bft) S-SO 152 ° 2 min 128 W/m² 8,7 °C 14,3 °C 6,4 km/h (2 Bft)
15.11.2022 14:51 22,7 °C 14,3 °C 54 % 70 % 1010,1 hPa 0,0 l/m² 3,8 km/h (1 Bft) S-SO 152 ° 2 min 76 W/m² 8,9 °C 14,3 °C 4,8 km/h (1 Bft)
15.11.2022 14:52 22,7 °C 14,3 °C 54 % 70 % 1010,1 hPa 0,0 l/m² 7,7 km/h (2 Bft) SO 128 ° 1 min 70 W/m² 8,9 °C 13,5 °C 11,3 km/h (2 Bft)
15.11.2022 14:53 22,7 °C 14,3 °C 54 % 69 % 1010,1 hPa 0,0 l/m² 7,4 km/h (2 Bft) SO 128 ° 1 min 77 W/m² 8,7 °C 13,7 °C 11,3 km/h (2 Bft)
15.11.2022 14:55 22,7 °C 14,2 °C 54 % 68 % 1010,0 hPa 0,0 l/m² 5,3 km/h (1 Bft) SO 125 ° 2 min 79 W/m² 8,4 °C 14,2 °C 11,3 km/h (2 Bft)
15.11.2022 14:57 22,7 °C 14,2 °C 54 % 69 % 1010,0 hPa 0,0 l/m² 3,7 km/h (1 Bft) SO 126 ° 2 min 53 W/m² 8,6 °C 14,2 °C 6,4 km/h (2 Bft)
15.11.2022 14:59 22,7 °C 14,2 °C 54 % 68 % 1010,0 hPa 0,0 l/m² 5,3 km/h (1 Bft) SO 127 ° 2 min 70 W/m² 8,4 °C 14,2 °C 8,0 km/h (2 Bft)
15.11.2022 15:01 22,7 °C 14,2 °C 54 % 68 % 1009,9 hPa 0,0 l/m² 8,1 km/h (2 Bft) SO 132 ° 2 min 63 W/m² 8,4 °C 13,2 °C 12,9 km/h (3 Bft)
15.11.2022 15:02 22,7 °C 14,1 °C 54 % 68 % 1009,9 hPa 0,0 l/m² 5,9 km/h (2 Bft) SO 131 ° 1 min 70 W/m² 8,3 °C 14,1 °C 8,0 km/h (2 Bft)
15.11.2022 15:03 22,7 °C 14,0 °C 54 % 68 % 1010,0 hPa 0,0 l/m² 5,3 km/h (1 Bft) SO 130 ° 1 min 77 W/m² 8,2 °C 14,0 °C 8,0 km/h (2 Bft)
15.11.2022 15:05 22,7 °C 13,9 °C 54 % 68 % 1009,9 hPa 0,0 l/m² 4,4 km/h (1 Bft) SO 128 ° 2 min 60 W/m² 8,1 °C 13,9 °C 6,4 km/h (2 Bft)
15.11.2022 15:07 22,6 °C 13,9 °C 54 % 68 % 1009,9 hPa 0,0 l/m² 4,1 km/h (1 Bft) SO 128 ° 0 min 49 W/m² 8,1 °C 13,9 °C 4,8 km/h (1 Bft)
15.11.2022 15:09 22,6 °C 13,8 °C 54 % 68 % 1009,9 hPa 0,0 l/m² 4,5 km/h (1 Bft) SO 128 ° 0 min 51 W/m² 8,0 °C 13,8 °C 6,4 km/h (2 Bft)
15.11.2022 15:11 22,6 °C 13,8 °C 54 % 68 % 1009,9 hPa 0,0 l/m² 5,6 km/h (2 Bft) SO 127 ° 0 min 51 W/m² 8,0 °C 13,8 °C 6,4 km/h (2 Bft)
15.11.2022 15:12 22,6 °C 13,8 °C 54 % 68 % 1009,9 hPa 0,0 l/m² 4,7 km/h (1 Bft) SO 126 ° 0 min 51 W/m² 8,0 °C 13,8 °C 8,0 km/h (2 Bft)
15.11.2022 15:13 22,6 °C 13,7 °C 54 % 69 % 1010,0 hPa 0,0 l/m² 3,9 km/h (1 Bft) SO 126 ° 0 min 47 W/m² 8,1 °C 13,7 °C 4,8 km/h (1 Bft)
15.11.2022 15:15 22,6 °C 13,6 °C 54 % 69 % 1009,8 hPa 0,0 l/m² 4,2 km/h (1 Bft) SO 126 ° 0 min 46 W/m² 8,0 °C 13,6 °C 4,8 km/h (1 Bft)
15.11.2022 15:17 22,6 °C 13,6 °C 54 % 69 % 1009,8 hPa 0,0 l/m² 3,5 km/h (1 Bft) SO 126 ° 0 min 46 W/m² 8,0 °C 13,6 °C 4,8 km/h (1 Bft)
15.11.2022 15:19 22,6 °C 13,6 °C 54 % 68 % 1009,8 hPa 0,0 l/m² 3,8 km/h (1 Bft) SO 126 ° 0 min 47 W/m² 7,8 °C 13,6 °C 6,4 km/h (2 Bft)
15.11.2022 15:21 22,6 °C 13,6 °C 54 % 68 % 1009,7 hPa 0,0 l/m² 3,8 km/h (1 Bft) SO 126 ° 0 min 47 W/m² 7,8 °C 13,6 °C 6,4 km/h (2 Bft)
15.11.2022 15:22 22,6 °C 13,6 °C 54 % 68 % 1009,7 hPa 0,0 l/m² 3,8 km/h (1 Bft) SO 126 ° 0 min 46 W/m² 7,8 °C 13,6 °C 4,8 km/h (1 Bft)
15.11.2022 15:23 22,6 °C 13,6 °C 54 % 68 % 1009,7 hPa 0,0 l/m² 3,5 km/h (1 Bft) SO 126 ° 0 min 44 W/m² 7,8 °C 13,6 °C 4,8 km/h (1 Bft)
15.11.2022 15:25 22,6 °C 13,6 °C 54 % 68 % 1009,7 hPa 0,0 l/m² 3,5 km/h (1 Bft) SO 126 ° 0 min 42 W/m² 7,8 °C 13,6 °C 4,8 km/h (1 Bft)
15.11.2022 15:27 22,6 °C 13,4 °C 54 % 69 % 1009,7 hPa 0,0 l/m² 3,6 km/h (1 Bft) SO 126 ° 0 min 40 W/m² 7,8 °C 13,4 °C 4,8 km/h (1 Bft)
15.11.2022 15:29 22,6 °C 13,4 °C 54 % 69 % 1009,7 hPa 0,0 l/m² 4,0 km/h (1 Bft) SO 126 ° 0 min 40 W/m² 7,8 °C 13,4 °C 4,8 km/h (1 Bft)
15.11.2022 15:31 22,6 °C 13,3 °C 54 % 69 % 1009,7 hPa 0,0 l/m² 3,5 km/h (1 Bft) SO 126 ° 0 min 42 W/m² 7,7 °C 13,3 °C 4,8 km/h (1 Bft)
15.11.2022 15:32 22,6 °C 13,3 °C 54 % 70 % 1009,7 hPa 0,0 l/m² 3,7 km/h (1 Bft) SO 126 ° 0 min 46 W/m² 7,9 °C 13,3 °C 4,8 km/h (1 Bft)
15.11.2022 15:33 22,6 °C 13,1 °C 54 % 70 % 1009,8 hPa 0,0 l/m² 3,9 km/h (1 Bft) SO 126 ° 0 min 49 W/m² 7,8 °C 13,1 °C 4,8 km/h (1 Bft)
15.11.2022 15:35 22,5 °C 13,0 °C 54 % 71 % 1009,7 hPa 0,0 l/m² 4,1 km/h (1 Bft) SO 126 ° 0 min 47 W/m² 7,9 °C 13,0 °C 6,4 km/h (2 Bft)
15.11.2022 15:37 22,6 °C 13,0 °C 54 % 71 % 1009,6 hPa 0,0 l/m² 4,4 km/h (1 Bft) SO 126 ° 0 min 42 W/m² 7,9 °C 13,0 °C 4,8 km/h (1 Bft)
15.11.2022 15:39 22,5 °C 12,8 °C 54 % 72 % 1009,5 hPa 0,0 l/m² 3,5 km/h (1 Bft) SO 126 ° 0 min 39 W/m² 7,9 °C 12,8 °C 4,8 km/h (1 Bft)
15.11.2022 15:41 22,5 °C 12,4 °C 54 % 74 % 1009,6 hPa 0,0 l/m² 2,5 km/h (1 Bft) SO 126 ° 0 min 30 W/m² 7,9 °C 12,4 °C 4,8 km/h (1 Bft)
15.11.2022 15:42 22,5 °C 12,3 °C 54 % 74 % 1009,6 hPa 0,0 l/m² 2,4 km/h (1 Bft) SO 126 ° 0 min 25 W/m² 7,8 °C 12,3 °C 3,2 km/h (1 Bft)
15.11.2022 15:43 22,6 °C 12,2 °C 54 % 75 % 1009,5 hPa 0,0 l/m² 3,6 km/h (1 Bft) SO 126 ° 0 min 21 W/m² 7,9 °C 12,2 °C 4,8 km/h (1 Bft)
15.11.2022 15:45 22,5 °C 12,1 °C 54 % 75 % 1009,5 hPa 0,0 l/m² 2,7 km/h (1 Bft) SO 126 ° 0 min 21 W/m² 7,8 °C 12,1 °C 4,8 km/h (1 Bft)
15.11.2022 15:46 22,5 °C 12,1 °C 54 % 76 % 1009,5 hPa 0,0 l/m² 3,2 km/h (1 Bft) SO 126 ° 0 min 21 W/m² 8,0 °C 12,1 °C 4,8 km/h (1 Bft)
15.11.2022 15:47 22,5 °C 12,0 °C 54 % 76 % 1009,5 hPa 0,0 l/m² 5,2 km/h (1 Bft) SO 126 ° 0 min 21 W/m² 7,9 °C 12,0 °C 6,4 km/h (2 Bft)
15.11.2022 15:49 22,5 °C 11,9 °C 54 % 76 % 1009,5 hPa 0,0 l/m² 4,7 km/h (1 Bft) SO 126 ° 0 min 21 W/m² 7,8 °C 11,9 °C 6,4 km/h (2 Bft)
15.11.2022 15:51 22,5 °C 12,1 °C 54 % 75 % 1009,5 hPa 0,0 l/m² 3,8 km/h (1 Bft) SO 126 ° 0 min 19 W/m² 7,8 °C 12,1 °C 4,8 km/h (1 Bft)
15.11.2022 15:52 22,5 °C 12,2 °C 54 % 74 % 1009,5 hPa 0,0 l/m² 4,8 km/h (1 Bft) SO 126 ° 0 min 18 W/m² 7,7 °C 12,2 °C 6,4 km/h (2 Bft)
15.11.2022 15:53 22,5 °C 12,2 °C 54 % 74 % 1009,5 hPa 0,0 l/m² 3,9 km/h (1 Bft) SO 126 ° 0 min 18 W/m² 7,7 °C 12,2 °C 4,8 km/h (1 Bft)
15.11.2022 15:55 22,5 °C 12,3 °C 54 % 73 % 1009,5 hPa 0,0 l/m² 2,6 km/h (1 Bft) SO 126 ° 0 min 14 W/m² 7,6 °C 12,3 °C 3,2 km/h (1 Bft)
15.11.2022 15:57 22,5 °C 12,4 °C 54 % 73 % 1009,4 hPa 0,0 l/m² 0,9 km/h (0 Bft) SO 126 ° 0 min 12 W/m² 7,7 °C 12,4 °C 3,2 km/h (1 Bft)
15.11.2022 15:59 22,5 °C 12,4 °C 54 % 73 % 1009,5 hPa 0,0 l/m² 0,0 km/h (0 Bft) SO 126 ° 0 min 12 W/m² 7,7 °C 12,4 °C 0,0 km/h (0 Bft)
15.11.2022 16:01 22,4 °C 12,5 °C 54 % 73 % 1009,5 hPa 0,0 l/m² 0,6 km/h (0 Bft) SO 126 ° 0 min 14 W/m² 7,8 °C 12,5 °C 1,6 km/h (1 Bft)
15.11.2022 16:02 22,4 °C 12,5 °C 54 % 73 % 1009,5 hPa 0,0 l/m² 1,2 km/h (1 Bft) SO 126 ° 0 min 14 W/m² 7,8 °C 12,5 °C 3,2 km/h (1 Bft)
15.11.2022 16:03 22,4 °C 12,5 °C 54 % 73 % 1009,4 hPa 0,0 l/m² 0,2 km/h (0 Bft) SO 126 ° 0 min 14 W/m² 7,8 °C 12,5 °C 1,6 km/h (1 Bft)
15.11.2022 16:05 22,4 °C 12,4 °C 55 % 73 % 1009,3 hPa 0,0 l/m² 1,1 km/h (1 Bft) SO 126 ° 0 min 14 W/m² 7,7 °C 12,4 °C 3,2 km/h (1 Bft)
15.11.2022 16:07 22,4 °C 12,2 °C 55 % 74 % 1009,4 hPa 0,0 l/m² 1,3 km/h (1 Bft) SO 126 ° 0 min 16 W/m² 7,7 °C 12,2 °C 3,2 km/h (1 Bft)
15.11.2022 16:09 22,4 °C 12,1 °C 55 % 75 % 1009,4 hPa 0,0 l/m² 1,3 km/h (1 Bft) SO 126 ° 0 min 14 W/m² 7,8 °C 12,1 °C 3,2 km/h (1 Bft)
15.11.2022 16:11 22,4 °C 11,9 °C 55 % 76 % 1009,4 hPa 0,0 l/m² 2,3 km/h (1 Bft) SO 126 ° 0 min 11 W/m² 7,8 °C 11,9 °C 4,8 km/h (1 Bft)
15.11.2022 16:12 22,4 °C 11,9 °C 55 % 76 % 1009,4 hPa 0,0 l/m² 1,3 km/h (1 Bft) SO 126 ° 0 min 11 W/m² 7,8 °C 11,9 °C 3,2 km/h (1 Bft)
15.11.2022 16:13 22,4 °C 11,9 °C 55 % 76 % 1009,4 hPa 0,0 l/m² 0,4 km/h (0 Bft) SO 126 ° 0 min 9 W/m² 7,8 °C 11,9 °C 1,6 km/h (1 Bft)
15.11.2022 16:15 22,4 °C 11,8 °C 55 % 76 % 1009,4 hPa 0,0 l/m² 0,5 km/h (0 Bft) SO 126 ° 0 min 7 W/m² 7,7 °C 11,8 °C 1,6 km/h (1 Bft)
15.11.2022 16:17 22,4 °C 11,8 °C 55 % 76 % 1009,4 hPa 0,0 l/m² 0,4 km/h (0 Bft) SO 126 ° 0 min 7 W/m² 7,7 °C 11,8 °C 1,6 km/h (1 Bft)
15.11.2022 16:19 22,4 °C 11,8 °C 55 % 76 % 1009,4 hPa 0,0 l/m² 0,0 km/h (0 Bft) SO 126 ° 0 min 5 W/m² 7,7 °C 11,8 °C 0,0 km/h (0 Bft)
15.11.2022 16:21 22,4 °C 11,3 °C 55 % 77 % 1009,3 hPa 0,0 l/m² 0,0 km/h (0 Bft) SO 126 ° 0 min 5 W/m² 7,4 °C 11,3 °C 0,0 km/h (0 Bft)
15.11.2022 16:22 22,4 °C 11,1 °C 55 % 78 % 1009,3 hPa 0,0 l/m² 0,0 km/h (0 Bft) SO 126 ° 0 min 5 W/m² 7,4 °C 11,1 °C 0,0 km/h (0 Bft)
15.11.2022 16:23 22,4 °C 10,8 °C 55 % 78 % 1009,4 hPa 0,0 l/m² 0,0 km/h (0 Bft) SO 126 ° 0 min 5 W/m² 7,1 °C 10,8 °C 0,0 km/h (0 Bft)
15.11.2022 16:25 22,4 °C 10,3 °C 55 % 80 % 1009,3 hPa 0,0 l/m² 0,0 km/h (0 Bft) SO 126 ° 0 min 0 W/m² 7,0 °C 10,3 °C 0,0 km/h (0 Bft)
15.11.2022 16:27 22,4 °C 10,0 °C 55 % 82 % 1009,3 hPa 0,0 l/m² 0,0 km/h (0 Bft) SO 126 ° 0 min 0 W/m² 7,1 °C 10,0 °C 0,0 km/h (0 Bft)
15.11.2022 16:29 22,4 °C 9,8 °C 55 % 82 % 1009,3 hPa 0,0 l/m² 0,0 km/h (0 Bft) SO 126 ° 0 min 0 W/m² 6,9 °C 9,8 °C 0,0 km/h (0 Bft)
15.11.2022 16:31 22,4 °C 9,7 °C 55 % 83 % 1009,3 hPa 0,0 l/m² 0,0 km/h (0 Bft) SO 126 ° 0 min 0 W/m² 7,0 °C 9,7 °C 0,0 km/h (0 Bft)
15.11.2022 16:32 22,4 °C 9,6 °C 55 % 83 % 1009,3 hPa 0,0 l/m² 0,0 km/h (0 Bft) SO 126 ° 0 min 0 W/m² 6,9 °C 9,6 °C 0,0 km/h (0 Bft)
15.11.2022 16:33 22,3 °C 9,6 °C 55 % 84 % 1009,2 hPa 0,0 l/m² 0,0 km/h (0 Bft) SO 126 ° 0 min 0 W/m² 7,0 °C 9,6 °C 0,0 km/h (0 Bft)
15.11.2022 16:35 22,3 °C 9,6 °C 55 % 84 % 1009,2 hPa 0,0 l/m² 0,0 km/h (0 Bft) SO 126 ° 0 min 0 W/m² 7,0 °C 9,6 °C 0,0 km/h (0 Bft)
15.11.2022 16:37 22,3 °C 9,5 °C 55 % 84 % 1009,2 hPa 0,0 l/m² 0,0 km/h (0 Bft) SO 126 ° 0 min 0 W/m² 6,9 °C 9,5 °C 0,0 km/h (0 Bft)
15.11.2022 16:39 22,3 °C 9,6 °C 55 % 84 % 1009,1 hPa 0,0 l/m² 1,1 km/h (1 Bft) SO 126 ° 0 min 0 W/m² 7,0 °C 9,6 °C 3,2 km/h (1 Bft)
15.11.2022 16:41 22,3 °C 9,7 °C 55 % 84 % 1009,2 hPa 0,0 l/m² 0,4 km/h (0 Bft) SO 126 ° 0 min 0 W/m² 7,1 °C 9,7 °C 1,6 km/h (1 Bft)
15.11.2022 16:42 22,3 °C 9,7 °C 55 % 84 % 1009,2 hPa 0,0 l/m² 0,0 km/h (0 Bft) SO 126 ° 0 min 0 W/m² 7,1 °C 9,7 °C 0,0 km/h (0 Bft)
15.11.2022 16:43 22,3 °C 9,8 °C 55 % 84 % 1009,2 hPa 0,0 l/m² 0,4 km/h (0 Bft) SO 126 ° 0 min 0 W/m² 7,2 °C 9,8 °C 1,6 km/h (1 Bft)
15.11.2022 16:45 22,3 °C 9,8 °C 55 % 82 % 1009,2 hPa 0,0 l/m² 0,5 km/h (0 Bft) SO 126 ° 0 min 0 W/m² 6,9 °C 9,8 °C 3,2 km/h (1 Bft)
15.11.2022 16:47 22,3 °C 9,4 °C 54 % 81 % 1009,1 hPa 0,0 l/m² 0,3 km/h (0 Bft) SO 126 ° 0 min 0 W/m² 6,3 °C 9,4 °C 3,2 km/h (1 Bft)
15.11.2022 16:49 22,3 °C 8,8 °C 53 % 81 % 1009,1 hPa 0,0 l/m² 1,5 km/h (1 Bft) SO 126 ° 0 min 0 W/m² 5,7 °C 8,8 °C 3,2 km/h (1 Bft)
15.11.2022 16:51 22,3 °C 8,6 °C 53 % 83 % 1009,0 hPa 0,0 l/m² 0,0 km/h (0 Bft) SO 126 ° 0 min 0 W/m² 5,9 °C 8,6 °C 0,0 km/h (0 Bft)
15.11.2022 16:52 22,3 °C 8,4 °C 53 % 83 % 1009,0 hPa 0,0 l/m² 0,2 km/h (0 Bft) SO 126 ° 0 min 0 W/m² 5,7 °C 8,4 °C 1,6 km/h (1 Bft)
15.11.2022 16:53 22,3 °C 8,3 °C 53 % 84 % 1009,1 hPa 0,0 l/m² 2,2 km/h (1 Bft) SO 126 ° 0 min 0 W/m² 5,8 °C 8,3 °C 3,2 km/h (1 Bft)
15.11.2022 16:55 22,3 °C 8,2 °C 53 % 85 % 1009,1 hPa 0,0 l/m² 0,7 km/h (0 Bft) SO 126 ° 0 min 0 W/m² 5,8 °C 8,2 °C 3,2 km/h (1 Bft)
15.11.2022 16:57 22,3 °C 8,2 °C 53 % 85 % 1009,1 hPa 0,0 l/m² 0,0 km/h (0 Bft) SO 126 ° 0 min 0 W/m² 5,8 °C 8,2 °C 1,6 km/h (1 Bft)
15.11.2022 16:59 22,3 °C 8,2 °C 54 % 86 % 1009,1 hPa 0,0 l/m² 0,3 km/h (0 Bft) SO 126 ° 0 min 0 W/m² 6,0 °C 8,2 °C 1,6 km/h (1 Bft)
15.11.2022 17:01 22,2 °C 8,2 °C 51 % 86 % 1009,0 hPa 0,0 l/m² 0,4 km/h (0 Bft) SO 126 ° 0 min 0 W/m² 6,0 °C 8,2 °C 1,6 km/h (1 Bft)
15.11.2022 17:02 22,2 °C 8,2 °C 51 % 86 % 1009,0 hPa 0,0 l/m² 0,0 km/h (0 Bft) SO 126 ° 0 min 0 W/m² 6,0 °C 8,2 °C 0,0 km/h (0 Bft)
15.11.2022 17:04 22,2 °C 8,2 °C 49 % 86 % 1009,1 hPa 0,0 l/m² 0,0 km/h (0 Bft) SO 126 ° 0 min 0 W/m² 6,0 °C 8,2 °C 0,0 km/h (0 Bft)
15.11.2022 17:06 22,2 °C 8,2 °C 49 % 86 % 1009,1 hPa 0,0 l/m² 0,0 km/h (0 Bft) SO 126 ° 0 min 0 W/m² 6,0 °C 8,2 °C 0,0 km/h (0 Bft)
15.11.2022 17:08 22,1 °C 8,2 °C 49 % 86 % 1009,1 hPa 0,0 l/m² 0,0 km/h (0 Bft) SO 126 ° 0 min 0 W/m² 6,0 °C 8,2 °C 0,0 km/h (0 Bft)
15.11.2022 17:10 22,1 °C 8,2 °C 49 % 86 % 1009,1 hPa 0,0 l/m² 0,0 km/h (0 Bft) SO 126 ° 0 min 0 W/m² 6,0 °C 8,2 °C 0,0 km/h (0 Bft)
15.11.2022 17:12 22,1 °C 8,1 °C 50 % 86 % 1009,1 hPa 0,0 l/m² 0,0 km/h (0 Bft) SO 126 ° 0 min 0 W/m² 5,9 °C 8,1 °C 0,0 km/h (0 Bft)
15.11.2022 17:13 22,1 °C 8,1 °C 50 % 86 % 1009,1 hPa 0,0 l/m² 0,0 km/h (0 Bft) SO 126 ° 0 min 0 W/m² 5,9 °C 8,1 °C 0,0 km/h (0 Bft)
15.11.2022 17:14 22,1 °C 8,0 °C 50 % 86 % 1009,1 hPa 0,0 l/m² 0,0 km/h (0 Bft) SO 126 ° 0 min 0 W/m² 5,8 °C 8,0 °C 0,0 km/h (0 Bft)
15.11.2022 17:16 22,1 °C 8,1 °C 50 % 87 % 1009,0 hPa 0,0 l/m² 0,0 km/h (0 Bft) SO 126 ° 0 min 0 W/m² 6,1 °C 8,1 °C 0,0 km/h (0 Bft)
15.11.2022 17:18 22,0 °C 8,0 °C 51 % 87 % 1009,0 hPa 0,0 l/m² 0,0 km/h (0 Bft) SO 126 ° 0 min 0 W/m² 6,0 °C 8,0 °C 0,0 km/h (0 Bft)
15.11.2022 17:20 22,0 °C 7,8 °C 51 % 86 % 1009,0 hPa 0,0 l/m² 0,0 km/h (0 Bft) SO 126 ° 0 min 0 W/m² 5,6 °C 7,8 °C 0,0 km/h (0 Bft)
15.11.2022 17:22 22,0 °C 7,7 °C 51 % 86 % 1009,0 hPa 0,0 l/m² 0,0 km/h (0 Bft) SO 126 ° 0 min 0 W/m² 5,5 °C 7,7 °C 0,0 km/h (0 Bft)
15.11.2022 17:23 22,0 °C 7,6 °C 51 % 87 % 1009,0 hPa 0,0 l/m² 0,0 km/h (0 Bft) SO 126 ° 0 min 0 W/m² 5,6 °C 7,6 °C 0,0 km/h (0 Bft)
15.11.2022 17:25 22,0 °C 7,6 °C 51 % 87 % 1009,1 hPa 0,0 l/m² 0,0 km/h (0 Bft) SO 126 ° 0 min 0 W/m² 5,6 °C 7,6 °C 0,0 km/h (0 Bft)
15.11.2022 17:27 22,0 °C 7,4 °C 51 % 88 % 1009,1 hPa 0,0 l/m² 0,0 km/h (0 Bft) SO 126 ° 0 min 0 W/m² 5,5 °C 7,4 °C 0,0 km/h (0 Bft)
15.11.2022 17:29 22,0 °C 7,3 °C 51 % 88 % 1009,0 hPa 0,0 l/m² 0,0 km/h (0 Bft) SO 126 ° 0 min 0 W/m² 5,4 °C 7,3 °C 0,0 km/h (0 Bft)
15.11.2022 17:31 22,0 °C 7,2 °C 51 % 88 % 1008,9 hPa 0,0 l/m² 0,0 km/h (0 Bft) SO 126 ° 0 min 0 W/m² 5,3 °C 7,2 °C 0,0 km/h (0 Bft)
15.11.2022 17:32 22,0 °C 7,2 °C 51 % 88 % 1008,9 hPa 0,0 l/m² 0,0 km/h (0 Bft) SO 126 ° 0 min 0 W/m² 5,3 °C 7,2 °C 0,0 km/h (0 Bft)
15.11.2022 17:33 22,0 °C 7,1 °C 52 % 88 % 1009,0 hPa 0,0 l/m² 0,0 km/h (0 Bft) SO 126 ° 0 min 0 W/m² 5,2 °C 7,1 °C 0,0 km/h (0 Bft)
15.11.2022 17:35 22,0 °C 7,0 °C 52 % 88 % 1009,0 hPa 0,0 l/m² 0,0 km/h (0 Bft) SO 126 ° 0 min 0 W/m² 5,2 °C 7,0 °C 0,0 km/h (0 Bft)
15.11.2022 17:37 21,9 °C 6,9 °C 52 % 89 % 1008,9 hPa 0,0 l/m² 0,0 km/h (0 Bft) SO 126 ° 0 min 0 W/m² 5,2 °C 6,9 °C 0,0 km/h (0 Bft)
15.11.2022 17:39 22,0 °C 6,8 °C 52 % 89 % 1008,9 hPa 0,0 l/m² 0,0 km/h (0 Bft) SO 126 ° 0 min 0 W/m² 5,1 °C 6,8 °C 0,0 km/h (0 Bft)
15.11.2022 17:41 22,0 °C 6,8 °C 52 % 90 % 1008,9 hPa 0,0 l/m² 0,0 km/h (0 Bft) SO 126 ° 0 min 0 W/m² 5,3 °C 6,8 °C 0,0 km/h (0 Bft)
15.11.2022 17:42 22,0 °C 6,8 °C 52 % 90 % 1008,9 hPa 0,0 l/m² 0,0 km/h (0 Bft) SO 126 ° 0 min 0 W/m² 5,3 °C 6,8 °C 0,0 km/h (0 Bft)
15.11.2022 17:43 21,9 °C 6,8 °C 52 % 90 % 1008,9 hPa 0,0 l/m² 0,0 km/h (0 Bft) SO 126 ° 0 min 0 W/m² 5,3 °C 6,8 °C 0,0 km/h (0 Bft)
15.11.2022 17:45 22,0 °C 6,8 °C 52 % 90 % 1008,8 hPa 0,0 l/m² 0,0 km/h (0 Bft) SO 126 ° 0 min 0 W/m² 5,3 °C 6,8 °C 0,0 km/h (0 Bft)
15.11.2022 17:47 21,9 °C 6,8 °C 52 % 90 % 1008,8 hPa 0,0 l/m² 0,0 km/h (0 Bft) SO 126 ° 0 min 0 W/m² 5,3 °C 6,8 °C 0,0 km/h (0 Bft)
15.11.2022 17:49 22,0 °C 6,9 °C 52 % 90 % 1008,8 hPa 0,0 l/m² 0,0 km/h (0 Bft) SO 126 ° 0 min 0 W/m² 5,4 °C 6,9 °C 0,0 km/h (0 Bft)
15.11.2022 17:51 21,9 °C 6,8 °C 52 % 90 % 1008,7 hPa 0,0 l/m² 0,0 km/h (0 Bft) SO 126 ° 0 min 0 W/m² 5,3 °C 6,8 °C 0,0 km/h (0 Bft)
15.11.2022 17:52 21,9 °C 6,8 °C 52 % 90 % 1008,7 hPa 0,0 l/m² 0,7 km/h (0 Bft) SO 126 ° 0 min 0 W/m² 5,3 °C 6,8 °C 1,6 km/h (1 Bft)
15.11.2022 17:53 22,0 °C 6,7 °C 52 % 90 % 1008,8 hPa 0,0 l/m² 0,5 km/h (0 Bft) SO 126 ° 0 min 0 W/m² 5,2 °C 6,7 °C 3,2 km/h (1 Bft)
15.11.2022 17:55 21,9 °C 6,6 °C 52 % 90 % 1008,8 hPa 0,0 l/m² 1,8 km/h (1 Bft) SO 126 ° 0 min 0 W/m² 5,1 °C 6,6 °C 3,2 km/h (1 Bft)
15.11.2022 17:57 22,0 °C 6,6 °C 52 % 90 % 1008,8 hPa 0,0 l/m² 1,4 km/h (1 Bft) SO 126 ° 0 min 0 W/m² 5,1 °C 6,6 °C 3,2 km/h (1 Bft)
15.11.2022 17:59 22,0 °C 6,6 °C 52 % 90 % 1008,8 hPa 0,0 l/m² 0,2 km/h (0 Bft) SO 126 ° 0 min 0 W/m² 5,1 °C 6,6 °C 1,6 km/h (1 Bft)
15.11.2022 18:01 21,9 °C 6,6 °C 52 % 91 % 1008,8 hPa 0,0 l/m² 0,0 km/h (0 Bft) SO 126 ° 0 min 0 W/m² 5,2 °C 6,6 °C 0,0 km/h (0 Bft)
15.11.2022 18:02 21,9 °C 6,6 °C 52 % 91 % 1008,8 hPa 0,0 l/m² 0,0 km/h (0 Bft) SO 126 ° 0 min 0 W/m² 5,2 °C 6,6 °C 0,0 km/h (0 Bft)
15.11.2022 18:03 22,0 °C 6,6 °C 52 % 91 % 1008,8 hPa 0,0 l/m² 0,0 km/h (0 Bft) SO 126 ° 0 min 0 W/m² 5,2 °C 6,6 °C 0,0 km/h (0 Bft)
15.11.2022 18:05 21,9 °C 6,6 °C 52 % 91 % 1008,8 hPa 0,0 l/m² 0,0 km/h (0 Bft) SO 126 ° 0 min 0 W/m² 5,2 °C 6,6 °C 0,0 km/h (0 Bft)
15.11.2022 18:07 21,9 °C 6,7 °C 52 % 91 % 1008,8 hPa 0,0 l/m² 0,0 km/h (0 Bft) SO 126 ° 0 min 0 W/m² 5,3 °C 6,7 °C 0,0 km/h (0 Bft)
15.11.2022 18:09 21,9 °C 6,7 °C 53 % 91 % 1008,9 hPa 0,0 l/m² 0,0 km/h (0 Bft) SO 126 ° 0 min 0 W/m² 5,3 °C 6,7 °C 0,0 km/h (0 Bft)
15.11.2022 18:11 22,0 °C 6,6 °C 53 % 91 % 1008,8 hPa 0,0 l/m² 0,0 km/h (0 Bft) SO 126 ° 0 min 0 W/m² 5,2 °C 6,6 °C 0,0 km/h (0 Bft)
15.11.2022 18:12 22,0 °C 6,6 °C 53 % 91 % 1008,8 hPa 0,0 l/m² 0,0 km/h (0 Bft) SO 126 ° 0 min 0 W/m² 5,2 °C 6,6 °C 0,0 km/h (0 Bft)
15.11.2022 18:13 22,0 °C 6,6 °C 53 % 91 % 1008,8 hPa 0,0 l/m² 0,0 km/h (0 Bft) SO 126 ° 0 min 0 W/m² 5,2 °C 6,6 °C 0,0 km/h (0 Bft)
15.11.2022 18:15 22,0 °C 6,4 °C 53 % 90 % 1008,9 hPa 0,0 l/m² 0,0 km/h (0 Bft) SO 126 ° 0 min 0 W/m² 4,9 °C 6,4 °C 0,0 km/h (0 Bft)
15.11.2022 18:16 21,9 °C 6,4 °C 53 % 90 % 1008,8 hPa 0,0 l/m² 0,0 km/h (0 Bft) SO 126 ° 0 min 0 W/m² 4,9 °C 6,4 °C 0,0 km/h (0 Bft)
15.11.2022 18:18 21,9 °C 6,3 °C 53 % 90 % 1008,8 hPa 0,0 l/m² 0,0 km/h (0 Bft) SO 126 ° 0 min 0 W/m² 4,8 °C 6,3 °C 0,0 km/h (0 Bft)
15.11.2022 18:20 21,9 °C 6,2 °C 53 % 90 % 1008,8 hPa 0,0 l/m² 0,0 km/h (0 Bft) SO 126 ° 0 min 0 W/m² 4,7 °C 6,2 °C 0,0 km/h (0 Bft)
15.11.2022 18:22 21,9 °C 6,1 °C 53 % 90 % 1008,8 hPa 0,0 l/m² 0,0 km/h (0 Bft) SO 126 ° 0 min 0 W/m² 4,6 °C 6,1 °C 0,0 km/h (0 Bft)
15.11.2022 18:23 21,9 °C 6,1 °C 53 % 90 % 1008,8 hPa 0,0 l/m² 0,0 km/h (0 Bft) SO 126 ° 0 min 0 W/m² 4,6 °C 6,1 °C 0,0 km/h (0 Bft)
15.11.2022 18:24 21,9 °C 6,1 °C 53 % 91 % 1008,8 hPa 0,0 l/m² 0,0 km/h (0 Bft) SO 126 ° 0 min 0 W/m² 4,7 °C 6,1 °C 0,0 km/h (0 Bft)
15.11.2022 18:26 21,9 °C 6,1 °C 53 % 91 % 1008,7 hPa 0,0 l/m² 0,0 km/h (0 Bft) SO 126 ° 0 min 0 W/m² 4,7 °C 6,1 °C 0,0 km/h (0 Bft)
15.11.2022 18:28 22,0 °C 6,1 °C 53 % 91 % 1008,7 hPa 0,0 l/m² 0,0 km/h (0 Bft) SO 126 ° 0 min 0 W/m² 4,7 °C 6,1 °C 0,0 km/h (0 Bft)
15.11.2022 18:30 22,0 °C 6,1 °C 53 % 91 % 1008,7 hPa 0,0 l/m² 0,0 km/h (0 Bft) SO 126 ° 0 min 0 W/m² 4,7 °C 6,1 °C 0,0 km/h (0 Bft)
15.11.2022 18:32 21,9 °C 6,1 °C 53 % 91 % 1008,7 hPa 0,0 l/m² 0,0 km/h (0 Bft) SO 126 ° 0 min 0 W/m² 4,7 °C 6,1 °C 0,0 km/h (0 Bft)
15.11.2022 18:33 21,9 °C 6,1 °C 53 % 91 % 1008,7 hPa 0,0 l/m² 0,0 km/h (0 Bft) SO 126 ° 0 min 0 W/m² 4,7 °C 6,1 °C 0,0 km/h (0 Bft)
15.11.2022 18:34 21,9 °C 6,1 °C 53 % 91 % 1008,6 hPa 0,0 l/m² 0,0 km/h (0 Bft) SO 126 ° 0 min 0 W/m² 4,7 °C 6,1 °C 0,0 km/h (0 Bft)
15.11.2022 18:36 21,9 °C 6,1 °C 53 % 91 % 1008,7 hPa 0,0 l/m² 0,0 km/h (0 Bft) SO 126 ° 0 min 0 W/m² 4,7 °C 6,1 °C 0,0 km/h (0 Bft)
15.11.2022 18:38 21,9 °C 6,1 °C 53 % 91 % 1008,7 hPa 0,0 l/m² 0,0 km/h (0 Bft) SO 126 ° 0 min 0 W/m² 4,7 °C 6,1 °C 0,0 km/h (0 Bft)
15.11.2022 18:40 22,0 °C 6,1 °C 53 % 91 % 1008,6 hPa 0,0 l/m² 0,0 km/h (0 Bft) SO 126 ° 0 min 0 W/m² 4,7 °C 6,1 °C 0,0 km/h (0 Bft)
15.11.2022 18:42 21,9 °C 6,1 °C 54 % 91 % 1008,6 hPa 0,0 l/m² 1,5 km/h (1 Bft) SO 126 ° 0 min 0 W/m² 4,7 °C 6,1 °C 4,8 km/h (1 Bft)
15.11.2022 18:43 21,9 °C 6,1 °C 54 % 91 % 1008,6 hPa 0,0 l/m² 1,8 km/h (1 Bft) SO 126 ° 0 min 0 W/m² 4,7 °C 6,1 °C 3,2 km/h (1 Bft)
15.11.2022 18:46 22,0 °C 6,1 °C 54 % 91 % 1008,7 hPa 0,0 l/m² 1,5 km/h (1 Bft) SO 126 ° 0 min 0 W/m² 4,7 °C 6,1 °C 3,2 km/h (1 Bft)
15.11.2022 18:48 22,0 °C 6,1 °C 54 % 91 % 1008,7 hPa 0,0 l/m² 0,3 km/h (0 Bft) SO 126 ° 0 min 0 W/m² 4,7 °C 6,1 °C 1,6 km/h (1 Bft)
15.11.2022 18:50 21,9 °C 6,2 °C 54 % 92 % 1008,6 hPa 0,0 l/m² 0,0 km/h (0 Bft) SO 126 ° 0 min 0 W/m² 5,0 °C 6,2 °C 0,0 km/h (0 Bft)
15.11.2022 18:52 22,0 °C 6,2 °C 54 % 92 % 1008,6 hPa 0,0 l/m² 0,0 km/h (0 Bft) SO 126 ° 0 min 0 W/m² 5,0 °C 6,2 °C 0,0 km/h (0 Bft)
15.11.2022 18:53 22,0 °C 6,3 °C 54 % 92 % 1008,6 hPa 0,0 l/m² 0,0 km/h (0 Bft) SO 126 ° 0 min 0 W/m² 5,1 °C 6,3 °C 0,0 km/h (0 Bft)
15.11.2022 18:54 22,0 °C 6,2 °C 54 % 92 % 1008,5 hPa 0,0 l/m² 0,0 km/h (0 Bft) SO 126 ° 0 min 0 W/m² 5,0 °C 6,2 °C 0,0 km/h (0 Bft)
15.11.2022 18:56 21,9 °C 6,3 °C 54 % 92 % 1008,5 hPa 0,0 l/m² 1,3 km/h (1 Bft) SO 126 ° 0 min 0 W/m² 5,1 °C 6,3 °C 4,8 km/h (1 Bft)
15.11.2022 18:58 22,0 °C 6,4 °C 54 % 92 % 1008,5 hPa 0,0 l/m² 2,8 km/h (1 Bft) SO 126 ° 0 min 0 W/m² 5,2 °C 6,4 °C 3,2 km/h (1 Bft)
15.11.2022 19:00 22,0 °C 6,4 °C 55 % 92 % 1008,5 hPa 0,0 l/m² 2,5 km/h (1 Bft) SO 126 ° 0 min 0 W/m² 5,2 °C 6,4 °C 4,8 km/h (1 Bft)
15.11.2022 19:02 22,0 °C 6,5 °C 55 % 92 % 1008,5 hPa 0,0 l/m² 2,9 km/h (1 Bft) SO 126 ° 0 min 0 W/m² 5,3 °C 6,5 °C 4,8 km/h (1 Bft)
15.11.2022 19:03 22,0 °C 6,6 °C 55 % 92 % 1008,5 hPa 0,0 l/m² 2,2 km/h (1 Bft) SO 126 ° 0 min 0 W/m² 5,4 °C 6,6 °C 3,2 km/h (1 Bft)
15.11.2022 19:04 22,0 °C 6,6 °C 55 % 92 % 1008,6 hPa 0,0 l/m² 2,4 km/h (1 Bft) SO 126 ° 0 min 0 W/m² 5,4 °C 6,6 °C 3,2 km/h (1 Bft)
15.11.2022 19:06 22,0 °C 6,7 °C 55 % 92 % 1008,5 hPa 0,0 l/m² 0,2 km/h (0 Bft) SO 126 ° 0 min 0 W/m² 5,5 °C 6,7 °C 1,6 km/h (1 Bft)
15.11.2022 19:08 22,0 °C 6,8 °C 55 % 92 % 1008,6 hPa 0,0 l/m² 0,8 km/h (0 Bft) SO 126 ° 0 min 0 W/m² 5,6 °C 6,8 °C 1,6 km/h (1 Bft)
15.11.2022 19:10 22,0 °C 6,8 °C 55 % 92 % 1008,5 hPa 0,0 l/m² 0,2 km/h (0 Bft) SO 126 ° 0 min 0 W/m² 5,6 °C 6,8 °C 1,6 km/h (1 Bft)
15.11.2022 19:12 22,0 °C 6,9 °C 55 % 92 % 1008,5 hPa 0,0 l/m² 2,5 km/h (1 Bft) SO 126 ° 0 min 0 W/m² 5,7 °C 6,9 °C 3,2 km/h (1 Bft)
15.11.2022 19:13 22,0 °C 6,9 °C 55 % 92 % 1008,5 hPa 0,0 l/m² 2,6 km/h (1 Bft) SO 126 ° 0 min 0 W/m² 5,7 °C 6,9 °C 3,2 km/h (1 Bft)
15.11.2022 19:14 22,0 °C 6,9 °C 55 % 92 % 1008,6 hPa 0,0 l/m² 2,5 km/h (1 Bft) SO 126 ° 0 min 0 W/m² 5,7 °C 6,9 °C 3,2 km/h (1 Bft)
15.11.2022 19:16 22,0 °C 7,1 °C 55 % 92 % 1008,4 hPa 0,0 l/m² 2,7 km/h (1 Bft) SO 126 ° 0 min 0 W/m² 5,9 °C 7,1 °C 3,2 km/h (1 Bft)
15.11.2022 19:18 21,9 °C 7,1 °C 55 % 92 % 1008,5 hPa 0,0 l/m² 2,5 km/h (1 Bft) SO 126 ° 0 min 0 W/m² 5,9 °C 7,1 °C 3,2 km/h (1 Bft)
15.11.2022 19:20 22,0 °C 7,2 °C 55 % 92 % 1008,4 hPa 0,0 l/m² 1,5 km/h (1 Bft) SO 126 ° 0 min 0 W/m² 6,0 °C 7,2 °C 4,8 km/h (1 Bft)
15.11.2022 19:22 22,0 °C 7,3 °C 55 % 92 % 1008,4 hPa 0,0 l/m² 1,4 km/h (1 Bft) SO 126 ° 0 min 0 W/m² 6,1 °C 7,3 °C 3,2 km/h (1 Bft)
15.11.2022 19:23 22,0 °C 7,4 °C 55 % 92 % 1008,4 hPa 0,0 l/m² 1,3 km/h (1 Bft) SO 126 ° 0 min 0 W/m² 6,2 °C 7,4 °C 3,2 km/h (1 Bft)
15.11.2022 19:24 22,0 °C 7,4 °C 55 % 92 % 1008,5 hPa 0,0 l/m² 2,4 km/h (1 Bft) SO 126 ° 0 min 0 W/m² 6,2 °C 7,4 °C 4,8 km/h (1 Bft)
15.11.2022 19:26 22,0 °C 7,4 °C 55 % 92 % 1008,4 hPa 0,0 l/m² 1,3 km/h (1 Bft) SO 126 ° 0 min 0 W/m² 6,2 °C 7,4 °C 3,2 km/h (1 Bft)
15.11.2022 19:28 21,9 °C 7,5 °C 55 % 91 % 1008,3 hPa 0,0 l/m² 2,9 km/h (1 Bft) SO 126 ° 0 min 0 W/m² 6,1 °C 7,5 °C 4,8 km/h (1 Bft)
15.11.2022 19:30 22,0 °C 7,6 °C 55 % 91 % 1008,3 hPa 0,0 l/m² 2,7 km/h (1 Bft) SO 126 ° 0 min 0 W/m² 6,2 °C 7,6 °C 4,8 km/h (1 Bft)
15.11.2022 19:32 22,0 °C 7,5 °C 55 % 91 % 1008,2 hPa 0,0 l/m² 3,5 km/h (1 Bft) SO 126 ° 0 min 0 W/m² 6,1 °C 7,5 °C 4,8 km/h (1 Bft)
15.11.2022 19:33 22,0 °C 7,5 °C 55 % 91 % 1008,2 hPa 0,0 l/m² 3,8 km/h (1 Bft) SO 126 ° 0 min 0 W/m² 6,1 °C 7,5 °C 4,8 km/h (1 Bft)
15.11.2022 19:34 21,9 °C 7,6 °C 55 % 91 % 1008,2 hPa 0,0 l/m² 3,3 km/h (1 Bft) SO 126 ° 0 min 0 W/m² 6,2 °C 7,6 °C 4,8 km/h (1 Bft)
15.11.2022 19:36 22,0 °C 7,7 °C 55 % 91 % 1008,2 hPa 0,0 l/m² 4,2 km/h (1 Bft) SO 126 ° 0 min 0 W/m² 6,3 °C 7,7 °C 6,4 km/h (2 Bft)
15.11.2022 19:38 21,9 °C 7,8 °C 55 % 91 % 1008,2 hPa 0,0 l/m² 3,6 km/h (1 Bft) SO 126 ° 0 min 0 W/m² 6,4 °C 7,8 °C 6,4 km/h (2 Bft)
15.11.2022 19:40 22,0 °C 7,8 °C 55 % 91 % 1008,2 hPa 0,0 l/m² 3,2 km/h (1 Bft) O-SO 110 ° 0 min 0 W/m² 6,4 °C 7,8 °C 6,4 km/h (2 Bft)
15.11.2022 19:42 22,0 °C 7,8 °C 55 % 91 % 1008,2 hPa 0,0 l/m² 4,2 km/h (1 Bft) O 94 ° 0 min 0 W/m² 6,4 °C 7,8 °C 6,4 km/h (2 Bft)
15.11.2022 19:43 22,0 °C 7,8 °C 55 % 91 % 1008,2 hPa 0,0 l/m² 2,7 km/h (1 Bft) O 94 ° 0 min 0 W/m² 6,4 °C 7,8 °C 3,2 km/h (1 Bft)
15.11.2022 19:44 22,0 °C 7,8 °C 55 % 91 % 1008,2 hPa 0,0 l/m² 1,0 km/h (0 Bft) O 94 ° 0 min 0 W/m² 6,4 °C 7,8 °C 3,2 km/h (1 Bft)
15.11.2022 19:46 22,0 °C 7,6 °C 55 % 90 % 1008,2 hPa 0,0 l/m² 0,6 km/h (0 Bft) O 94 ° 0 min 0 W/m² 6,1 °C 7,6 °C 1,6 km/h (1 Bft)
15.11.2022 19:48 22,1 °C 7,4 °C 55 % 90 % 1008,2 hPa 0,0 l/m² 0,1 km/h (0 Bft) O 94 ° 0 min 0 W/m² 5,9 °C 7,4 °C 1,6 km/h (1 Bft)
15.11.2022 19:50 22,0 °C 7,4 °C 55 % 90 % 1008,2 hPa 0,0 l/m² 0,0 km/h (0 Bft) O 94 ° 0 min 0 W/m² 5,9 °C 7,4 °C 0,0 km/h (0 Bft)
15.11.2022 19:52 22,1 °C 7,4 °C 55 % 91 % 1008,2 hPa 0,0 l/m² 0,0 km/h (0 Bft) O 94 ° 0 min 0 W/m² 6,0 °C 7,4 °C 0,0 km/h (0 Bft)
15.11.2022 19:53 22,1 °C 7,4 °C 55 % 91 % 1008,2 hPa 0,0 l/m² 0,0 km/h (0 Bft) O 94 ° 0 min 0 W/m² 6,0 °C 7,4 °C 0,0 km/h (0 Bft)
15.11.2022 19:54 22,1 °C 7,4 °C 55 % 91 % 1008,3 hPa 0,0 l/m² 0,2 km/h (0 Bft) O 95 ° 0 min 0 W/m² 6,0 °C 7,4 °C 1,6 km/h (1 Bft)
15.11.2022 19:56 22,1 °C 7,4 °C 55 % 91 % 1008,3 hPa 0,0 l/m² 3,0 km/h (1 Bft) O-SO 109 ° 0 min 0 W/m² 6,0 °C 7,4 °C 4,8 km/h (1 Bft)
15.11.2022 19:58 22,1 °C 7,5 °C 55 % 91 % 1008,3 hPa 0,0 l/m² 2,0 km/h (1 Bft) O-SO 109 ° 0 min 0 W/m² 6,1 °C 7,5 °C 3,2 km/h (1 Bft)
15.11.2022 20:00 22,1 °C 7,6 °C 55 % 91 % 1008,2 hPa 0,0 l/m² 0,5 km/h (0 Bft) O-SO 109 ° 0 min 0 W/m² 6,2 °C 7,6 °C 3,2 km/h (1 Bft)
15.11.2022 20:02 22,1 °C 7,5 °C 55 % 91 % 1008,2 hPa 0,0 l/m² 0,0 km/h (0 Bft) O-SO 109 ° 0 min 0 W/m² 6,1 °C 7,5 °C 0,0 km/h (0 Bft)
15.11.2022 20:03 22,1 °C 7,6 °C 55 % 91 % 1008,2 hPa 0,0 l/m² 0,1 km/h (0 Bft) O-SO 109 ° 0 min 0 W/m² 6,2 °C 7,6 °C 1,6 km/h (1 Bft)
15.11.2022 20:04 22,1 °C 7,6 °C 55 % 91 % 1008,2 hPa 0,0 l/m² 0,1 km/h (0 Bft) O-SO 109 ° 0 min 0 W/m² 6,2 °C 7,6 °C 1,6 km/h (1 Bft)
15.11.2022 20:06 22,2 °C 7,6 °C 55 % 91 % 1008,2 hPa 0,0 l/m² 1,8 km/h (1 Bft) O-SO 109 ° 0 min 0 W/m² 6,2 °C 7,6 °C 3,2 km/h (1 Bft)
15.11.2022 20:07 22,2 °C 7,4 °C 55 % 91 % 1008,1 hPa 0,0 l/m² 3,5 km/h (1 Bft) O-SO 109 ° 0 min 0 W/m² 6,0 °C 7,4 °C 4,8 km/h (1 Bft)
15.11.2022 20:08 22,2 °C 7,4 °C 55 % 91 % 1008,1 hPa 0,0 l/m² 3,4 km/h (1 Bft) O-SO 109 ° 0 min 0 W/m² 6,0 °C 7,4 °C 4,8 km/h (1 Bft)
15.11.2022 20:10 22,2 °C 7,4 °C 55 % 91 % 1008,1 hPa 0,0 l/m² 3,3 km/h (1 Bft) O-SO 109 ° 0 min 0 W/m² 6,0 °C 7,4 °C 4,8 km/h (1 Bft)
15.11.2022 20:12 22,2 °C 7,4 °C 55 % 91 % 1008,0 hPa 0,0 l/m² 2,6 km/h (1 Bft) O-SO 109 ° 0 min 0 W/m² 6,0 °C 7,4 °C 4,8 km/h (1 Bft)
15.11.2022 20:13 22,2 °C 7,4 °C 55 % 91 % 1008,0 hPa 0,0 l/m² 2,7 km/h (1 Bft) O-SO 109 ° 0 min 0 W/m² 6,0 °C 7,4 °C 3,2 km/h (1 Bft)
15.11.2022 20:14 22,2 °C 7,3 °C 55 % 91 % 1007,9 hPa 0,0 l/m² 2,4 km/h (1 Bft) O-SO 109 ° 0 min 0 W/m² 5,9 °C 7,3 °C 3,2 km/h (1 Bft)
15.11.2022 20:16 22,2 °C 7,2 °C 55 % 90 % 1008,0 hPa 0,0 l/m² 0,5 km/h (0 Bft) O-SO 109 ° 0 min 0 W/m² 5,7 °C 7,2 °C 1,6 km/h (1 Bft)
15.11.2022 20:18 22,2 °C 7,2 °C 55 % 90 % 1007,9 hPa 0,0 l/m² 1,1 km/h (1 Bft) O-SO 109 ° 0 min 0 W/m² 5,7 °C 7,2 °C 3,2 km/h (1 Bft)
15.11.2022 20:20 22,2 °C 7,1 °C 55 % 91 % 1008,0 hPa 0,0 l/m² 2,8 km/h (1 Bft) O-SO 109 ° 0 min 0 W/m² 5,7 °C 7,1 °C 4,8 km/h (1 Bft)
15.11.2022 20:22 22,2 °C 7,2 °C 55 % 92 % 1008,0 hPa 0,0 l/m² 3,8 km/h (1 Bft) O-SO 106 ° 0 min 0 W/m² 6,0 °C 7,2 °C 4,8 km/h (1 Bft)
15.11.2022 20:23 22,2 °C 7,3 °C 55 % 92 % 1008,0 hPa 0,0 l/m² 2,9 km/h (1 Bft) O-SO 106 ° 0 min 0 W/m² 6,1 °C 7,3 °C 3,2 km/h (1 Bft)
15.11.2022 20:24 22,2 °C 7,4 °C 55 % 92 % 1008,0 hPa 0,0 l/m² 1,9 km/h (1 Bft) O-SO 106 ° 0 min 0 W/m² 6,2 °C 7,4 °C 3,2 km/h (1 Bft)
15.11.2022 20:26 22,2 °C 7,6 °C 55 % 92 % 1007,9 hPa 0,0 l/m² 1,5 km/h (1 Bft) O-SO 106 ° 0 min 0 W/m² 6,4 °C 7,6 °C 3,2 km/h (1 Bft)
15.11.2022 20:28 22,2 °C 7,4 °C 55 % 91 % 1008,0 hPa 0,0 l/m² 0,0 km/h (0 Bft) O-SO 106 ° 0 min 0 W/m² 6,0 °C 7,4 °C 0,0 km/h (0 Bft)
15.11.2022 20:30 22,2 °C 7,4 °C 55 % 91 % 1008,0 hPa 0,0 l/m² 0,0 km/h (0 Bft) O-SO 106 ° 0 min 0 W/m² 6,0 °C 7,4 °C 0,0 km/h (0 Bft)
15.11.2022 20:32 22,2 °C 7,3 °C 55 % 91 % 1007,9 hPa 0,0 l/m² 0,0 km/h (0 Bft) O-SO 106 ° 0 min 0 W/m² 5,9 °C 7,3 °C 0,0 km/h (0 Bft)
15.11.2022 20:33 22,2 °C 7,3 °C 55 % 91 % 1007,9 hPa 0,0 l/m² 0,0 km/h (0 Bft) O-SO 106 ° 0 min 0 W/m² 5,9 °C 7,3 °C 0,0 km/h (0 Bft)
15.11.2022 20:34 22,2 °C 7,3 °C 55 % 91 % 1008,0 hPa 0,0 l/m² 0,0 km/h (0 Bft) O-SO 106 ° 0 min 0 W/m² 5,9 °C 7,3 °C 0,0 km/h (0 Bft)
15.11.2022 20:36 22,2 °C 7,3 °C 55 % 92 % 1007,9 hPa 0,0 l/m² 0,0 km/h (0 Bft) O-SO 106 ° 0 min 0 W/m² 6,1 °C 7,3 °C 0,0 km/h (0 Bft)
15.11.2022 20:38 22,2 °C 7,3 °C 55 % 92 % 1008,0 hPa 0,0 l/m² 0,0 km/h (0 Bft) O-SO 106 ° 0 min 0 W/m² 6,1 °C 7,3 °C 0,0 km/h (0 Bft)
15.11.2022 20:40 22,3 °C 7,3 °C 55 % 92 % 1007,9 hPa 0,0 l/m² 0,0 km/h (0 Bft) O-SO 106 ° 0 min 0 W/m² 6,1 °C 7,3 °C 0,0 km/h (0 Bft)
15.11.2022 20:42 22,3 °C 7,3 °C 55 % 92 % 1008,0 hPa 0,0 l/m² 1,4 km/h (1 Bft) O-SO 106 ° 0 min 0 W/m² 6,1 °C 7,3 °C 4,8 km/h (1 Bft)
15.11.2022 20:43 22,3 °C 7,4 °C 55 % 92 % 1008,0 hPa 0,0 l/m² 4,1 km/h (1 Bft) O-SO 106 ° 0 min 0 W/m² 6,2 °C 7,4 °C 4,8 km/h (1 Bft)
15.11.2022 20:44 22,3 °C 7,4 °C 55 % 92 % 1008,0 hPa 0,0 l/m² 3,0 km/h (1 Bft) O-SO 106 ° 0 min 0 W/m² 6,2 °C 7,4 °C 4,8 km/h (1 Bft)
15.11.2022 20:46 22,3 °C 7,4 °C 55 % 92 % 1007,9 hPa 0,0 l/m² 1,5 km/h (1 Bft) O-SO 106 ° 0 min 0 W/m² 6,2 °C 7,4 °C 3,2 km/h (1 Bft)
15.11.2022 20:47 22,3 °C 7,4 °C 55 % 92 % 1008,0 hPa 0,0 l/m² 2,3 km/h (1 Bft) O-SO 106 ° 0 min 0 W/m² 6,2 °C 7,4 °C 3,2 km/h (1 Bft)
15.11.2022 20:48 22,3 °C 7,5 °C 55 % 92 % 1008,0 hPa 0,0 l/m² 2,1 km/h (1 Bft) O-SO 106 ° 0 min 0 W/m² 6,3 °C 7,5 °C 3,2 km/h (1 Bft)
15.11.2022 20:49 22,3 °C 7,5 °C 55 % 92 % 1008,0 hPa 0,0 l/m² 1,8 km/h (1 Bft) O-SO 106 ° 0 min 0 W/m² 6,3 °C 7,5 °C 3,2 km/h (1 Bft)
15.11.2022 20:51 22,3 °C 7,6 °C 56 % 92 % 1007,8 hPa 0,0 l/m² 0,4 km/h (0 Bft) O-SO 106 ° 0 min 0 W/m² 6,4 °C 7,6 °C 1,6 km/h (1 Bft)
15.11.2022 20:52 22,3 °C 7,6 °C 56 % 92 % 1007,8 hPa 0,0 l/m² 0,0 km/h (0 Bft) O-SO 106 ° 0 min 0 W/m² 6,4 °C 7,6 °C 0,0 km/h (0 Bft)
15.11.2022 20:53 22,3 °C 7,6 °C 56 % 92 % 1007,9 hPa 0,0 l/m² 0,0 km/h (0 Bft) O-SO 106 ° 0 min 0 W/m² 6,4 °C 7,6 °C 0,0 km/h (0 Bft)
15.11.2022 20:55 22,3 °C 7,6 °C 56 % 92 % 1007,8 hPa 0,0 l/m² 0,0 km/h (0 Bft) O-SO 106 ° 0 min 0 W/m² 6,4 °C 7,6 °C 1,6 km/h (1 Bft)
15.11.2022 20:57 22,4 °C 7,5 °C 56 % 92 % 1007,8 hPa 0,0 l/m² 1,2 km/h (1 Bft) O-SO 106 ° 0 min 0 W/m² 6,3 °C 7,5 °C 3,2 km/h (1 Bft)
15.11.2022 20:59 22,4 °C 7,4 °C 56 % 92 % 1007,8 hPa 0,0 l/m² 2,3 km/h (1 Bft) O-SO 106 ° 0 min 0 W/m² 6,2 °C 7,4 °C 4,8 km/h (1 Bft)
15.11.2022 21:01 22,4 °C 7,4 °C 56 % 92 % 1007,8 hPa 0,0 l/m² 1,7 km/h (1 Bft) O-SO 106 ° 0 min 0 W/m² 6,2 °C 7,4 °C 3,2 km/h (1 Bft)
15.11.2022 21:02 22,4 °C 7,4 °C 56 % 92 % 1007,8 hPa 0,0 l/m² 0,0 km/h (0 Bft) O-SO 106 ° 0 min 0 W/m² 6,2 °C 7,4 °C 0,0 km/h (0 Bft)
15.11.2022 21:03 22,4 °C 7,4 °C 56 % 93 % 1007,8 hPa 0,0 l/m² 0,0 km/h (0 Bft) O-SO 106 ° 0 min 0 W/m² 6,3 °C 7,4 °C 0,0 km/h (0 Bft)
15.11.2022 21:05 22,4 °C 7,6 °C 56 % 93 % 1007,8 hPa 0,0 l/m² 0,0 km/h (0 Bft) O-SO 106 ° 0 min 0 W/m² 6,5 °C 7,6 °C 0,0 km/h (0 Bft)
15.11.2022 21:07 22,4 °C 7,7 °C 56 % 93 % 1007,8 hPa 0,0 l/m² 0,0 km/h (0 Bft) O-SO 106 ° 0 min 0 W/m² 6,6 °C 7,7 °C 0,0 km/h (0 Bft)
15.11.2022 21:09 22,4 °C 7,7 °C 56 % 93 % 1007,8 hPa 0,0 l/m² 0,0 km/h (0 Bft) O-SO 106 ° 0 min 0 W/m² 6,6 °C 7,7 °C 0,0 km/h (0 Bft)
15.11.2022 21:11 22,4 °C 7,7 °C 56 % 92 % 1007,7 hPa 0,0 l/m² 0,0 km/h (0 Bft) O-SO 106 ° 0 min 0 W/m² 6,5 °C 7,7 °C 0,0 km/h (0 Bft)
15.11.2022 21:12 22,4 °C 7,7 °C 56 % 92 % 1007,7 hPa 0,0 l/m² 0,0 km/h (0 Bft) O-SO 106 ° 0 min 0 W/m² 6,5 °C 7,7 °C 0,0 km/h (0 Bft)
15.11.2022 21:13 22,4 °C 7,7 °C 56 % 92 % 1007,8 hPa 0,0 l/m² 0,7 km/h (0 Bft) O-SO 106 ° 0 min 0 W/m² 6,5 °C 7,7 °C 1,6 km/h (1 Bft)
15.11.2022 21:15 22,4 °C 7,7 °C 56 % 92 % 1007,8 hPa 0,0 l/m² 1,4 km/h (1 Bft) O-SO 106 ° 0 min 0 W/m² 6,5 °C 7,7 °C 3,2 km/h (1 Bft)
15.11.2022 21:17 22,4 °C 7,6 °C 56 % 92 % 1007,8 hPa 0,0 l/m² 2,1 km/h (1 Bft) O-SO 106 ° 0 min 0 W/m² 6,4 °C 7,6 °C 3,2 km/h (1 Bft)
15.11.2022 21:19 22,4 °C 7,7 °C 56 % 92 % 1007,8 hPa 0,0 l/m² 1,6 km/h (1 Bft) O-SO 106 ° 0 min 0 W/m² 6,5 °C 7,7 °C 3,2 km/h (1 Bft)
15.11.2022 21:21 22,4 °C 7,6 °C 56 % 92 % 1007,8 hPa 0,0 l/m² 0,0 km/h (0 Bft) O-SO 106 ° 0 min 0 W/m² 6,4 °C 7,6 °C 0,0 km/h (0 Bft)
15.11.2022 21:22 22,4 °C 7,5 °C 56 % 92 % 1007,8 hPa 0,0 l/m² 0,0 km/h (0 Bft) O-SO 106 ° 0 min 0 W/m² 6,3 °C 7,5 °C 0,0 km/h (0 Bft)
15.11.2022 21:23 22,4 °C 7,4 °C 56 % 92 % 1007,8 hPa 0,0 l/m² 0,1 km/h (0 Bft) O-SO 106 ° 0 min 0 W/m² 6,2 °C 7,4 °C 1,6 km/h (1 Bft)
15.11.2022 21:25 22,4 °C 7,3 °C 56 % 92 % 1007,8 hPa 0,0 l/m² 0,0 km/h (0 Bft) O-SO 106 ° 0 min 0 W/m² 6,1 °C 7,3 °C 0,0 km/h (0 Bft)
15.11.2022 21:27 22,5 °C 7,3 °C 56 % 92 % 1007,8 hPa 0,0 l/m² 0,0 km/h (0 Bft) O-SO 106 ° 0 min 0 W/m² 6,1 °C 7,3 °C 0,0 km/h (0 Bft)
15.11.2022 21:29 22,5 °C 7,3 °C 56 % 93 % 1007,8 hPa 0,0 l/m² 0,0 km/h (0 Bft) O-SO 106 ° 0 min 0 W/m² 6,2 °C 7,3 °C 0,0 km/h (0 Bft)
15.11.2022 21:31 22,5 °C 7,3 °C 57 % 93 % 1007,8 hPa 0,0 l/m² 2,4 km/h (1 Bft) O-SO 106 ° 0 min 0 W/m² 6,2 °C 7,3 °C 4,8 km/h (1 Bft)
15.11.2022 21:32 22,5 °C 7,3 °C 57 % 93 % 1007,8 hPa 0,0 l/m² 4,4 km/h (1 Bft) O-SO 106 ° 0 min 0 W/m² 6,2 °C 7,3 °C 4,8 km/h (1 Bft)
15.11.2022 21:33 22,6 °C 7,3 °C 57 % 93 % 1007,8 hPa 0,0 l/m² 4,9 km/h (1 Bft) O-SO 106 ° 0 min 0 W/m² 6,2 °C 7,3 °C 6,4 km/h (2 Bft)
15.11.2022 21:35 22,5 °C 7,4 °C 57 % 93 % 1007,8 hPa 0,0 l/m² 4,6 km/h (1 Bft) O-SO 106 ° 0 min 0 W/m² 6,3 °C 7,4 °C 4,8 km/h (1 Bft)
15.11.2022 21:37 22,5 °C 7,4 °C 57 % 93 % 1007,7 hPa 0,0 l/m² 4,8 km/h (1 Bft) O-SO 106 ° 0 min 0 W/m² 6,3 °C 7,4 °C 6,4 km/h (2 Bft)
15.11.2022 21:39 22,5 °C 7,4 °C 57 % 93 % 1007,7 hPa 0,0 l/m² 2,4 km/h (1 Bft) O-SO 106 ° 0 min 0 W/m² 6,3 °C 7,4 °C 4,8 km/h (1 Bft)
15.11.2022 21:41 22,5 °C 7,5 °C 57 % 93 % 1007,6 hPa 0,0 l/m² 2,5 km/h (1 Bft) O-SO 106 ° 0 min 0 W/m² 6,4 °C 7,5 °C 4,8 km/h (1 Bft)
15.11.2022 21:42 22,5 °C 7,5 °C 57 % 93 % 1007,6 hPa 0,0 l/m² 2,2 km/h (1 Bft) O-SO 106 ° 0 min 0 W/m² 6,4 °C 7,5 °C 4,8 km/h (1 Bft)
15.11.2022 21:43 22,6 °C 7,6 °C 57 % 93 % 1007,6 hPa 0,0 l/m² 2,3 km/h (1 Bft) O-SO 106 ° 0 min 0 W/m² 6,5 °C 7,6 °C 4,8 km/h (1 Bft)
15.11.2022 21:45 22,6 °C 7,6 °C 57 % 93 % 1007,7 hPa 0,0 l/m² 2,3 km/h (1 Bft) O-SO 106 ° 0 min 0 W/m² 6,5 °C 7,6 °C 3,2 km/h (1 Bft)
15.11.2022 21:46 22,6 °C 7,6 °C 57 % 93 % 1007,7 hPa 0,0 l/m² 3,1 km/h (1 Bft) O-SO 106 ° 0 min 0 W/m² 6,5 °C 7,6 °C 4,8 km/h (1 Bft)
15.11.2022 21:47 22,5 °C 7,7 °C 57 % 93 % 1007,7 hPa 0,0 l/m² 3,6 km/h (1 Bft) O-SO 106 ° 0 min 0 W/m² 6,6 °C 7,7 °C 4,8 km/h (1 Bft)
15.11.2022 21:49 22,5 °C 7,7 °C 57 % 93 % 1007,6 hPa 0,0 l/m² 4,7 km/h (1 Bft) O 100 ° 0 min 0 W/m² 6,6 °C 7,7 °C 6,4 km/h (2 Bft)
15.11.2022 21:51 22,5 °C 7,8 °C 57 % 93 % 1007,6 hPa 0,0 l/m² 5,3 km/h (1 Bft) O-NO 65 ° 0 min 0 W/m² 6,7 °C 7,8 °C 8,0 km/h (2 Bft)
15.11.2022 21:52 22,5 °C 7,8 °C 57 % 93 % 1007,6 hPa 0,0 l/m² 3,8 km/h (1 Bft) O-NO 65 ° 0 min 0 W/m² 6,7 °C 7,8 °C 4,8 km/h (1 Bft)
15.11.2022 21:53 22,4 °C 7,8 °C 57 % 93 % 1007,6 hPa 0,0 l/m² 3,9 km/h (1 Bft) O-NO 65 ° 0 min 0 W/m² 6,7 °C 7,8 °C 6,4 km/h (2 Bft)
15.11.2022 21:55 22,4 °C 7,9 °C 57 % 93 % 1007,5 hPa 0,0 l/m² 1,6 km/h (1 Bft) O-NO 65 ° 0 min 0 W/m² 6,8 °C 7,9 °C 4,8 km/h (1 Bft)
15.11.2022 21:57 22,5 °C 7,9 °C 57 % 93 % 1007,4 hPa 0,0 l/m² 1,0 km/h (0 Bft) O-NO 65 ° 0 min 0 W/m² 6,8 °C 7,9 °C 4,8 km/h (1 Bft)
15.11.2022 21:59 22,4 °C 7,9 °C 56 % 93 % 1007,5 hPa 0,0 l/m² 1,4 km/h (1 Bft) O-NO 65 ° 0 min 0 W/m² 6,8 °C 7,9 °C 3,2 km/h (1 Bft)
15.11.2022 22:01 22,4 °C 8,0 °C 56 % 93 % 1007,4 hPa 0,0 l/m² 2,9 km/h (1 Bft) O-NO 65 ° 0 min 0 W/m² 6,9 °C 8,0 °C 6,4 km/h (2 Bft)
15.11.2022 22:02 22,4 °C 8,0 °C 56 % 93 % 1007,4 hPa 0,0 l/m² 2,4 km/h (1 Bft) O-NO 65 ° 0 min 0 W/m² 6,9 °C 8,0 °C 6,4 km/h (2 Bft)
15.11.2022 22:03 22,4 °C 8,0 °C 56 % 93 % 1007,5 hPa 0,0 l/m² 2,5 km/h (1 Bft) O-NO 65 ° 0 min 0 W/m² 6,9 °C 8,0 °C 4,8 km/h (1 Bft)
15.11.2022 22:05 22,4 °C 8,0 °C 56 % 93 % 1007,3 hPa 0,0 l/m² 4,2 km/h (1 Bft) O-NO 65 ° 0 min 0 W/m² 6,9 °C 8,0 °C 6,4 km/h (2 Bft)
15.11.2022 22:07 22,4 °C 8,0 °C 56 % 93 % 1007,3 hPa 0,0 l/m² 3,6 km/h (1 Bft) O-NO 65 ° 0 min 0 W/m² 6,9 °C 8,0 °C 6,4 km/h (2 Bft)
15.11.2022 22:09 22,4 °C 8,0 °C 56 % 93 % 1007,2 hPa 0,0 l/m² 4,8 km/h (1 Bft) O-NO 63 ° 0 min 0 W/m² 6,9 °C 8,0 °C 8,0 km/h (2 Bft)
15.11.2022 22:11 22,4 °C 8,1 °C 56 % 93 % 1007,1 hPa 0,0 l/m² 4,8 km/h (1 Bft) O-NO 69 ° 0 min 0 W/m² 7,0 °C 8,1 °C 8,0 km/h (2 Bft)
15.11.2022 22:12 22,4 °C 8,1 °C 56 % 93 % 1007,1 hPa 0,0 l/m² 6,2 km/h (2 Bft) NO 51 ° 0 min 0 W/m² 7,0 °C 8,1 °C 9,7 km/h (2 Bft)
15.11.2022 22:13 22,4 °C 8,1 °C 56 % 93 % 1007,2 hPa 0,0 l/m² 7,1 km/h (2 Bft) NO 50 ° 0 min 0 W/m² 7,0 °C 7,6 °C 11,3 km/h (2 Bft)
15.11.2022 22:15 22,4 °C 8,1 °C 56 % 93 % 1007,0 hPa 0,0 l/m² 8,5 km/h (2 Bft) O-NO 75 ° 0 min 0 W/m² 7,0 °C 6,5 °C 16,1 km/h (3 Bft)
15.11.2022 22:17 22,4 °C 8,1 °C 56 % 93 % 1007,1 hPa 0,0 l/m² 8,8 km/h (2 Bft) O-NO 76 ° 0 min 0 W/m² 7,0 °C 6,3 °C 12,9 km/h (3 Bft)
15.11.2022 22:19 22,4 °C 8,2 °C 56 % 93 % 1007,1 hPa 0,0 l/m² 7,7 km/h (2 Bft) O-NO 76 ° 0 min 0 W/m² 7,1 °C 7,2 °C 12,9 km/h (3 Bft)
15.11.2022 22:21 22,4 °C 8,2 °C 56 % 93 % 1007,0 hPa 0,0 l/m² 7,0 km/h (2 Bft) O-NO 71 ° 0 min 0 W/m² 7,1 °C 7,7 °C 12,9 km/h (3 Bft)
15.11.2022 22:22 22,4 °C 8,2 °C 56 % 93 % 1007,0 hPa 0,0 l/m² 5,5 km/h (2 Bft) NO 56 ° 0 min 0 W/m² 7,1 °C 8,2 °C 9,7 km/h (2 Bft)
15.11.2022 22:24 22,4 °C 8,2 °C 56 % 93 % 1007,0 hPa 0,0 l/m² 4,5 km/h (1 Bft) O-NO 73 ° 0 min 0 W/m² 7,1 °C 8,2 °C 8,0 km/h (2 Bft)
15.11.2022 22:26 22,4 °C 8,2 °C 56 % 93 % 1007,0 hPa 0,0 l/m² 1,3 km/h (1 Bft) O-NO 73 ° 0 min 0 W/m² 7,1 °C 8,2 °C 4,8 km/h (1 Bft)
15.11.2022 22:28 22,4 °C 8,1 °C 56 % 93 % 1007,0 hPa 0,0 l/m² 0,0 km/h (0 Bft) O-NO 73 ° 0 min 0 W/m² 7,0 °C 8,1 °C 0,0 km/h (0 Bft)
15.11.2022 22:30 22,4 °C 7,9 °C 56 % 93 % 1007,1 hPa 0,0 l/m² 3,9 km/h (1 Bft) SW 223 ° 0 min 0 W/m² 6,8 °C 7,9 °C 6,4 km/h (2 Bft)
15.11.2022 22:32 22,4 °C 7,8 °C 56 % 93 % 1007,1 hPa 0,0 l/m² 6,4 km/h (2 Bft) SW 223 ° 0 min 0 W/m² 6,7 °C 7,8 °C 8,0 km/h (2 Bft)
15.11.2022 22:33 22,4 °C 7,8 °C 56 % 93 % 1007,1 hPa 0,0 l/m² 7,4 km/h (2 Bft) SW 222 ° 0 min 0 W/m² 6,7 °C 7,0 °C 8,0 km/h (2 Bft)
15.11.2022 22:34 22,4 °C 7,7 °C 56 % 93 % 1007,1 hPa 0,0 l/m² 6,4 km/h (2 Bft) SW 216 ° 0 min 0 W/m² 6,6 °C 7,7 °C 9,7 km/h (2 Bft)
15.11.2022 22:36 22,4 °C 7,7 °C 56 % 93 % 1007,1 hPa 0,0 l/m² 2,5 km/h (1 Bft) S-SW 213 ° 0 min 0 W/m² 6,6 °C 7,7 °C 4,8 km/h (1 Bft)
15.11.2022 22:38 22,3 °C 7,7 °C 56 % 93 % 1007,1 hPa 0,0 l/m² 3,4 km/h (1 Bft) S 175 ° 0 min 0 W/m² 6,6 °C 7,7 °C 4,8 km/h (1 Bft)
15.11.2022 22:40 22,4 °C 7,7 °C 56 % 93 % 1007,0 hPa 0,0 l/m² 3,8 km/h (1 Bft) SO 126 ° 0 min 0 W/m² 6,6 °C 7,7 °C 6,4 km/h (2 Bft)
15.11.2022 22:42 22,3 °C 7,7 °C 56 % 93 % 1007,0 hPa 0,0 l/m² 4,6 km/h (1 Bft) O-NO 78 ° 0 min 0 W/m² 6,6 °C 7,7 °C 6,4 km/h (2 Bft)
15.11.2022 22:43 22,3 °C 7,7 °C 56 % 93 % 1007,0 hPa 0,0 l/m² 3,1 km/h (1 Bft) O-NO 78 ° 0 min 0 W/m² 6,6 °C 7,7 °C 4,8 km/h (1 Bft)
15.11.2022 22:44 22,3 °C 7,7 °C 56 % 93 % 1006,9 hPa 0,0 l/m² 3,2 km/h (1 Bft) O-NO 78 ° 0 min 0 W/m² 6,6 °C 7,7 °C 4,8 km/h (1 Bft)
15.11.2022 22:46 22,3 °C 7,7 °C 56 % 93 % 1007,0 hPa 0,0 l/m² 0,4 km/h (0 Bft) O-NO 78 ° 0 min 0 W/m² 6,6 °C 7,7 °C 3,2 km/h (1 Bft)
15.11.2022 22:48 22,3 °C 7,6 °C 56 % 93 % 1007,0 hPa 0,0 l/m² 0,0 km/h (0 Bft) O-NO 78 ° 0 min 0 W/m² 6,5 °C 7,6 °C 1,6 km/h (1 Bft)
15.11.2022 22:50 22,3 °C 7,4 °C 56 % 93 % 1006,9 hPa 0,0 l/m² 0,0 km/h (0 Bft) O-NO 78 ° 0 min 0 W/m² 6,3 °C 7,4 °C 0,0 km/h (0 Bft)
15.11.2022 22:52 22,3 °C 7,3 °C 56 % 93 % 1006,9 hPa 0,0 l/m² 0,1 km/h (0 Bft) O-NO 78 ° 0 min 0 W/m² 6,2 °C 7,3 °C 1,6 km/h (1 Bft)
15.11.2022 22:53 22,3 °C 7,3 °C 56 % 93 % 1006,9 hPa 0,0 l/m² 0,0 km/h (0 Bft) O-NO 78 ° 0 min 0 W/m² 6,2 °C 7,3 °C 0,0 km/h (0 Bft)
15.11.2022 22:54 22,3 °C 7,3 °C 56 % 93 % 1006,9 hPa 0,0 l/m² 0,0 km/h (0 Bft) O-NO 78 ° 0 min 0 W/m² 6,2 °C 7,3 °C 0,0 km/h (0 Bft)
15.11.2022 22:56 22,3 °C 7,3 °C 56 % 93 % 1006,8 hPa 0,0 l/m² 0,0 km/h (0 Bft) O-NO 78 ° 0 min 0 W/m² 6,2 °C 7,3 °C 0,0 km/h (0 Bft)
15.11.2022 22:58 22,3 °C 7,2 °C 56 % 93 % 1006,7 hPa 0,0 l/m² 0,6 km/h (0 Bft) O-NO 78 ° 0 min 0 W/m² 6,1 °C 7,2 °C 3,2 km/h (1 Bft)
15.11.2022 23:00 22,3 °C 7,2 °C 56 % 93 % 1006,7 hPa 0,0 l/m² 4,5 km/h (1 Bft) O-NO 65 ° 0 min 0 W/m² 6,1 °C 7,2 °C 6,4 km/h (2 Bft)
15.11.2022 23:02 22,3 °C 7,3 °C 56 % 93 % 1006,6 hPa 0,0 l/m² 3,7 km/h (1 Bft) O-NO 61 ° 0 min 0 W/m² 6,2 °C 7,3 °C 6,4 km/h (2 Bft)
15.11.2022 23:03 22,3 °C 7,3 °C 56 % 93 % 1006,6 hPa 0,0 l/m² 5,2 km/h (1 Bft) O-NO 70 ° 0 min 0 W/m² 6,2 °C 7,3 °C 6,4 km/h (2 Bft)
15.11.2022 23:05 22,3 °C 7,3 °C 56 % 94 % 1006,7 hPa 0,0 l/m² 5,9 km/h (2 Bft) O-NO 67 ° 0 min 0 W/m² 6,4 °C 7,3 °C 8,0 km/h (2 Bft)
15.11.2022 23:06 22,3 °C 7,3 °C 56 % 94 % 1006,8 hPa 0,0 l/m² 5,5 km/h (2 Bft) O-NO 68 ° 0 min 0 W/m² 6,4 °C 7,3 °C 6,4 km/h (2 Bft)
15.11.2022 23:07 22,3 °C 7,4 °C 56 % 94 % 1006,8 hPa 0,0 l/m² 5,0 km/h (1 Bft) O-NO 68 ° 0 min 0 W/m² 6,5 °C 7,4 °C 6,4 km/h (2 Bft)
15.11.2022 23:09 22,3 °C 7,4 °C 56 % 94 % 1006,7 hPa 0,0 l/m² 4,1 km/h (1 Bft) O-NO 69 ° 0 min 0 W/m² 6,5 °C 7,4 °C 6,4 km/h (2 Bft)
15.11.2022 23:11 22,3 °C 7,4 °C 56 % 94 % 1006,7 hPa 0,0 l/m² 3,8 km/h (1 Bft) O-NO 68 ° 0 min 0 W/m² 6,5 °C 7,4 °C 8,0 km/h (2 Bft)
15.11.2022 23:12 22,3 °C 7,4 °C 56 % 93 % 1006,7 hPa 0,0 l/m² 2,7 km/h (1 Bft) O-NO 69 ° 0 min 0 W/m² 6,3 °C 7,4 °C 4,8 km/h (1 Bft)
15.11.2022 23:13 22,3 °C 7,4 °C 56 % 93 % 1006,7 hPa 0,0 l/m² 2,2 km/h (1 Bft) O-NO 68 ° 0 min 0 W/m² 6,3 °C 7,4 °C 3,2 km/h (1 Bft)
15.11.2022 23:15 22,3 °C 7,4 °C 56 % 93 % 1006,9 hPa 0,0 l/m² 0,6 km/h (0 Bft) O-NO 69 ° 0 min 0 W/m² 6,3 °C 7,4 °C 3,2 km/h (1 Bft)
15.11.2022 23:16 22,3 °C 7,3 °C 56 % 93 % 1006,7 hPa 0,0 l/m² 1,6 km/h (1 Bft) O-NO 67 ° 0 min 0 W/m² 6,2 °C 7,3 °C 3,2 km/h (1 Bft)
15.11.2022 23:23 22,3 °C 7,3 °C 56 % 94 % 1006,8 hPa 0,0 l/m² 0,0 km/h (0 Bft) O-NO 69 ° 0 min 0 W/m² 6,4 °C 7,3 °C 0,0 km/h (0 Bft)
15.11.2022 23:24 22,3 °C 7,4 °C 56 % 94 % 1006,8 hPa 0,0 l/m² 0,0 km/h (0 Bft) O-NO 69 ° 0 min 0 W/m² 6,5 °C 7,4 °C 0,0 km/h (0 Bft)
15.11.2022 23:25 22,3 °C 7,4 °C 56 % 94 % 1006,8 hPa 0,0 l/m² 0,0 km/h (0 Bft) O-NO 68 ° 0 min 0 W/m² 6,5 °C 7,4 °C 0,0 km/h (0 Bft)
15.11.2022 23:28 22,2 °C 7,4 °C 56 % 94 % 1006,7 hPa 0,0 l/m² 0,6 km/h (0 Bft) O-NO 68 ° 0 min 0 W/m² 6,5 °C 7,4 °C 3,2 km/h (1 Bft)
15.11.2022 23:30 22,2 °C 7,4 °C 56 % 93 % 1006,7 hPa 0,0 l/m² 2,0 km/h (1 Bft) O-NO 69 ° 0 min 0 W/m² 6,3 °C 7,4 °C 3,2 km/h (1 Bft)
15.11.2022 23:31 22,2 °C 7,4 °C 56 % 93 % 1006,7 hPa 0,0 l/m² 2,4 km/h (1 Bft) O-NO 68 ° 0 min 0 W/m² 6,3 °C 7,4 °C 3,2 km/h (1 Bft)
15.11.2022 23:32 22,2 °C 7,4 °C 56 % 93 % 1006,7 hPa 0,0 l/m² 2,8 km/h (1 Bft) O-NO 69 ° 0 min 0 W/m² 6,3 °C 7,4 °C 3,2 km/h (1 Bft)
15.11.2022 23:33 22,2 °C 7,3 °C 56 % 93 % 1006,7 hPa 0,0 l/m² 3,2 km/h (1 Bft) O-NO 68 ° 0 min 0 W/m² 6,2 °C 7,3 °C 3,2 km/h (1 Bft)
15.11.2022 23:34 22,2 °C 7,3 °C 56 % 93 % 1006,7 hPa 0,0 l/m² 3,7 km/h (1 Bft) O-NO 69 ° 0 min 0 W/m² 6,2 °C 7,3 °C 4,8 km/h (1 Bft)
15.11.2022 23:36 22,2 °C 7,2 °C 56 % 93 % 1006,6 hPa 0,0 l/m² 3,9 km/h (1 Bft) O-NO 69 ° 0 min 0 W/m² 6,1 °C 7,2 °C 4,8 km/h (1 Bft)
15.11.2022 23:38 22,2 °C 7,2 °C 56 % 93 % 1006,6 hPa 0,0 l/m² 4,0 km/h (1 Bft) O-NO 68 ° 0 min 0 W/m² 6,1 °C 7,2 °C 4,8 km/h (1 Bft)
15.11.2022 23:40 22,2 °C 7,1 °C 56 % 93 % 1006,6 hPa 0,0 l/m² 3,7 km/h (1 Bft) O-NO 69 ° 0 min 0 W/m² 6,0 °C 7,1 °C 4,8 km/h (1 Bft)
15.11.2022 23:41 22,2 °C 7,1 °C 56 % 93 % 1006,6 hPa 0,0 l/m² 3,4 km/h (1 Bft) O-NO 68 ° 0 min 0 W/m² 6,0 °C 7,1 °C 4,8 km/h (1 Bft)
15.11.2022 23:42 22,2 °C 7,0 °C 56 % 93 % 1006,6 hPa 0,0 l/m² 3,0 km/h (1 Bft) O-NO 69 ° 0 min 0 W/m² 5,9 °C 7,0 °C 3,2 km/h (1 Bft)
15.11.2022 23:43 22,2 °C 6,9 °C 56 % 93 % 1006,6 hPa 0,0 l/m² 3,9 km/h (1 Bft) O-NO 68 ° 0 min 0 W/m² 5,8 °C 6,9 °C 4,8 km/h (1 Bft)
15.11.2022 23:44 22,2 °C 6,9 °C 56 % 93 % 1006,6 hPa 0,0 l/m² 3,7 km/h (1 Bft) O-NO 68 ° 0 min 0 W/m² 5,8 °C 6,9 °C 4,8 km/h (1 Bft)
15.11.2022 23:46 22,2 °C 6,8 °C 56 % 93 % 1006,7 hPa 0,0 l/m² 4,0 km/h (1 Bft) O-NO 69 ° 0 min 0 W/m² 5,7 °C 6,8 °C 6,4 km/h (2 Bft)
15.11.2022 23:48 22,2 °C 6,8 °C 56 % 93 % 1006,6 hPa 0,0 l/m² 4,1 km/h (1 Bft) O-NO 68 ° 0 min 0 W/m² 5,7 °C 6,8 °C 6,4 km/h (2 Bft)
15.11.2022 23:50 22,2 °C 6,8 °C 56 % 93 % 1006,6 hPa 0,0 l/m² 3,3 km/h (1 Bft) O-NO 69 ° 0 min 0 W/m² 5,7 °C 6,8 °C 4,8 km/h (1 Bft)
15.11.2022 23:51 22,2 °C 6,8 °C 56 % 93 % 1006,5 hPa 0,0 l/m² 2,6 km/h (1 Bft) O-NO 69 ° 0 min 0 W/m² 5,7 °C 6,8 °C 4,8 km/h (1 Bft)
15.11.2022 23:52 22,2 °C 6,8 °C 56 % 93 % 1006,5 hPa 0,0 l/m² 3,0 km/h (1 Bft) O-NO 68 ° 0 min 0 W/m² 5,7 °C 6,8 °C 4,8 km/h (1 Bft)
15.11.2022 23:53 22,2 °C 6,8 °C 56 % 93 % 1006,5 hPa 0,0 l/m² 0,7 km/h (0 Bft) O-NO 69 ° 0 min 0 W/m² 5,7 °C 6,8 °C 3,2 km/h (1 Bft)
15.11.2022 23:54 22,2 °C 6,8 °C 56 % 93 % 1006,4 hPa 0,0 l/m² 0,0 km/h (0 Bft) O-NO 69 ° 0 min 0 W/m² 5,7 °C 6,8 °C 0,0 km/h (0 Bft)
15.11.2022 23:56 22,2 °C 6,7 °C 56 % 93 % 1006,5 hPa 0,0 l/m² 0,1 km/h (0 Bft) O-NO 69 ° 0 min 0 W/m² 5,6 °C 6,7 °C 1,6 km/h (1 Bft)
15.11.2022 23:58 22,2 °C 6,7 °C 56 % 93 % 1006,5 hPa 0,0 l/m² 1,1 km/h (1 Bft) O-NO 69 ° 0 min 0 W/m² 5,6 °C 6,7 °C 3,2 km/h (1 Bft)
15.11.2022 23:59 22,2 °C 6,7 °C 56 % 93 % 1006,5 hPa 0,0 l/m² 0,0 km/h (0 Bft) O-NO 68 ° 0 min 0 W/m² 5,6 °C 6,7 °C 0,0 km/h (0 Bft)
_ Min-Zeit 08:18 07:52 17:10 14:32 23:54 - 23:59 - - - - 07:46 07:52 23:59
Minimum _ 21,6 °C 1,4 °C 49 % 66 % 1006,4 hPa - 0,0 km/h (0 Bft) - - - - 0,6 °C 1,4 °C 0,0 km/h (0 Bft)
_ Max-Zeit 12:50 14:23 21:57 09:23 00:00 23:59 11:46 - - 12:46 11:52 13:56 14:23 22:15
Maximum _ 23,4 °C 15,0 °C 57 % 96 % 1014,7 hPa 0,0 l/m² 11,9 km/h
SO (2 Bft)
- - 3 min 343 W/m² 9,6 °C 15,0 °C 16,1 km/h
O-NO (3 Bft)
Durchschnitt _ 22,2 °C 7,3 °C 55 % 88 % 1011,0 hPa #0,0 l/m² 2,7 km/h (1 Bft) O-NO - #6:39 h 68 W/m² 5,2 °C 7,2 °C 4,3 km/h (1 Bft)
© 2009 Mathias Hoßbach